     2              OBSERVATION DATA    G (GPS)             RINEX VERSION / TYPE
TRRINEXO V2.3.4 LH UCLA / SCEC 29-JUL-94 17:10              PGM / RUN BY / DATE
DONATED TO SCEC ARCHIVE BY: NATIONAL GEODETIC SURVEY        COMMENT
PROJECT NAME: NGS hpgn 1993-1994                            COMMENT
ARCHIVED BY: SOUTHERN CALIFORNIA EARTHQUAKE CENTER (SCEC)   COMMENT
ANTENNA DELTA H: DIRECT HEIGHT TO PRE-AMP BASE (DHPAB)      COMMENT
NOTE:                                                       COMMENT
PROBLEM: NONE                                               COMMENT
FOR FURTHER INFORMATION CONTACT: DAVE JACKSON               COMMENT
UCLA / GEOLOGY BLDG., 595 CIRCLE DR E. RM 3806              COMMENT
LOS ANGELES CA 90024 DJACKSON@ESS.UCLA.EDU                  COMMENT
ANTENNA ON FIXED HEIGHT TRUCK MOUNTED KINEMATIC POLE        COMMENT
BIT 2 OF LLI (+4) FLAGS DATA COLLECTED UNDER "AS" CONDITION COMMENT
OCOTILLO 1935                                               MARKER NAME
M.L. BERGMAN NGS                                            OBSERVER / AGENCY
1531 TRIMBLE 4000 SSE 5.66                                  REC # / TYPE / VERS
16 TRIMBLE 4000 SSE                                         ANT # / TYPE
 -2354461.0000 -4826980.0000  3429223.0000                  APPROX POSITION XYZ
        2.2200        0.0000        0.0000                  ANTENNA: DELTA H/E/N
     1     1                                                WAVELENGTH FACT L1/2
     4    C1    L1    L2    P2                              # / TYPES OF OBSERV
    30                                                      INTERVAL
  1994     3    23    18    25   30.000000                  TIME OF FIRST OBS
                                                            END OF HEADER
 94  3 23 18 25 30.0000000  0  7 27 29 28 31 14 18 19
  23084815.547    -3922792.32016  -2941324.47319  23084820.410
  20912067.656     1430607.71017   1101561.24419  20912070.199
  23270837.047    -1886734.59616  -1415229.58819  23270841.559
  22863448.008    -4267212.15516  -3223931.85319  22863452.566
  24154853.766     5977491.58215   4554710.27919  24154861.609
  20224356.891    -1536872.89718  -1162650.78319  20224359.621
  21301289.570    -2148970.30618  -1635259.31819  21301292.980
 94  3 23 18 26  0.0000000  0  7 27 29 28 31 14 18 19
  23071974.133    -3990275.302 6  -2993908.582 9  23071978.832
  20919288.469     1468553.723 7   1131129.530 9  20919291.223
  23266940.727    -1907211.492 6  -1431185.574 9  23266945.625
  22850254.695    -4336542.433 6  -3277955.376 9  22850259.559
  24175826.086     6087701.128 5   4640587.590 9  24175832.836
  20221350.695    -1552670.019 8  -1174960.235 9  20221353.402
  21294995.258    -2182046.076 7  -1661032.633 9  21294998.609
 94  3 23 18 26 30.0000000  0  7 27 29 28 31 14 18 19
  23059156.680    -4057631.349 6  -3046393.764 9  23059161.438
  20926592.359     1506935.277 7   1161037.196 9  20926595.078
  23263139.156    -1927188.016 6  -1446751.671 9  23263144.031
  22837126.352    -4405531.939 6  -3331713.386 9  22837130.781
  24196794.078     6197895.612 4   4726453.172 9  24196802.461
  20218431.875    -1568008.576 8  -1186912.363 9  20218434.641
  21288733.375    -2214953.704 8  -1686674.932 9  21288736.703
 94  3 23 18 27  0.0000000  0  6 27 29 28 31 18 19
  23046363.063    -4124862.256 6  -3098781.465 9  23046367.246
  20933977.898     1545747.969 7   1191280.810 9  20933980.652
  23259431.813    -1946670.331 6  -1461932.659 9  23259436.723
  22824064.586    -4474172.947 6  -3385199.817 9  22824069.648
  20215601.945    -1582879.878 8  -1198500.395 9  20215604.781
  21282503.430    -2247692.487 8  -1712185.663 9  21282506.641
 94  3 23 18 27 30.0000000  0  6 27 29 28 31 18 19
  23033592.766    -4191971.261 6  -3151074.164 9  23033596.949
  20941444.578     1584985.118 7   1221855.170 9  20941447.461
  23255818.617    -1965655.758 6  -1476726.465 9  23255823.281
  22811070.758    -4542453.915 6  -3438405.702 9  22811076.043
  20212859.820    -1597290.007 8  -1209729.076 9  20212862.563
  21276307.672    -2280250.934 8  -1737555.875 9  21276310.918
 94  3 23 18 28  0.0000000  0  6 27 29 28 31 18 19
  23020844.422    -4258965.146 6  -3203277.158 9  23020848.699
  20948989.781     1624634.500 7   1252750.750 9  20948992.477
  23252297.523    -1984162.250 6  -1491147.091 9  23252302.129
  22798147.250    -4610365.978 6  -3491324.146 9  22798152.137
  20210203.523    -1611250.252 8  -1220607.198 9  20210206.137
  21270148.109    -2312620.329 7  -1762778.775 9  21270151.449
 94  3 23 18 28 30.0000000  0  6 27 29 28 31 18 19
  23008116.813    -4325846.071 6  -3255392.132 9  23008121.242
  20956614.828     1664703.982 7   1283973.676 9  20956617.488
  23248868.297    -2002182.673 6  -1505188.954 9  23248873.500
  22785293.328    -4677917.231 6  -3543961.425 9  22785298.063
  20207632.359    -1624762.281 8  -1231136.058 9  20207634.867
  21264024.758    -2344797.265 7  -1787851.700 9  21264028.039
 94  3 23 18 29  0.0000000  0  6 27 29 28 31 18 19
  22995410.414    -4392619.959 6  -3307423.695 9  22995414.691
  20964322.344     1705206.624 7   1315534.131 9  20964325.086
  23245537.445    -2019686.968 6  -1518828.639 9  23245541.898
  22772505.680    -4745115.051 6  -3596323.325 9  22772510.156
  20205147.008    -1637821.644 8  -1241312.191 9  20205149.773
  21257941.602    -2376764.885 7  -1812761.521 9  21257944.895
 94  3 23 18 29 30.0000000  0  6 27 29 28 31 18 19
  22982724.914    -4459284.983 6  -3359370.449 9  22982728.887
  20972111.859     1746139.908 7   1347430.157 9  20972114.684
  23242306.984    -2036660.836 6  -1532055.004 9  23242311.402
  22759785.711    -4811956.119 6  -3648407.206 9  22759790.574
  20202746.516    -1650435.911 8  -1251141.503 9  20202749.258
  21251900.086    -2408511.492 7  -1837499.127 9  21251903.613
 94  3 23 18 30  0.0000000  0  6 27 29 28 31 18 19
  22970056.867    -4525850.447 6  -3411239.617 9  22970061.227
  20979983.727     1787508.140 7   1379665.093 9  20979986.352
  23239180.438    -2053094.192 6  -1544860.189 9  23239184.973
  22747132.547    -4878450.652 6  -3700221.078 9  22747137.258
  20200435.078    -1662583.866 8  -1260607.455 9  20200437.785
  21245901.570    -2440034.730 7  -1862062.683 9  21245904.910
 94  3 23 18 30 30.0000000  0  6 27 29 28 31 18 19
  22957405.281    -4592339.145 6  -3463048.973 9  22957409.746
  20987935.117     1829294.082 7   1412225.524 9  20987937.801
  23236156.953    -2068979.847 6  -1557238.593 9  23236161.828
  22734539.578    -4944627.196 6  -3751787.152 9  22734544.277
  20198209.930    -1674277.015 8  -1269719.013 9  20198212.789
  21239940.852    -2471359.338 7  -1886471.465 9  21239944.063
 94  3 23 18 31  0.0000000  0  6 27 29 28 31 18 19
  22944772.563    -4658722.618 6  -3514776.329 9  22944776.852
  20995965.930     1871495.946 7   1445110.051 9  20995968.742
  23233239.719    -2084311.030 6  -1569184.929 9  23233244.699
  22722010.992    -5010463.504 6  -3803088.103 9  22722015.727
  20196074.227    -1685500.153 8  -1278464.327 9  20196077.062
  21234018.391    -2502481.810 7  -1910722.738 9  21234021.684
 94  3 23 18 31 30.0000000  0  6 27 29 28 31 18 19
  22932161.648    -4724991.169 6  -3566414.149 9  22932166.242
  21004073.797     1914101.918 7   1478309.463 9  21004076.375
  23230422.875    -2099113.000 6  -1580718.910 9  23230427.586
  22709547.578    -5075961.355 6  -3854125.315 9  22709552.102
  20194029.180    -1696246.736 8  -1286838.295 9  20194032.027
  21228131.289    -2533416.946 7  -1934828.047 9  21228134.664
 94  3 23 18 32  0.0000000  0  6 27 29 28 31 18 19
  22919575.531    -4791135.446 6  -3617955.136 9  22919580.066
  21012261.156     1957127.554 7   1511835.897 9  21012263.875
  23227707.398    -2113383.728 6  -1591838.925 9  23227712.309
  22697149.680    -5141112.683 6  -3904892.518 9  22697154.484
  20192075.820    -1706510.537 8  -1294836.071 9  20192078.527
  21222280.203    -2564164.409 7  -1958787.112 9  21222283.789
 94  3 23 18 32 30.0000000  0  6 27 29 28 31 18 19
  22907013.086    -4857148.641 6  -3669393.971 9  22907017.152
  21020528.719     2000572.530 7   1545689.083 9  21020531.566
  23225089.812    -2127138.468 6  -1602556.893 9  23225094.699
  22684819.227    -5205907.855 6  -3955382.186 9  22684823.797
  20190211.227    -1716309.278 8  -1302471.458 9  20190213.840
  21216462.563    -2594736.920 7  -1982609.845 9  21216466.195
 94  3 23 18 33  0.0000000  0  6 27 29 28 31 18 19
  22894478.703    -4923018.683 6  -3720721.256 9  22894483.051
  21028878.406     2044449.926 7   1579879.228 9  21028881.137
  23222570.094    -2140379.142 6  -1612874.276 9  23222574.453
  22672560.523    -5270326.720 6  -4005578.624 9  22672565.105
  20188436.859    -1725634.523 8  -1309737.890 9  20188439.438
  21210680.430    -2625121.483 7  -2006286.124 9  21210684.203
 94  3 23 18 33 30.0000000  0  6 27 29 28 31 18 19
  22881963.219    -4988784.621 6  -3771967.435 9  22881967.227
  21037310.578     2088762.075 7   1614408.140 9  21037313.461
  23220146.969    -2153114.390 6  -1622797.828 9  23220151.902
  22660371.516    -5334379.564 6  -4055489.848 9  22660376.191
  20186748.727    -1734505.482 8  -1316650.337 9  20186751.387
  21204931.852    -2655331.685 7  -2029826.542 9  21204935.438
 94  3 23 18 34  0.0000000  0  6 27 29 28 31 18 19
  22869464.859    -5054462.882 6  -3823145.281 9  22869469.535
  21045827.766     2133519.180 7   1649283.775 9  21045830.684
  23217821.375    -2165336.491 6  -1632321.526 9  23217825.512
  22648254.391    -5398056.546 6  -4105108.193 9  22648258.938
  20185145.438    -1742931.675 8  -1323216.213 9  20185148.086
  21199214.641    -2685376.399 7  -2053238.013 9  21199218.191
 94  3 23 18 34 30.0000000  0  6 27 29 28 31 18 19
  22856984.617    -5120052.999 6  -3874254.439 9  22856988.566
  21054430.352     2178725.343 7   1684509.328 9  21054433.070
  23215594.008    -2177037.292 6  -1641439.024 9  23215598.543
  22636210.625    -5461349.057 6  -4154426.963 9  22636214.762
  20183631.000    -1750889.947 8  -1329417.479 9  20183633.754
  21193528.336    -2715257.723 7  -2076522.156 9  21193531.840
 94  3 23 18 35  0.0000000  0  6 27 29 28 31 18 19
  22844519.992    -5185552.981 6  -3925293.377 9  22844524.176
  21063115.008     2224364.239 7   1720072.074 9  21063117.785
  23213467.055    -2188214.527 6  -1650148.539 9  23213471.988
  22624239.539    -5524255.646 6  -4203445.013 9  22624244.074
  20182207.195    -1758372.829 8  -1335248.307 9  20182209.902
  21187874.406    -2744968.808 7  -2099673.655 9  21187877.887
 94  3 23 18 35 30.0000000  0  6 27 29 28 31 18 19
  22832075.008    -5250950.936 6  -3976252.801 9  22832079.625
  21071881.742     2270433.236 7   1755969.965 9  21071884.426
  23211440.273    -2198866.415 6  -1658448.702 9  23211445.184
  22612343.313    -5586769.358 6  -4252156.925 9  22612347.719
  20180873.016    -1765383.967 8  -1340711.543 9  20180875.629
  21182252.391    -2774513.603 7  -2122695.572 9  21182255.977
 94  3 23 18 36  0.0000000  0  6 27 29 28 31 18 19
  22819655.641    -5316214.461 6  -4027107.463 9  22819660.551
  21080730.414     2316933.966 7   1792204.264 9  21080733.180
  23209515.586    -2208981.276 6  -1666330.388 9  23209520.766
  22600524.328    -5648879.954 6  -4300554.730 9  22600528.488
  20179629.227    -1771920.339 8  -1345804.830 9  20179631.688
  21176665.227    -2803873.217 7  -2145573.191 9  21176668.766
 94  3 23 18 36 30.0000000  0  6 27 29 28 31 18 19
  22807264.898    -5381329.959 6  -4077846.791 9  22807269.680
  21089659.719     2363857.205 7   1828767.799 9  21089662.555
  23207694.555    -2218551.207 6  -1673787.465 9  23207699.535
  22588782.172    -5710585.363 6  -4348636.805 9  22588786.461
  20178475.539    -1777981.898 8  -1350528.135 9  20178477.965
  21171115.766    -2833036.804 7  -2168298.065 9  21171119.305
 94  3 23 18 37  0.0000000  0  6 27 29 28 31 18 19
  22794901.617    -5446296.325 6  -4128469.907 9  22794906.000
  21098667.797     2411196.408 7   1865655.452 9  21098670.609
  23205976.469    -2227578.985 6  -1680822.075 9  23205981.156
  22577116.930    -5771883.636 6  -4396401.638 9  22577121.301
  20177407.555    -1783595.076 8  -1354902.053 9  20177410.121
  21165604.492    -2861999.566 7  -2190866.446 9  21165607.949
 94  3 23 18 37 30.0000000  0  6 27 29 28 31 18 19
  22782565.438    -5511122.519 6  -4178983.802 9  22782570.125
  21107758.273     2458967.286 7   1902879.479 9  21107761.168
  23204364.273    -2236054.298 6  -1687426.215 9  23204368.949
  22565529.508    -5832777.442 6  -4443851.292 9  22565534.020
  20176426.414    -1788751.036 8  -1358919.698 9  20176428.723
  21160130.234    -2890765.649 7  -2213281.571 9  21160133.668
 94  3 23 18 38  0.0000000  0  6 27 29 28 31 18 19
  22770253.234    -5575824.810 6  -4229401.138 9  22770257.605
  21116928.844     2507158.368 7   1940430.931 9  21116931.703
  23202855.906    -2243977.716 6  -1693600.288 9  23202860.406
  22554017.906    -5893270.948 6  -4490989.031 9  22554022.477
  20175536.852    -1793424.618 8  -1362561.465 9  20175539.172
  21154695.148    -2919330.142 7  -2235539.617 9  21154698.277
 94  3 23 18 38 30.0000000  0  6 27 29 28 31 18 19
  22757961.625    -5640419.350 6  -4279734.511 9  22757965.867
  21126177.422     2555758.016 7   1978300.747 9  21126180.270
  23201451.086    -2251358.686 6  -1699351.672 9  23201455.961
  22542581.891    -5953366.342 6  -4537816.567 9  22542586.063
  20174742.828    -1797598.138 8  -1365813.573 9  20174745.348
  21149293.875    -2947713.048 7  -2257656.169 9  21149297.063
 94  3 23 18 39  0.0000000  0  6 27 29 28 31 18 19
  22745687.984    -5704915.898 6  -4329991.522 9  22745692.109
  21135503.906     2604769.946 7   2016491.817 9  21135506.836
  23200147.844    -2258209.196 6  -1704689.725 9  23200152.813
  22531223.039    -6013060.492 6  -4584331.432 9  22531227.340
  20174043.906    -1801270.711 8  -1368675.333 9  20174046.426
  21143926.664    -2975917.936 7  -2279634.005 9  21143929.781
 94  3 23 18 39 30.0000000  0  6 27 29 28 31 18 19
  22733434.297    -5769310.293 6  -4380168.940 9  22733439.113
  21144912.008     2654210.247 7   2055016.685 9  21144914.949
  23198947.211    -2264517.730 6  -1709605.454 9  23198952.121
  22519938.172    -6072357.438 6  -4630536.793 9  22519942.438
  20173444.008    -1804423.348 8  -1371131.946 9  20173446.469
  21138595.023    -3003936.177 7  -2301466.405 9  21138598.141
 94  3 23 18 40  0.0000000  0  6 27 29 28 31 18 19
  22721201.266    -5833595.384 6  -4430261.187 9  22721205.414
  21154401.500     2704076.737 7   2093873.641 9  21154404.535
  23197848.344    -2270291.110 6  -1714104.175 9  23197853.301
  22508730.859    -6131252.999 6  -4676429.398 9  22508735.488
  20172938.672    -1807078.276 8  -1373200.737 9  20172941.262
  21133297.836    -3031772.719 8  -2323157.215 9  21133301.094
 94  3 23 18 40 30.0000000  0  6 27 29 28 31 18 19
  22708988.109    -5897773.588 6  -4480270.141 9  22708992.117
  21163976.031     2754391.356 7   2133079.789 9  21163978.879
  23196851.227    -2275530.612 6  -1718186.891 9  23196856.453
  22497602.039    -6189736.000 6  -4722000.520 9  22497606.563
  20172522.141    -1809268.060 8  -1374907.079 9  20172524.672
  21128035.203    -3059427.787 7  -2344706.623 9  21128038.344
 94  3 23 18 41  0.0000000  0  6 27 29 28 31 18 19
  22696796.008    -5961843.896 6  -4530195.033 9  22696800.238
  21173637.898     2805162.670 7   2172641.799 9  21173640.805
  23195958.656    -2280222.087 6  -1721842.580 9  23195963.590
  22486552.672    -6247801.307 6  -4767246.172 9  22486557.078
  20172193.047    -1810997.484 8  -1376254.701 9  20172195.473
  21122810.516    -3086884.366 7  -2366101.362 9  21122813.680
 94  3 23 18 41 30.0000000  0  6 27 29 28 31 18 19
  22684621.555    -6025823.133 6  -4580048.949 9  22684625.855
  21183381.086     2856364.323 7   2212539.142 9  21183384.016
  23195167.766    -2284376.597 6  -1725079.841 9  23195172.582
  22475580.305    -6305461.355 6  -4812176.034 9  22475585.109
  20171950.086    -1812274.098 8  -1377249.484 9  20171952.395
  21117619.523    -3114163.024 7  -2387357.459 9  21117622.594
 94  3 23 18 42  0.0000000  0  6 27 29 28 31 18 19
  22672462.938    -6089716.952 6  -4629836.292 9  22672467.484
  21193205.117     2907989.662 7   2252766.624 9  21193208.023
  23194478.836    -2287998.170 6  -1727901.830 9  23194483.383
  22464689.188    -6362692.709 6  -4856771.854 9  22464693.465
  20171795.023    -1813089.207 8  -1377884.647 9  20171797.484
  21112461.258    -3141269.884 7  -2408479.697 9  21112464.469
 94  3 23 18 42 30.0000000  0  6 27 29 28 31 18 19
  22660318.805    -6153537.009 6  -4679566.176 9  22660322.719
  21203107.758     2960029.900 7   2293317.406 9  21203110.828
  23193890.594    -2291088.808 6  -1730310.110 9  23193895.398
  22453878.742    -6419503.099 6  -4901039.651 9  22453883.418
  20171730.289    -1813429.125 8  -1378149.530 9  20171732.598
  21107336.438    -3168200.345 8  -2429464.474 9  21107339.590
 94  3 23 18 43  0.0000000  0  6 27 29 28 31 18 19
  22648188.883    -6217277.579 6  -4729234.112 9  22648192.832
  21213084.469     3012456.230 7   2334169.044 9  21213087.563
  23193403.016    -2293650.581 6  -1732306.285 9  23193407.621
  22443144.117    -6475913.298 6  -4944995.609 9  22443148.477
  20171756.859    -1813289.560 8  -1378040.786 9  20171759.227
  21102243.148    -3194965.022 7  -2450320.066 9  21102246.242
 94  3 23 18 43 30.0000000  0  6 27 29 28 31 18 19
  22636076.602    -6280928.878 6  -4778832.491 9  22636080.914
  21223134.305     3065267.461 7   2375320.600 9  21223137.316
  23193014.578    -2295692.442 6  -1733897.335 9  23193019.840
  22432486.539    -6531920.750 6  -4988637.730 9  22432490.582
  20171873.453    -1812676.780 8  -1377563.311 9  20171875.961
  21097180.992    -3221567.984 7  -2471049.652 9  21097184.121
 94  3 23 18 44  0.0000000  0  6 27 29 28 31 18 19
  22623986.508    -6344460.386 6  -4828337.524 9  22623990.797
  21233261.945     3118489.902 7   2416792.580 9  21233264.934
  23192731.016    -2297183.840 6  -1735059.461 9  23192735.820
  22421907.789    -6587510.572 6  -5031954.430 9  22421912.699
  20172081.633    -1811583.574 8  -1376711.474 9  20172083.988
  21092155.914    -3247975.031 7  -2491626.573 9  21092159.137
 94  3 23 18 44 30.0000000  0  6 27 29 28 31 18 19
  22611922.055    -6407862.258 6  -4877741.548 9  22611926.227
  21243465.414     3172108.453 7   2458573.218 9  21243468.309
  23192553.922    -2298114.689 6  -1735784.794 9  23192558.691
  22411405.094    -6642703.918 6  -5074962.188 9  22411409.512
  20172379.438    -1810018.667 8  -1375492.079 9  20172382.074
  21087169.203    -3274179.572 7  -2512045.699 9  21087172.273
 94  3 23 18 45  0.0000000  0  6 27 29 28 31 18 19
  22599881.328    -6471134.551 6  -4927044.592 9  22599885.535
  21253741.852     3226112.030 7   2500653.883 9  21253745.086
  23192483.664    -2298484.053 6  -1736072.612 9  23192488.445
  22400979.500    -6697490.943 6  -5117653.325 9  22400983.789
  20172765.039    -1807990.574 8  -1373911.760 9  20172767.746
  21082219.547    -3300190.807 7  -2532314.191 9  21082222.734
 94  3 23 18 45 30.0000000  0  6 27 29 28 31 18 19
  22587863.383    -6534288.161 6  -4976255.159 9  22587867.895
  21264094.883     3280517.655 7   2543047.831 9  21264098.035
  23192520.477    -2298290.780 6  -1735922.009 9  23192525.410
  22390634.484    -6751853.732 6  -5160013.883 9  22390638.961
  20173240.078    -1805494.872 8  -1371967.071 9  20173242.727
  21077304.781    -3326017.377 7  -2552438.793 9  21077307.875
 94  3 23 18 46  0.0000000  0  6 27 29 28 31 18 19
  22575865.141    -6597343.191 6  -5025388.926 9  22575869.301
  21274524.141     3335322.687 7   2585753.006 9  21274527.223
  23192662.695    -2297544.095 6  -1735340.183 9  23192667.313
  22380371.414    -6805785.359 6  -5202038.471 9  22380375.691
  20173805.086    -1802526.745 8  -1369654.255 9  20173807.676
  21072422.641    -3351672.968 7  -2572430.165 9  21072425.793
 94  3 23 18 46 30.0000000  0  6 27 29 28 31 18 19
  22563882.148    -6660312.589 6  -5074455.961 9  22563886.426
  21285031.570     3390539.166 7   2628778.787 9  21285034.652
  23192906.125    -2296263.491 6  -1734342.317 9  23192910.461
  22370195.836    -6859259.753 6  -5243706.791 9  22370199.809
  20174461.734    -1799076.137 8  -1366965.481 9  20174464.207
  21067571.289    -3377168.784 7  -2592297.043 9  21067574.383
 94  3 23 18 47  0.0000000  0  6 27 29 28 31 18 19
  22551912.594    -6723212.488 6  -5123468.842 9  22551916.824
  21295620.734     3446186.009 7   2672139.917 9  21295623.840
  23193246.875    -2294471.840 6  -1732946.228 9  23193251.387
  22360111.125    -6912254.263 6  -5285001.159 9  22360115.332
  20175210.438    -1795141.939 8  -1363899.880 9  20175212.699
  21062748.711    -3402511.885 7  -2612044.914 9  21062751.770
 94  3 23 18 47 30.0000000  0  6 27 29 28 31 18 19
  22539957.094    -6786038.744 6  -5172424.336 9  22539961.359
  21306294.242     3502274.932 7   2715845.531 9  21306297.125
  23193684.594    -2292173.605 6  -1731155.404 9  23193689.363
  22350118.953    -6964763.481 6  -5325917.368 9  22350123.570
  20176053.297    -1790712.619 8  -1360448.472 9  20176055.711
  21057957.359    -3427690.430 7  -2631664.562 9  21057960.523
 94  3 23 18 48  0.0000000  0  6 27 29 28 31 18 19
  22528019.750    -6848769.795 6  -5221305.645 9  22528024.355
  21317049.609     3558794.458 7   2759886.665 9  21317052.680
  23194218.820    -2289366.220 6  -1728967.841 9  23194223.016
  22340219.523    -7016786.325 6  -5366454.590 9  22340223.602
  20176993.141    -1785774.704 8  -1356600.757 9  20176995.578
  21053201.828    -3452680.093 7  -2651137.028 9  21053205.004
 94  3 23 18 48 30.0000000  0  6 27 29 28 31 18 19
  22516101.828    -6911397.487 6  -5270106.414 9  22516106.398
  21327883.906     3615727.811 7   2804250.264 9  21327887.012
  23194849.633    -2286048.702 6  -1726382.769 9  23194854.438
  22330408.313    -7068342.630 6  -5406628.274 9  22330412.473
  20178027.594    -1780337.460 8  -1352363.952 9  20178030.160
  21048480.820    -3477489.932 7  -2670469.376 9  21048483.891
 94  3 23 18 49  0.0000000  0  6 27 29 28 31 18 19
  22504208.664    -6973898.518 6  -5318808.486 9  22504212.941
  21338796.328     3673073.253 7   2848934.971 9  21338799.445
  23195584.094    -2282190.950 6  -1723376.740 9  23195588.535
  22320684.750    -7119441.349 6  -5446445.404 9  22320688.875
  20179160.711    -1774383.237 8  -1347724.313 9  20179163.207
  21043796.109    -3502108.405 7  -2689652.604 9  21043799.086
 94  3 23 18 49 30.0000000  0  6 27 29 28 31 18 19
  22492341.563    -7036262.133 6  -5367403.482 9  22492345.945
  21349785.492     3730822.903 7   2893934.651 9  21349788.422
  23196424.195    -2277776.064 6  -1719936.574 9  23196428.660
  22311044.461    -7170100.986 6  -5485920.394 9  22311048.492
  20180391.453    -1767915.682 8  -1342684.676 9  20180393.984
  21039147.055    -3526539.089 7  -2708689.497 9  21039149.938
 94  3 23 18 50  0.0000000  0  6 27 29 28 31 18 19
  22480497.359    -7098501.440 6  -5415901.613 9  22480501.766
  21360849.359     3788963.735 7   2939239.134 9  21360852.313
  23197368.570    -2272815.255 6  -1716071.016 9  23197373.410
  22301484.938    -7220334.990 6  -5525063.714 9  22301489.156
  20181714.359    -1760963.828 8  -1337267.667 9  20181716.820
  21034528.820    -3550806.411 7  -2727599.098 9  21034531.902
 94  3 23 18 50 30.0000000  0  6 27 29 28 31 18 19
  22468675.641    -7160623.819 6  -5464308.635 9  22468679.625
  21371992.789     3847522.140 7   2984869.008 9  21371995.730
  23198419.141    -2267292.633 6  -1711767.673 9  23198424.168
  22292008.047    -7270136.442 6  -5563869.981 9  22292012.043
  20183127.305    -1753539.335 8  -1331482.369 9  20183129.648
  21029942.109    -3574912.047 8  -2746382.709 9  21029945.203
 94  3 23 18 51  0.0000000  0  6 27 29 28 31 18 19
  22456874.477    -7222640.874 6  -5512633.589 9  22456878.285
  21383215.656     3906497.260 7   3030823.587 9  21383218.469
  23199575.563    -2261216.504 6  -1707033.023 9  23199580.543
  22282612.695    -7319512.598 7  -5602344.846 9  22282616.656
  20184627.656    -1745653.161 8  -1325337.319 9  20184630.270
  21025384.984    -3598858.733 7  -2765042.463 9  21025388.043
 94  3 23 18 51 30.0000000  0  6 27 29 28 31 18 19
  22445093.305    -7284550.277 6  -5560874.664 9  22445097.102
  21394517.320     3965887.092 7   3077101.319 9  21394520.004
  23200835.609    -2254592.423 6  -1701871.403 9  23200840.590
  22273299.938    -7368449.715 7  -5640477.604 9  22273304.027
  20186215.383    -1737310.799 8  -1318836.798 9  20186217.926
  21020858.234    -3622646.741 7  -2783578.570 9  21020861.316
 94  3 23 18 52  0.0000000  0  6 27 29 28 31 18 19
  22433331.242    -7346359.884 6  -5609037.973 9  22433335.133
  21405896.531     4025685.351 7   3123697.308 9  21405899.344
  23202200.688    -2247419.541 6  -1696282.143 9  23202205.328
  22264074.836    -7416928.336 7  -5678253.105 9  22264078.773
  20187892.266    -1728499.126 8  -1311970.585 9  20187894.750
  21016361.688    -3646277.535 8  -2801992.176 9  21016364.641
 94  3 23 18 52 30.0000000  0  6 27 29 28 31 18 19
  22421588.414    -7408069.687 6  -5657123.516 9  22421592.516
  21417354.258     4085898.133 7   3170616.307 9  21417357.223
  23203673.133    -2239680.999 6  -1690252.108 9  23203677.961
  22254938.664    -7464936.874 7  -5715662.313 9  22254943.059
  20189665.508    -1719179.675 8  -1304708.703 9  20189667.980
  21011895.984    -3669744.588 7  -2820278.190 9  21011898.996
 94  3 23 18 53  0.0000000  0  6 27 29 28 31 18 19
  22409862.172    -7469690.042 6  -5705139.351 9  22409866.074
  21428886.109     4146497.135 7   3217836.251 9  21428889.145
  23205253.047    -2231381.301 6  -1683784.804 9  23205257.969
  22245892.180    -7512476.765 7  -5752706.335 9  22245896.422
  20191539.016    -1709335.992 8  -1297038.324 9  20191541.348
  21007460.328    -3693053.326 7  -2838440.843 9  21007463.480
 94  3 23 18 53 30.0000000  0  6 27 29 28 31 18 19
  22398152.688    -7531222.307 6  -5753086.555 9  22398156.719
  21440491.469     4207483.759 7   3265358.243 9  21440494.492
  23206941.750    -2222504.588 6  -1676867.879 9  23206946.449
  22236939.047    -7559526.366 7  -5789368.319 9  22236943.043
  20193513.508    -1698959.859 8  -1288953.047 9  20193515.922
  21003058.133    -3716186.286 7  -2856466.524 9  21003061.461
 94  3 23 18 54  0.0000000  0  6 27 29 28 31 18 19
  22386459.305    -7592672.412 6  -5800969.731 9  22386463.078
  21452172.500     4268867.010 7   3313189.285 9  21452175.430
  23208743.250    -2213037.499 6  -1669490.914 9  23208747.961
  22228077.859    -7606090.003 6  -5825651.634 9  22228082.207
  20195588.320    -1688055.461 8  -1280456.132 9  20195590.711
  20998690.172    -3739139.284 7  -2874351.975 9  20998693.617
 94  3 23 18 54 30.0000000  0  6 27 29 28 31 18 19
  22374783.852    -7654029.173 6  -5848780.171 9  22374788.035
  21463928.578     4330646.150 7   3361328.813 9  21463931.684
  23210655.945    -2202986.736 6  -1661659.141 9  23210660.914
  22219307.172    -7652180.659 6  -5861566.390 9  22219311.250
  20197760.711    -1676641.080 8  -1271561.831 9  20197763.031
  20994358.164    -3761906.584 7  -2892092.731 9  20994361.457
 94  3 23 18 55  0.0000000  0  6 27 29 28 31 18 19
  22363127.641    -7715282.744 6  -5896510.202 9  22363131.918
  21475758.383     4392812.324 7   3409769.933 9  21475761.441
  23212674.422    -2192376.904 6  -1653391.729 9  23212679.191
  22210626.672    -7697798.419 7  -5897112.669 9  22210630.586
  20200023.383    -1664750.658 8  -1262296.582 9  20200025.727
  20990060.961    -3784487.590 7  -2909688.311 9  20990064.371
 94  3 23 18 55 30.0000000  0  6 27 29 28 31 18 19
  22351494.539    -7776416.280 6  -5944146.717 9  22351498.207
  21487664.594     4455379.450 7   3458523.471 9  21487667.898
  23214797.195    -2181223.227 6  -1644700.553 9  23214802.000
  22202038.250    -7742929.865 6  -5932279.993 9  22202042.445
  20202374.789    -1652393.479 8  -1252667.631 9  20202377.180
  20985797.906    -3806890.494 7  -2927145.119 9  20985801.305
 94  3 23 18 56  0.0000000  0  6 27 29 28 31 18 19
  22339887.398    -7837411.810 6  -5991675.676 9  22339891.242
  21499649.266     4518359.403 7   3507598.702 9  21499652.184
  23217019.438    -2169547.127 6  -1635602.272 9  23217024.523
  22193542.922    -7787572.987 7  -5967066.812 9  22193547.387
  20204817.570    -1639555.942 8  -1242664.372 9  20204820.113
  20981566.406    -3829127.069 7  -2944472.318 9  20981569.875
 94  3 23 18 56 30.0000000  0  6 27 29 28 31 18 19
  22328303.625    -7898284.787 6  -6039109.143 9  22328307.387
  21511709.758     4581737.544 7   3556984.210 9  21511712.816
  23219335.414    -2157378.971 6  -1626120.591 9  23219340.090
  22185140.938    -7831724.848 6  -6001470.839 9  22185144.969
  20207350.750    -1626242.965 8  -1232290.648 9  20207353.410
  20977365.289    -3851203.678 7  -2961674.869 9  20977368.758
 94  3 23 18 57  0.0000000  0  7  2 27 29 28 31 18 19
  24338095.516      -15120.81815
  22316739.422    -7959053.801 6  -6086461.602 9  22316743.242
  21523845.305     4645509.087 7   3606676.257 9  21523848.574
  23221745.086    -2144714.607 6  -1616252.262 9  23221749.902
  22176834.125    -7875376.916 6  -6035485.422 9  22176838.613
  20209975.594    -1612451.051 8  -1221543.721 9  20209978.031
  20973192.344    -3873131.749 7  -2978761.676 9  20973195.848
 94  3 23 18 57 30.0000000  0  7  2 27 29 28 31 18 19
  24320848.195     -105748.017 5
  22305195.148    -8019720.474 7  -6133734.310 9  22305198.828
  21536058.813     4709691.581 7   3656688.529 9  21536061.941
  23224254.383    -2131525.702 6  -1605975.201 9  23224258.766
  22168625.398    -7918515.058 6  -6069099.536 9  22168629.746
  20212694.641    -1598161.557 8  -1210409.073 9  20212697.137
  20969050.836    -3894895.763 7  -2995720.647 9  20969054.281
 94  3 23 18 58  0.0000000  0  7  2 27 29 28 31 18 19
  24303635.703     -196194.064 4     -2345.09119  24303645.926
  22293666.430    -8080303.952 7  -6180942.192 9  22293670.051
  21548349.289     4774276.894 7   3707014.695 9  21548352.242
  23226867.453    -2117793.759 6  -1595274.987 9  23226871.988
  22160512.961    -7961145.384 6  -6102317.956 9  22160517.344
  20215509.781    -1583368.357 8  -1198881.923 9  20215512.277
  20964942.328    -3916485.701 7  -3012543.974 9  20964945.691
 94  3 23 18 58 30.0000000  0  7  2 27 29 28 31 18 19
  24286457.227     -286474.380 5    -72693.254 9  24286466.910
  22282150.641    -8140818.778 7  -6228096.577 9  22282154.062
  21560713.422     4839252.000 7   3757644.591 9  21560716.703
  23229589.594    -2103490.706 6  -1584129.757 9  23229594.504
  22152495.922    -8003275.417 6  -6135146.531 9  22152500.270
  20218418.570    -1568081.894 8  -1186970.418 9  20218421.266
  20960868.250    -3937895.066 7  -3029226.602 9  20960871.578
 94  3 23 18 59  0.0000000  0  7  2 27 29 28 31 18 19
  24269309.633     -376588.519 5   -142911.981 9  24269318.227
  22270653.273    -8201237.496 7  -6275176.070 9  22270656.754
  21573153.117     4904623.192 7   3808583.124 9  21573156.270
  23232421.695    -2088607.185 6  -1572532.225 9  23232426.395
  22144574.266    -8044904.323 6  -6167584.618 9  22144578.367
  20221424.031    -1552288.758 8  -1174664.099 9  20221426.656
  20956827.891    -3959127.550 7  -3045771.394 9  20956831.289
 94  3 23 18 59 30.0000000  0  7  2 27 29 28 31 18 19
  24252195.367     -466525.053 5   -212992.335 9  24252203.738
  22259177.195    -8261547.047 7  -6322170.507 9  22259180.617
  21585669.719     4970398.394 7   3859836.465 9  21585673.223
  23235362.609    -2073154.153 6  -1560490.914 9  23235366.934
  22136747.078    -8086036.887 6  -6199635.946 9  22136751.508
  20224529.289    -1535970.465 8  -1161948.581 9  20224532.078
  20952823.836    -3980169.049 7  -3062167.372 9  20952827.152
 94  3 23 19  0  0.0000000  0  7  2 27 29 28 31 18 19
  24235113.242     -556290.572 5   -282939.392 9  24235120.758
  22247721.625    -8321745.837 7  -6369078.633 9  22247725.012
  21598259.781     5036558.292 7   3911389.568 9  21598263.273
  23238408.398    -2057147.339 6  -1548018.077 9  23238413.098
  22129010.969    -8126690.039 7  -6231313.706 9  22129014.965
  20227734.430    -1519129.159 8  -1148825.511 9  20227737.242
  20948854.125    -4001029.610 7  -3078422.357 9  20948857.629
 94  3 23 19  0 30.0000000  0  7  2 27 29 28 31 18 19
  24218062.031     -645893.297 5   -352759.587 9  24218070.227
  22236286.531    -8381834.012 7  -6415900.569 9  22236289.965
  21610919.016     5103084.084 7   3963227.796 9  21610922.344
  23241553.406    -2040618.551 6  -1535138.519 9  23241558.410
  22121364.398    -8166870.539 6  -6262623.169 9  22121368.582
  20231034.648    -1501785.529 8  -1135311.018 9  20231037.461
  20944916.445    -4021722.738 7  -3094546.873 9  20944919.973
 94  3 23 19  1  0.0000000  0  7  2 27 29 28 31 18 19
  24201043.672     -735322.778 4   -422444.779 9  24201051.855
  22224872.172    -8441819.137 7  -6462642.201 9  22224875.523
  21623648.438     5169978.035 7   4015352.875 9  21623652.059
  23244795.180    -2023584.451 6  -1521865.217 9  23244799.855
  22113811.555    -8206563.705 7  -6293552.873 9  22113815.773
  20234431.383    -1483935.120 8  -1121401.641 9  20234434.055
  20941010.516    -4042247.673 7  -3110540.332 9  20941014.148
 94  3 23 19  1 30.0000000  0  7  2 27 29 28 31 18 19
  24184056.273     -824593.012 5   -492005.895 9  24184064.316
  22213470.148    -8501738.669 7  -6509332.719 9  22213473.301
  21636445.563     5237225.334 7   4067753.311 9  21636448.914
  23248132.422    -2006049.453 6  -1508201.595 9  23248137.273
  22106350.297    -8245772.061 6  -6324104.820 9  22106354.820
  20237920.055    -1465602.358 8  -1107116.396 9  20237922.914
  20937134.805    -4062613.988 7  -3126410.193 9  20937138.285
 94  3 23 19  2  0.0000000  0  7  2 27 29 28 31 18 19
  24167098.102     -913709.001 5   -561446.851 9  24167106.719
  22202081.289    -8561586.425 7  -6555967.324 9  22202084.805
  21649310.125     5304828.804 7   4120431.267 9  21649313.594
  23251568.805    -1987989.231 6  -1494128.715 9  23251573.211
  22098984.961    -8284478.817 7  -6354265.904 9  22098989.215
  20241498.930    -1446794.996 8  -1092461.333 9  20241501.777
  20933289.633    -4082823.370 7  -3142157.775 9  20933292.949
 94  3 23 19  2 30.0000000  0  7  2 27 29 28 31 18 19
  24150170.484    -1002666.520 5   -630764.311 9  24150178.563
  22190706.242    -8621362.613 7  -6602546.151 9  22190709.313
  21662243.445     5372794.177 7   4173391.222 9  21662246.973
  23255106.844    -1969394.484 6  -1479639.323 9  23255111.215
  22091716.258    -8322674.195 7  -6384028.509 9  22091720.488
  20245167.180    -1427518.370 8  -1077440.614 9  20245169.863
  20929472.914    -4102880.703 7  -3157786.864 9  20929476.031
 94  3 23 19  3  0.0000000  0  7  2 27 29 28 31 18 19
  24133273.078    -1091463.016 5   -699956.308 9  24133280.207
  22179345.578    -8681062.746 7  -6649065.711 9  22179348.930
  21675248.328     5441134.882 7   4226643.643 9  21675251.457
  23258748.719    -1950260.439 6  -1464729.696 9  23258753.699
  22084543.406    -8360368.804 7  -6413400.910 9  22084547.402
  20248924.320    -1407774.532 8  -1062055.825 9  20248927.145
  20925683.805    -4122792.406 7  -3173302.481 9  20925687.098
 94  3 23 19  3 30.0000000  0  7  2 27 29 28 31 18 19
  24116407.453    -1180091.925 5   -769017.672 9  24116415.273
  22168003.578    -8740665.577 7  -6695509.468 9  22168007.281
  21688325.453     5509855.653 7   4280192.213 9  21688329.086
  23262494.961    -1930570.448 6  -1449386.853 9  23262499.742
  22077465.477    -8397564.983 7  -6442384.912 9  22077469.438
  20252772.609    -1387551.731 8  -1046297.825 9  20252775.551
  20921924.492    -4142547.323 7  -3188695.927 9  20921927.785
 94  3 23 19  4  0.0000000  0  7  2 27 29 28 31 18 19
  24099577.344    -1268534.552 5   -837933.974 9  24099583.801
  22156683.977    -8800149.803 7  -6741860.796 9  22156687.480
  21701474.727     5578955.700 7   4334036.324 9  21701478.418
  23266349.516    -1910315.144 6  -1433603.520 9  23266354.145
  22070480.750    -8434266.216 7  -6470983.250 9  22070484.770
  20256712.180    -1366849.826 8  -1030166.500 9  20256715.109
  20918197.242    -4162134.332 7  -3203958.538 9  20918200.406
 94  3 23 19  4 30.0000000  0  7  2 27 29 28 31 18 19
  24082784.695    -1356783.374 5   -906699.206 9  24082792.539
  22145384.930    -8859525.963 7  -6788127.918 9  22145388.750
  21714694.961     5648427.301 7   4388169.969 9  21714698.746
  23270308.781    -1889511.383 6  -1417392.808 9  23270313.422
  22063589.898    -8470479.258 7  -6499201.168 9  22063593.613
  20260742.438    -1345670.650 8  -1013663.273 9  20260745.426
  20914501.117    -4181556.995 7  -3219093.085 9  20914504.352
 94  3 23 19  5  0.0000000  0  7  2 27 29 28 31 18 19
  24066031.477    -1444821.216 5   -975300.042 9  24066038.336
  22134108.008    -8918787.902 7  -6834306.050 9  22134111.629
  21727986.656     5718274.814 7   4442596.506 9  21727990.594
  23274371.563    -1868162.910 6  -1400757.652 9  23274375.898
  22056793.773    -8506192.205 7  -6527029.421 9  22056797.570
  20264866.313    -1323999.114 8   -996776.389 9  20264869.359
  20910837.602    -4200809.376 7  -3234094.943 9  20910840.836
 94  3 23 19  5 30.0000000  0  7  2 27 29 28 31 18 19
  24049315.336    -1532662.526 5  -1043747.754 9  24049322.980
  22122848.703    -8977956.176 7  -6880411.186 9  22122852.160
  21741344.953     5788471.784 7   4497295.375 9  21741348.363
  23278536.914    -1846270.654 6  -1383698.758 9  23278541.684
  22050095.328    -8541393.245 7  -6554458.783 9  22050099.395
  20269081.789    -1301846.411 8   -979514.566 9  20269084.918
  20907204.000    -4219904.933 7  -3248974.602 9  20907207.141
 94  3 23 19  6  0.0000000  0  7  2 27 29 28 31 18 19
  24032636.805    -1620311.077 5  -1112045.277 9  24032645.070
  22111606.180    -9037033.445 7  -6926445.408 9  22111609.777
  21754771.070     5859029.167 7   4552275.067 9  21754775.031
  23282805.023    -1823843.582 6  -1366223.128 9  23282809.313
  22043496.469    -8576071.355 7  -6581480.667 9  22043500.207
  20273387.938    -1279217.921 8   -961882.005 9  20273390.996
  20903598.742    -4238849.867 8  -3263736.894 9  20903602.012
 94  3 23 19  6 30.0000000  0  7  2 27 29 28 31 18 19
  24015993.500    -1707766.960 5  -1180192.616 9  24016001.871
  22100378.703    -9096035.903 7  -6972421.344 9  22100382.430
  21768268.156     5929954.675 7   4607541.617 9  21768271.848
  23287172.555    -1800892.254 6  -1348338.994 9  23287177.277
  22036999.180    -8610212.087 7  -6608083.816 9  22037003.246
  20277789.062    -1256090.953 8   -943861.020 9  20277792.004
  20900020.469    -4257653.526 8  -3278389.106 9  20900023.703
 94  3 23 19  7  0.0000000  0  7  2 27 29 28 31 18 19
  23999386.453    -1795041.533 5  -1248198.691 9  23999393.922
  22089166.883    -9154953.686 7  -7018331.290 9  22089170.867
  21781835.719     6001253.242 7   4663098.858 9  21781839.574
  23291641.195    -1777409.178 6  -1330040.512 9  23291645.215
  22030606.648    -8643806.635 7  -6634261.359 9  22030610.750
  20282286.086    -1232459.398 8   -925446.845 9  20282289.004
  20896470.344    -4276309.776 8  -3292926.447 9  20896473.660
 94  3 23 19  7 30.0000000  0  7  2 27 29 28 31 18 19
  23982811.422    -1882142.040 5  -1316069.112 9  23982819.090
  22077972.242    -9213782.013 7  -7064171.525 9  22077976.273
  21795476.953     6072936.374 7   4718955.769 9  21795480.832
  23296214.383    -1753378.105 6  -1311315.019 9  23296218.836
  22024319.070    -8676848.372 7  -6660008.159 9  22024323.359
  20286880.039    -1208316.478 8   -906634.208 9  20286883.027
  20892951.180    -4294803.973 8  -3307337.516 9  20892954.473
 94  3 23 19  8  0.0000000  0  7  2 27 29 28 31 18 19
  23966271.492    -1969054.683 5  -1383793.157 9  23966279.875
  22066795.719    -9272515.368 7  -7109937.765 9  22066799.574
  21809191.484     6145007.761 7   4775115.206 9  21809195.375
  23300890.672    -1728803.428 6  -1292165.920 9  23300897.965
  22018134.508    -8709348.155 7  -6685332.651 9  22018138.328
  20291572.406    -1183658.111 8   -887419.924 9  20291575.277
  20889464.695    -4313125.102 8  -3321613.727 9  20889467.977
 94  3 23 19  8 30.0000000  0  7  2 27 29 28 31 18 19
  23949768.945    -2055780.781 5  -1451371.837 9  23949776.953
  22055637.180    -9331153.329 7  -7155629.673 9  22055640.813
  21822975.961     6217444.576 7   4831559.398 9  21822979.664
  23305668.102    -1703694.572 6  -1272600.684 9  23305672.625
  22012051.352    -8741313.968 7  -6710241.067 9  22012055.172
  20296362.250    -1158487.746 8   -867806.677 9  20296365.438
  20886011.062    -4331275.979 8  -3335757.273 9  20886014.203
 94  3 23 19  9  0.0000000  0  7  2 27 29 28 31 18 19
  23933297.992    -2142334.099 5  -1518815.845 9  23933306.363
  22044499.609    -9389680.857 7  -7201235.525 9  22044503.582
  21836827.711     6290236.110 7   4888279.977 9  21836831.883
  23310548.703    -1678051.240 6  -1252619.066 9  23310553.414
  22006066.344    -8772766.824 7  -6734749.782 9  22006070.457
  20301246.000    -1132824.288 8   -847809.179 9  20301248.988
  20882589.008    -4349259.286 8  -3349770.244 9  20882592.055
 94  3 23 19  9 30.0000000  0  7  2 27 29 28 31 18 19
  23916865.391    -2228688.611 5  -1586104.944 9  23916872.578
  22033384.328    -9448092.477 7  -7246751.059 9  22033388.652
  21850749.047     6363391.857 7   4945284.378 9  21850752.820
  23315531.055    -1651867.869 6
  22000178.813    -8803705.738 7  -6758858.010 9  22000182.809
  20306222.461    -1106671.952 8   -827430.802 9  20306225.520
  20879200.313    -4367065.649 8  -3363645.343 9  20879203.453
 94  3 23 19 10  0.0000000  0  7  2 27 29 28 31 18 19
  23900475.992    -2314816.763 5  -1653217.707 9  23900483.109
  22022295.430    -9506365.104 7  -7292158.288 9  22022299.508
  21864740.891     6436919.983 7   5002578.945 9  21864744.922
  23320615.430    -1625148.536 6      8376.04519  23320620.410
  21994393.242    -8834110.223 7  -6782549.808 9  21994397.016
  20311294.547    -1080019.148 8   -806662.417 9  20311297.594
  20875846.172    -4384692.705 8  -3377380.712 9  20875849.547
 94  3 23 19 10 30.0000000  0  7  2 27 29 28 31 18 19
  23884125.094    -2400739.208 5  -1720170.132 9  23884132.340
  22011232.602    -9564499.620 7  -7337457.893 9  22011236.539
  21878802.781     6510814.938 7   5060159.339 9  21878806.777
  23325799.641    -1597905.279 6     29604.512 9  23325804.762
  21988708.375    -8863983.941 7  -6805828.014 9  21988712.383
  20316461.742    -1052864.967 8   -785503.352 9  20316464.730
  20872521.883    -4402161.800 8  -3390993.001 9  20872524.953
 94  3 23 19 11  0.0000000  0  7  2 27 29 28 31 18 19
  23867817.047    -2486439.890 6  -1786949.744 9  23867824.445
  22000196.070    -9622496.082 7  -7382649.929 9  22000200.266
  21892938.617     6585100.577 7   5118044.180 9  21892942.402
  23331087.828    -1570116.189 6     51258.322 9  23331092.492
  21983129.602    -8893299.414 7  -6828671.217 9  21983133.668
  20321725.797    -1025202.203 8   -763947.987 9  20321728.762
  20869229.359    -4419463.648 8  -3404474.964 9  20869232.547
 94  3 23 19 11 30.0000000  0  7  2 27 29 28 31 18 19
  23851553.523    -2571900.722 5  -1853542.539 9  23851560.664
  21989183.984    -9680366.499 7  -7427743.750 9  21989187.746
  21907149.664     6659779.161 7   5176235.194 9  21907153.613
  23336479.008    -1541786.209 6     73333.602 9  23336483.379
  21977661.898    -8922032.237 7  -6851060.410 9  21977666.012
  20327088.438     -997021.666 8   -741989.161 9  20327091.473
  20865970.992    -4436586.140 8  -3417817.167 9  20865974.203
 94  3 23 19 12  0.0000000  0  7  2 27 29 28 31 18 19
  23835334.578    -2657132.450 5  -1919956.764 9  23835341.953
  21978194.500    -9738115.915 7  -7472743.280 9  21978198.215
  21921433.008     6734837.451 7   5234722.089 9  21921436.793
  23341972.516    -1512915.363 6     95830.333 9  23341977.168
  21972306.016    -8950177.634 7  -6872991.865 9  21972309.930
  20332553.648     -968302.632 8   -719610.730 9  20332556.684
  20862745.695    -4453535.485 8  -3431024.455 9  20862748.836
 94  3 23 19 12 30.0000000  0  7  2 27 29 28 31 18 19
  23819158.500    -2742139.443 6  -1986195.860 9  23819165.676
  21967227.242    -9795750.454 7  -7517653.302 9  21967230.758
  21935791.836     6810293.338 7   5293518.802 9  21935795.598
  23347574.734    -1483476.921 6    118769.348 9  23347579.152
  21967061.984    -8977735.421 7  -6894465.443 9  21967065.957
  20338121.523     -939042.161 8   -696810.392 9  20338124.500
  20859558.305    -4470285.521 8  -3444076.436 9  20859561.410
 94  3 23 19 13  0.0000000  0  7  2 27 29 28 31 18 19
  23803026.633    -2826912.642 5  -2052252.813 9  23803033.551
  21956281.406    -9853270.845 7  -7562474.370 9  21956284.875
  21950225.102     6886141.637 7   5352621.291 9  21950229.168
  23353284.570    -1453471.823 6    142149.901 9  23353289.293
  21961927.805    -9004716.498 7  -6915489.642 9  21961931.883
  20343788.789     -909261.283 8   -673604.544 9  20343791.859
  20856411.297    -4486824.240 8  -3456963.754 9  20856414.426
 94  3 23 19 13 30.0000000  0  7  2 27 29 28 31 18 19
  23786939.031    -2911457.214 6  -2118131.610 9  23786945.195
  21945359.438    -9910666.405 7  -7607198.167 9  21945362.695
  21964730.375     6962368.266 6   5412018.569 9  21964734.594
  23359100.320    -1422912.334 6    165962.438 9  23359104.574
  21956899.344    -9031141.037 7  -6936080.169 9  21956903.305
  20349555.117     -878959.851 8   -649993.065 9  20349558.223
  20853302.828    -4503158.830 8  -3469692.015 9  20853305.969
 94  3 23 19 14  0.0000000  0  7  2 27 29 28 31 18 19
  23770893.266    -2995776.548 6  -2183834.896 9  23770900.242
  21934464.375    -9967921.528 7  -7651812.548 9  21934467.820
  21979310.102     7038982.212 7   5471717.669 9  21979313.828
  23365022.977    -1391784.089 6    190218.165 9  23365027.758
  21951976.992    -9057007.511 7  -6956235.832 9  21951981.223
  20355419.398     -848142.008 8   -625979.190 9  20355422.434
  20850233.711    -4519287.373 8  -3482259.717 9  20850236.711
 94  3 23 19 14 30.0000000  0  7  2 27 29 28 31 18 19
  23754889.141    -3079874.825 5  -2249365.922 9  23754896.715
  21923592.867   -10025049.822 7  -7696328.096 9  21923596.242
  21993960.406     7115969.553 7   5531707.722 9  21993964.684
  23371051.766    -1360104.685 6    214903.374 9  23371056.348
  21947159.047    -9082326.091 7  -6975964.573 9  21947163.090
  20361377.109     -816834.690 8   -601583.909 9  20361379.980
  20847202.023    -4535218.674 8  -3494673.722 9  20847205.082
 94  3 23 19 15  0.0000000  0  7  2 27 29 28 31 18 19
  23738928.578    -3163749.177 5  -2314722.492 9  23738936.141
  21912744.164   -10082061.277 7  -7740752.596 9  21912747.574
  22008676.039     7193302.700 7   5591967.217 9  22008680.305
  23377179.477    -1327905.350 6    239993.717 9  23377183.801
  21942445.672    -9107094.427 7  -6995264.548 9  21942449.809
  20367428.039     -785035.711 8   -576805.513 9  20367430.887
  20844204.789    -4550968.266 8  -3506946.141 9  20844207.953
 94  3 23 19 15 30.0000000  0  7  2 27 29 28 31 18 19
  23723010.805    -3247393.415 5  -2379899.737 9  23723018.109
  21901915.687   -10138964.895 7  -7785093.066 9  21901919.191
  22023459.039     7270986.502 6   5652499.976 9  22023462.906
  23383406.563    -1295179.537 6    265494.315 9  23383411.379
  21937842.164    -9131286.990 7  -7014115.868 9  21937846.031
  20373577.719     -752719.502 8   -551624.082 9  20373580.543
  20841244.688    -4566524.566 8  -3519067.943 9  20841247.875
 94  3 23 19 16  0.0000000  0  7  2 27 29 28 31 18 19
  23707135.305    -3330818.744 5  -2444906.374 9  23707142.469
  21891104.297   -10195779.269 7  -7829364.000 9  21891107.660
  22038307.805     7349019.122 6   5713304.522 9  22038311.988
  23389735.180    -1261924.544 6    291407.270 9  23389739.715
  21933346.781    -9154908.793 7  -7032522.449 9  21933350.977
  20379824.445     -719893.914 8   -526045.732 9  20379827.305
  20838321.125    -4581888.179 8  -3531039.597 9  20838324.242
 94  3 23 19 16 30.0000000  0  7  2 27 29 28 31 18 19
  23691302.539    -3414025.105 6  -2509742.451 9  23691309.230
  21880310.250   -10252503.345 7  -7873564.574 9  21880313.344
  22053223.539     7427401.060 6   5774381.268 9  22053228.016
  23396162.672    -1228147.319 6    317727.148 9  23396166.949
  21928959.438    -9177965.909 7  -7050489.002 9  21928963.633
  20386169.125     -686552.112 8   -500065.138 9  20386172.113
  20835432.914    -4597064.414 8  -3542865.244 9  20835436.078
 94  3 23 19 17  0.0000000  0  7  2 27 29 28 31 18 19
  23675509.242    -3497018.853 6  -2574412.795 9  23675516.324
  21869535.734   -10309121.560 7  -7917682.653 9  21869539.203
  22068207.367     7506140.166 6   5835736.331 9  22068211.457
  23402691.680    -1193836.174 6    344463.067 9  23402696.098
  21924677.539    -9200466.782 7  -7068022.122 9  21924681.559
  20392611.320     -652698.851 8   -473686.010 9  20392614.379
  20832579.109    -4612062.507 8  -3554552.078 9  20832582.309
 94  3 23 19 17 30.0000000  0  7  2 27 29 28 31 18 19
  23659751.227    -3579829.638 6  -2638940.588 9  23659757.977
  21858782.078   -10365633.373 7  -7961717.821 9  21858785.594
  22083257.469     7585227.448 6   5897362.687 9  22083261.699
  23409324.516    -1158981.078 6    371622.843 9  23409328.816
  21920497.914    -9222429.937 7  -7085136.246 9  21920502.074
  20399144.742     -618364.361 8   -446931.897 9  20399147.637
  20829751.898    -4626917.919 8  -3566127.735 9  20829755.039
 94  3 23 19 18  0.0000000  0  7  2 27 29 28 31 18 19
  23644026.297    -3662465.621 6  -2703332.208 9  23644032.754
  21848051.531   -10422021.078 7  -8005656.286 9  21848054.789
  22098373.563     7664665.119 6   5959262.072 9  22098378.016
  23416062.313    -1123576.223 6    399211.019 9  23416066.391
  21916420.672    -9243857.242 7  -7101832.830 9  21916424.656
  20405768.633     -583555.857 8   -419808.429 9  20405771.750
  20826950.727    -4641640.250 8  -3577599.690 9  20826953.961
 94  3 23 19 18 30.0000000  0  7  2 27 29 28 31 18 19
  23628336.297    -3744911.964 6  -2767576.006 9  23628343.367
  21837347.578   -10478270.928 7  -8049487.328 9  21837350.871
  22113556.016     7744446.329 6   6021429.157 9  22113559.965
  23422903.820    -1087624.091 6    427225.625 9  23422908.273
  21912448.180    -9264730.913 7  -7118098.006 9  21912452.352
  20412483.078     -548271.044 8   -392313.805 9  20412486.137
  20824175.805    -4656222.171 8  -3588962.235 9  20824178.852
 94  3 23 19 19  0.0000000  0  7  2 27 29 28 31 18 19
  23612684.195    -3827162.145 6  -2831666.965 9  23612691.055
  21826667.461   -10534396.463 7  -8093221.504 9  21826670.496
  22128800.195     7824554.116 6   6083850.732 9  22128804.227
  23429849.164    -1051126.930 6    455664.953 9  23429853.008
  21908585.797    -9285029.616 7  -7133915.166 9  21908589.887
  20419288.844     -512506.643 8   -364445.481 9  20419291.996
  20821428.867    -4670657.167 8  -3600210.293 9  20821431.984
 94  3 23 19 19 30.0000000  0  7  2 27 29 28 31 18 19
  23597070.344    -3909211.352 5  -2895601.314 9  23597077.285
  21816006.375   -10590420.768 7  -8136876.800 9  21816009.563
  22144104.078     7904977.790 6   6146518.422 9  22144108.461
  23436892.805    -1014106.240 6    484512.227 9  23436897.445
  21904834.164    -9304744.345 7  -7149277.277 9  21904838.406
  20426187.266     -476257.689 8   -336199.579 9  20426190.125
  20818711.797    -4684935.970 8  -3611336.637 9  20818715.008
 94  3 23 19 20  0.0000000  0  7  2 27 29 28 31 18 19
  23581502.977    -3991025.329 6  -2959352.377 9  23581509.809
  21805362.875   -10646353.957 7  -8180461.095 9  21805366.063
  22159470.250     7985726.276 6   6209439.234 9  22159474.188
  23444035.695     -976574.538 6    513757.690 9  23444040.008
  21901194.703    -9323868.740 7  -7164179.395 9  21901198.875
  20433181.750     -439500.781 8   -307557.869 9  20433184.574
  20816030.117    -4699027.728 7  -3622317.238 9  20816033.258
 94  3 23 19 20 30.0000000  0  7  2 27 29 28 31 18 19
  23565980.039    -4072593.677 5  -3022912.037 9  23565987.051
  21794732.547   -10702216.813 7  -8223990.588 9  21794735.758
  22174896.867     8066792.957 6   6272607.986 9  22174901.145
  23451270.586     -938555.433 6    543382.965 9  23451275.531
  21897665.242    -9342417.320 7  -7178632.825 9  21897669.133
  20440272.867     -402236.035 8   -278520.442 9  20440275.680
  20813383.203    -4712937.826 7  -3633156.282 9  20813386.379
 94  3 23 19 21  0.0000000  0  7  2 27 29 28 31 18 19
  23550504.906    -4153918.439 5  -3086281.923 9  23550511.258
  21784114.352   -10758013.964 7  -8267468.886 9  21784117.340
  22190387.914     8148196.545 6   6336039.247 9  22190391.945
  23458598.188     -900048.025 6    573388.711 9  23458602.020
  21894243.242    -9360398.178 7  -7192643.872 9  21894247.109
  20447462.227     -364454.712 8   -249080.488 9  20447465.250
  20810770.180    -4726669.355 7  -3643856.183 9  20810773.355
 94  3 23 19 21 30.0000000  0  7  2 27 29 28 31 18 19
  23535076.656    -4234991.170 5  -3149455.396 9  23535083.395
  21773514.234   -10813719.620 7  -8310875.886 9  21773517.047
  22205948.086     8229966.887 6   6399756.307 9  22205951.742
  23466021.680     -861037.566 6    603786.443 9  23466026.004
  21890927.148    -9377824.259 7  -7206222.632 9  21890931.203
  20454750.305     -326157.607 8   -219238.628 9  20454753.270
  20808192.375    -4740215.367 7  -3654411.526 9  20808195.633
 94  3 23 19 22  0.0000000  0  7  2 27 29 28 31 18 19
  23519699.469    -4315802.121 6  -3212424.857 9  23519706.563
  21762937.680   -10869299.285 7  -8354184.712 9  21762940.621
  22221582.891     8312129.681 6   6463779.166 9  22221587.215
  23473546.109     -821496.272 6    634597.794 9  23473550.656
  21887719.672    -9394681.150 7  -7219357.865 9  21887723.645
  20462137.477     -287336.455 8   -188988.428 9  20462140.418
  20805652.789    -4753560.577 7  -3664810.401 9  20805656.082
 94  3 23 19 22 30.0000000  0  7  2 27 29 28 31 18 19
  23504364.781    -4396378.568 5  -3275211.640 9  23504371.297
  21752386.516   -10924744.738 7  -8397388.960 9  21752389.762
  22237289.758     8394670.614 6   6528096.667 9  22237294.035
  23481172.398     -781418.115 6    665827.504 9  23481176.922
  21884620.352    -9410967.230 7  -7232048.324 9  21884624.500
  20469618.914     -248021.926 7   -158353.772 9  20469621.996
  20803147.539    -4766724.610 7  -3675068.095 9  20803150.891
 94  3 23 19 23  0.0000000  0  7  2 27 29 28 31 18 19
  23489074.000    -4476733.004 5  -3337825.378 9  23489081.539
  21741864.328   -10980039.240 7  -8440475.578 9  21741867.914
  22253066.820     8477577.257 6   6592699.141 9  22253071.320
  23488904.719     -740784.285 6    697490.211 9  23488909.184
  21881631.039    -9426678.202 7  -7244290.640 9  21881635.117
  20477191.820     -208227.351 8   -127345.058 9  20477194.855
  20800676.570    -4779710.820 7  -3685187.226 9  20800679.887
 94  3 23 19 23 30.0000000  0  7  2 27 29 28 31 18 19
  23473828.102    -4556854.791 6  -3400257.897 9  23473834.641
  21731373.297   -11035169.250 7  -8483434.028 9  21731376.941
  22268910.133     8560832.554 6   6657573.292 9  22268914.105
  23496741.906     -699598.768 6    729582.787 9  23496746.523
  21878752.516    -9441802.579 7  -7256075.878 9  21878756.477
  20484856.359     -167948.802 7    -95959.217 9  20484859.559
  20798240.492    -4792511.460 7  -3695161.758 9  20798243.680
 94  3 23 19 24  0.0000000  0  7  2 27 29 28 31 18 19
  23458621.852    -4636759.040 5  -3462520.877 9  23458628.887
  21720911.797   -11090145.978 7  -8526273.033 9  21720915.453
  22284812.352     8644401.380 6   6722691.752 9  22284816.523
  23504679.906     -657886.159 6    762086.085 9  23504684.266
  21875987.844    -9456332.445 7  -7267397.851 9  21875991.957
  20492613.539     -127183.690 7    -64194.237 9  20492616.598
  20795838.211    -4805135.554 7  -3704998.726 9  20795841.563
 94  3 23 19 24 30.0000000  0  7  2 27 29 28 31 18 19
  23443455.813    -4716459.488 6  -3524625.046 9  23443462.410
  21710475.211   -11144991.543 7  -8569009.836 9  21710478.914
  22300769.133     8728253.155 6   6788030.680 9  22300773.504
  23512713.328     -615672.655 6    794979.684 9  23512717.770
  21873334.156    -9470277.391 7  -7278264.048 9  21873337.848
  20500463.727      -85931.692 8    -32049.870 9  20500466.750
  20793466.555    -4817600.321 7  -3714711.538 9  20793469.859
 94  3 23 19 25  0.0000000  0  7  2 27 29 28 31 18 19
  23428330.250    -4795942.461 6  -3586559.769 9  23428337.094
  21700063.008   -11199708.285 7  -8611646.260 9  21700066.395
  22316781.156     8812395.546 6   6853596.071 9  22316785.199
  23520840.125     -572964.718 6    828258.552 9  23520844.344
  21870793.789    -9483627.519 7  -7288666.750 9  21870797.832
  20508411.039      -44168.414 7       492.910 9  20508414.215
  20791127.445    -4829892.066 7  -3724289.529 9  20791130.855
 94  3 23 19 25 30.0000000  0  7  2 27 29 28 31 18 19
  23413245.031    -4875219.272 6  -3648333.841 9  23413251.594
  21689670.359   -11254320.722 7  -8654201.407 9  21689674.016
  22332844.953     8896812.865 6   6919375.694 9  22332849.734
  23529056.383     -529787.874 6    861902.809 9  23529061.199
  21868366.742    -9496380.783 7  -7298604.367 9  21868370.785
  20516453.758       -1903.975 8     33426.200 9  20516456.816
  20788821.297    -4842010.940 7  -3733732.823 9  20788824.637
 94  3 23 19 26  0.0000000  0  7  2 27 29 28 31 18 19
  23398197.344    -4954291.476 6  -3709948.467 9  23398204.238
  21679296.531   -11308835.116 7  -8696680.150 9  21679300.375
  22348963.820     8981516.347 6   6985378.293 9  22348968.438
  23537367.164     -486112.676 6    895935.385 9  23537371.934
  21866056.180    -9508523.040 7  -7308065.839 9  21866060.082
  20524590.398       40855.580 7     66745.291 9  20524593.621
  20786550.117    -4853946.080 7  -3743032.943 9  20786553.480
 94  3 23 19 26 30.0000000  0  7  2 27 29 28 31 18 19
  23383192.078    -5033150.246 6  -3771396.801 9  23383198.418
  21668938.461   -11363267.288 7  -8739094.832 9  21668942.375
  22365138.898     9066516.020 6   7051611.714 9  22365143.105
  23545776.016     -441926.367 6    930366.252 9  23545780.328
  21863858.234    -9520072.264 7  -7317065.276 9  21863862.406
  20532818.898       84095.113 8    100438.391 9  20532822.086
  20784312.273    -4865704.921 7  -3752195.683 9  20784315.777
 94  3 23 19 27  0.0000000  0  7  2 27 29 28 31 18 19
  23368229.859    -5111773.032 6  -3832661.233 9  23368236.598
  21658597.289   -11417610.204 7  -8781439.960 9  21658601.109
  22381374.523     9151834.259 6   7118093.343 9  22381378.988
  23554285.023     -397213.430 6    965207.460 9  23554289.348
  21861772.883    -9531032.363 7  -7325605.615 9  21861776.996
  20541138.000      127811.962 8    134503.424 9  20541141.258
  20782109.992    -4877278.936 7  -3761214.408 9  20782113.426
 94  3 23 19 27 30.0000000  0  7  2 27 29 28 31 18 19
  23353311.945    -5190169.281 6  -3893749.178 9  23353318.285
  21648270.906   -11471877.287 7  -8823725.990 9  21648274.691
  22397669.375     9237464.760 6   7184818.304 9  22397673.629
  23562891.289     -351986.818 6   1000448.941 9  23562895.379
  21859796.414    -9541419.126 7  -7333699.193 9  21859800.176
  20549546.156      171997.461 7    168933.644 9  20549549.332
  20779939.055    -4888688.257 7  -3770104.801 9  20779942.477
 94  3 23 19 28  0.0000000  0  7  2 27 29 28 31 18 19
  23338437.547    -5268333.059 6  -3954655.931 9  23338444.309
  21637960.781   -11526057.416 7  -8865944.271 9  21637964.590
  22414028.695     9323433.202 6   7251806.602 9  22414032.844
  23571595.008     -306246.618 6   1036090.607 9  23571599.145
  21857926.109    -9551247.699 7  -7341357.821 9  21857930.094
  20558046.336      216666.410 7    203740.574 9  20558049.477
  20777796.461    -4899947.634 7  -3778878.347 9  20777799.871
 94  3 23 19 28 30.0000000  0  7  2 27 29 28 31 18 19
  23323611.016    -5346248.503 6  -4015369.205 9  23323617.980
  21627669.406   -11580137.302 7  -8908084.436 9  21627673.320
  22430455.648     9409760.449 6   7319074.474 9  22430459.984
  23580393.453     -260010.686 6   1072118.565 9  23580398.223
  21856161.281    -9560520.703 7  -7348583.542 9  21856165.148
  20566643.672      261845.945 7    238945.359 9  20566647.035
  20775682.898    -4911055.830 7  -3787534.100 9  20775686.250
 94  3 23 19 29  0.0000000  0  7  2 27 29 28 31 18 19
  23308826.297    -5423938.743 6  -4075906.996 9  23308832.824
  21617397.875   -11634115.658 7  -8950145.486 9  21617401.801
  22446949.633     9496434.566 6   7386612.642 9  22446954.414
  23589281.578     -213304.922 6   1108512.612 9  23589286.348
  21854504.102    -9569230.936 7  -7355370.729 9  21854508.074
  20575335.719      307523.264 7    274538.026 9  20575339.035
  20773595.734    -4922023.052 7  -3796079.994 9  20773599.133
 94  3 23 19 29 30.0000000  0  7  2 27 29 28 31 18 19
  23294086.164    -5501399.460 6  -4136265.940 9  23294092.457
  21607150.922   -11687965.129 7  -8992106.105 9  21607154.789
  22463509.391     9583457.103 6   7454422.304 9  22463514.324
  23598261.195     -166117.263 6   1145282.169 9  23598265.543
  21852958.695    -9577350.916 7  -7361697.983 9  21852962.609
  20584124.289      353706.797 7    310525.143 9  20584127.559
  20771539.406    -4932830.014 8  -3804501.018 9  20771542.676
 94  3 23 19 30  0.0000000  0  7  2 27 29 28 31 18 19
  23279393.148    -5578610.766 6  -4196430.530 9  23279399.688
  21596933.352   -11741658.782 7  -9033945.303 9  21596937.125
  22480134.039     9670819.574 6   7522496.844 9  22480138.961
  23607335.391     -118431.840 6   1182439.597 9  23607339.480
  21851527.086    -9584874.354 7  -7367560.394 9  21851530.883
  20593006.664      400382.181 7    346895.529 9  20593009.898
  20769516.633    -4943457.269 7  -3812782.009 9  20769519.926
 94  3 23 19 30 30.0000000  0  7  2 27 29 28 31 18 19
  23264747.305    -5655575.905 6  -4256403.302 9  23264752.648
  21586742.102   -11795212.366 7  -9075675.351 9  21586745.922
  22496816.867     9758487.340 6   7590809.294 9  22496821.695
  23616502.984      -70255.860 6   1219979.277 9  23616507.555
  21850211.406    -9591788.954 7  -7372948.378 9  21850215.238
  20601976.938      447521.424 7    383627.357 9  20601980.230
  20767529.781    -4953901.326 8  -3820920.250 9  20767532.980
 94  3 23 19 31  0.0000000  0  7  2 27 29 28 31 18 19
  23250151.383    -5732280.561 6  -4316173.103 9  23250157.371
  21576582.078   -11848604.045 7  -9117279.248 9  21576585.781
  22513556.125     9846452.879 6   7659353.749 9  22513561.129
  23625768.625      -21564.085 6   1257920.887 9  23625772.855
  21849015.477    -9598073.669 7  -7377845.542 9  21849019.531
  20611035.836      495126.814 7    420722.425 9  20611039.188
  20765581.352    -4964138.200 7  -3828897.047 9  20765584.750
 94  3 23 19 31 30.0000000  0  7  2 27 29 28 31 18 19
  23235607.367    -5808707.669 6  -4375726.650 9  23235613.648
  21566452.836   -11901833.399 7  -9158756.657 9  21566456.375
  22530350.617     9934707.323 6   7728123.328 9  22530355.551
  23635134.297       27651.165 6   1296270.403 9  23635138.445
  21847939.133    -9603729.056 7  -7382252.321 9  21847943.129
  20620185.203      543206.633 7    458187.172 9  20620188.531
  20763675.563    -4974152.669 7  -3836700.542 9  20763678.820
 94  3 23 19 32  0.0000000  0  7  2 27 29 28 31 18 19
  23221114.773    -5884868.751 6  -4435072.893 9  23221121.242
  21556349.789   -11954925.826 7  -9200127.368 9  21556353.270
  22547199.953    10023251.396 6   7797118.611 9  22547204.582
  23644597.219       77381.373 6   1335021.176 9  23644600.828
  21846980.500    -9608765.393 7  -7386176.714 9  21846984.613
  20629425.172      591763.557 7    496023.696 9  20629428.523
  20761811.648    -4983947.482 7  -3844332.874 9  20761815.059
 94  3 23 19 32 30.0000000  0  7  2 27 29 28 31 18 19
  23206667.867    -5960787.312 6  -4494230.167 9  23206674.348
  21546267.641   -12007907.940 7  -9241412.125 9  21546271.250
  22564105.836    10112093.255 6   7866345.902 9  22564111.156
  23654156.656      127613.735 6   1374163.246 9  23654160.383
  21846137.500    -9613197.864 7  -7389630.573 9  21846141.531
  20638758.398      640808.914 7    534240.813 9  20638761.773
  20759989.719    -4993523.470 7  -3851794.692 9  20759993.035
 94  3 23 19 33  0.0000000  0  7  2 27 29 28 31 18 19
  23192271.367    -6036441.448 6  -4553181.399 9  23192276.910
  21536211.258   -12060754.006 7  -9282590.867 9  21536214.902
  22581072.516    10201251.515 6   7935819.746 9  22581077.484
  23663814.313      178366.738 6   1413711.012 9  23663817.641
  21845408.109    -9617030.978 7  -7392617.393 9  21845412.152
  20648188.953      690366.386 7    572856.982 9  20648192.281
  20758212.531    -5002863.585 8  -3859072.715 9  20758215.707
 94  3 23 19 33 30.0000000  0  7  2 27 29 28 31 18 19
  23177926.594    -6111819.512 6  -4611917.517 9  23177932.547
  21526180.656   -12113465.542 7  -9323664.778 9  21526184.125
  22598102.352    10290743.062 6   8005553.328 9  22598106.781
  23673572.875      229649.019 6   1453671.205 9  23673577.680
  21844794.516    -9620253.273 7  -7395128.254 9  21844798.324
  20657717.406      740439.825 7    611875.198 9  20657720.816
  20756478.961    -5011972.459 7  -3866170.542 9  20756482.313
 94  3 23 19 34  0.0000000  0  7  2 27 29 28 31 18 19
  23163631.523    -6186940.310 6  -4670453.145 9  23163637.945
  21516173.008   -12166055.417 7  -9364643.893 9  21516176.734
  22615193.000    10380557.700 6   8075538.649 9  22615198.250
  23683429.703      281446.179 6   1494032.592 9  23683434.109
  21844293.219    -9622888.618 7  -7397181.750 9  21844297.168
  20667341.633      791014.666 7    651284.120 9  20667345.148
  20754783.414    -5020882.742 7  -3873113.628 9  20754786.766
 94  3 23 19 34 30.0000000  0  7  2 27 29 28 31 18 19
  23149388.227    -6261790.232 6  -4728777.690 9  23149395.180
  21506192.516   -12218503.010 7  -9405512.134 9  21506196.125
  22632344.422    10470685.091 6   8145767.658 9  22632349.602
  23693382.828      333751.010 6   1534789.566 9  23693387.188
  21843905.508    -9624925.246 7  -7398768.728 9  21843909.480
  20677062.328      842096.651 7    691088.222 9  20677065.656
  20753123.648    -5029605.742 7  -3879910.781 9  20753126.988
 94  3 23 19 35  0.0000000  0  7  2 27 29 28 31 18 19
  23135197.211    -6336365.413 6  -4786888.197 9  23135203.504
  21496242.320   -12270792.565 7  -9446257.234 9  21496245.813
  22649552.516    10561114.090 6   8216231.695 9  22649557.695
  23703432.133      386559.261 6   1575938.815 9  23703436.410
  21843635.313    -9626345.831 7  -7399875.671 9  21843639.156
  20686876.969      893673.125 7    731277.640 9  20686880.121
  20751496.602    -5038154.956 7  -3886572.516 9  20751499.824
 94  3 23 19 35 30.0000000  0  7  2 27 29 28 31 18 19
  23121054.555    -6410687.736 6  -4844801.648 9  23121061.211
  21486322.047   -12322924.662 7  -9486879.643 9  21486325.469
  22666819.117    10651852.112 6   8286936.533 9  22666824.367
  23713574.750      439860.166 6   1617471.947 9  23713578.688
  21843482.492    -9627148.105 7  -7400500.813 9  21843486.348
  20696784.625      945738.246 8    771847.816 9  20696787.813
  20749902.422    -5046533.055 8  -3893100.918 9  20749905.574
 94  3 23 19 36  0.0000000  0  7  2 27 29 28 31 18 19
  23106959.289    -6484755.385 6  -4902516.664 9  23106965.043
  21476435.766   -12374875.718 7  -9527360.979 9  21476439.363
  22684145.977    10742904.365 6   8357886.220 9  22684150.957
  23723811.406      493653.490 6   1659388.781 9  23723815.449
  21843447.602    -9627331.379 7  -7400643.630 9  21843451.715
  20706788.586      998309.284 7    812812.217 9  20706792.008
  20748344.359    -5054720.644 8  -3899480.863 9  20748347.418
 94  3 23 19 36 30.0000000  0  7  2 27 29 28 31 18 19
  23092913.836    -6558565.829 6  -4960031.259 9  23092919.625
  21466584.719   -12426644.316 7  -9567700.141 9  21466588.258
  22701535.234    10834280.605 6   8429088.369 9  22701539.910
  23734142.695      547943.190 6   1701692.398 9  23734146.527
  21843534.039    -9626879.559 7  -7400291.557 9  21843538.059
  20716889.203     1051387.289 8    854171.655 9  20716892.531
  20746824.867    -5062705.071 7  -3905702.505 9  20746828.184
 94  3 23 19 37  0.0000000  0  7  2 27 29 28 31 18 19
  23078918.469    -6632110.188 6  -5017338.509 9  23078924.469
  21456768.023   -12478231.965 7  -9607898.299 9  21456771.445
  22718987.383    10925996.199 6   8500554.934 9  22718992.223
  23744572.305      602751.471 6   1744400.100 9  23744576.828
  21843740.164    -9625793.796 7  -7399445.514 9  21843744.348
  20727083.859     1104960.919 7    895917.293 9  20727087.234
  20745347.438    -5070468.990 8  -3911752.323 9  20745350.566
 94  3 23 19 37 30.0000000  0  7  2 27 29 28 31 18 19
  23064974.766    -6705385.292 6  -5074435.950 9  23064980.391
  21446981.734   -12529657.251 7  -9647969.945 9  21446985.215
  22736503.414    11018040.754 6   8572277.841 9  22736508.641
  23755099.594      658075.579 6   1787509.756 9  23755104.387
  21844067.516    -9624074.579 7  -7398105.871 9  21844071.359
  20737376.102     1159045.998 7    938061.458 9  20737379.453
  20743913.578    -5078004.481 8  -3917624.146 9  20743916.625
 94  3 23 19 38  0.0000000  0  7  2 27 29 28 31 18 19
  23051084.430    -6778379.153 6  -5131314.233 9  23051091.348
  21437223.438   -12580937.400 7  -9687928.499 9  21437226.871
  22754078.195    11110397.751 6   8644244.215 9  22754083.246
  23765727.125      713923.109 6   1831027.264 9  23765731.273
  21844519.031    -9621700.167 7  -7396255.690 9  21844522.992
  20747767.359     1213652.963 7    980612.292 9  20747770.676
  20742521.773    -5085319.572 8  -3923324.229 9  20742525.008
 94  3 23 19 38 30.0000000  0  7  2 27 29 28 31 18 19
  23037247.828    -6851092.256 6  -5187973.755 9  23037254.285
  21427490.039   -12632087.640 7  -9727785.826 9  21427493.531
  22771712.859    11203065.306 6   8716452.542 9  22771718.109
  23776453.031      770287.700 6   1874947.660 9  23776457.648
  21845095.180    -9618674.720 7  -7393898.201 9  21845099.059
  20758254.406     1268762.162 7   1023554.477 9  20758257.758
  20741171.555    -5092414.197 8  -3928852.522 9  20741174.766
 94  3 23 19 39  0.0000000  0  7  2 27 29 28 31 18 19
  23023465.328    -6923519.891 6  -5244410.849 9  23023470.766
  21417782.195   -12683101.776 7  -9767537.098 9  21417785.688
  22789404.344    11296034.955 6   8788896.274 9  22789409.242
  23787278.047      827166.840 6   1919269.002 9  23787282.324
  21845793.047    -9615007.941 7  -7391040.981 9  21845796.891
  20768838.148     1324379.486 7   1066892.596 9  20768841.383
  20739865.203    -5099278.076 8  -3934201.015 9  20739868.438
 94  3 23 19 39 30.0000000  0  7  2 27 29 28 31 18 19
  23009736.688    -6995664.071 6  -5300627.052 9  23009742.301
  21408101.453   -12733974.124 7  -9807177.884 9  21408104.969
  22807152.539    11389302.086 6   8861571.853 9  22807157.098
  23798196.898      884552.934 6   1963985.389 9  23798200.848
  21846611.664    -9610704.784 7  -7387687.882 9  21846615.695
  20779519.414     1380510.175 7   1110630.744 9  20779522.695
  20738601.031    -5105922.423 8  -3939378.438 9  20738604.324
 94  3 23 19 40  0.0000000  0  7  2 27 29 28 31 18 19
  22996065.031    -7067508.936 6  -5356610.010 9  22996071.441
  21398454.086   -12784672.375 7  -9846683.009 9  21398457.637
  22824962.937    11482896.389 6   8934502.349 9  22824968.152
  23809217.555      942464.257 6   2009111.030 9  23809221.703
  21847550.797    -9605768.379 7  -7383841.339 9  21847554.945
  20790296.367     1437143.909 7   1154760.870 9  20790299.812
  20737379.320    -5112342.390 8  -3944381.022 9  20737382.707
 94  3 23 19 40 30.0000000  0  7  2 27 29 28 31 18 19
  22982447.594    -7139067.499 6  -5412369.895 9  22982454.098
  21388842.195   -12835181.351 7  -9886040.648 9  21388845.734
  22842835.555    11576817.311 6   9007687.333 9  22842842.035
  23820333.492     1000878.598 6   2054628.661 9  23820338.520
  21848604.719    -9600231.812 7  -7379527.140 9  21848608.715
  20801165.422     1494260.634 7   1199267.353 9  20801168.832
  20736200.977    -5118535.028 8  -3949206.461 9  20736204.504
 94  3 23 19 41  0.0000000  0  7  2 27 29 28 31 18 19
  22968886.516    -7210333.922 6  -5467902.127 9  22968892.656
  21379269.953   -12885485.227 7  -9925238.466 9  21379273.387
  22860768.688    11671056.612 6   9081120.409 9  22860774.324
  23831547.680     1059808.892 6   2100548.315 9  23831552.273
  21849776.609    -9594072.532 7  -7374727.710 9  21849780.594
  20812130.430     1551882.431 7   1244167.398 9  20812133.863
  20735064.758    -5124505.995 8  -3953859.172 9  20735068.180
 94  3 23 19 41 30.0000000  0  7  2 27 29 28 31 18 19
  22955376.586    -7281326.591 6  -5523221.046 9  22955382.668
  21369732.992   -12935602.093 7  -9964290.560 9  21369736.578
  22878760.258    11765602.848 6   9154792.678 9  22878765.859
  23842857.234     1119241.161 6   2146859.116 9  23842862.051
  21851070.188    -9587275.668 7  -7369431.454 9  21851074.219
  20823189.359     1609996.758 7   1289451.231 9  20823192.840
  20733967.602    -5130272.366 8  -3958352.459 9  20733971.012
 94  3 23 19 42  0.0000000  0  7  2 27 29 28 31 18 19
  22941919.313    -7352043.759 6  -5578325.281 9  22941925.629
  21360231.195   -12985534.310 7 -10003198.765 9  21360234.688
  22896811.391    11860461.768 6   9228708.567 9  22896817.426
  23854260.609     1179162.542 6   2193551.056 9  23854265.344
  21852488.141    -9579823.300 7  -7363624.420 9  21852491.938
  20834344.016     1668614.822 7   1335127.588 9  20834347.520
  20732913.750    -5135810.784 8  -3962668.117 9  20732916.938
 94  3 23 19 42 30.0000000  0  7  2 27 29 28 31 18 19
  22928512.758    -7422498.964 6  -5633225.403 9  22928519.145
  21350759.414   -13035308.141 7 -10041983.557 9  21350762.988
  22914916.555    11955604.952 6   9302845.952 9  22914922.168
  23865749.898     1239541.628 6   2240599.643 9  23865754.574
  21854031.406    -9571713.517 7  -7357305.108 9  21854035.180
  20845594.195     1727733.538 7   1381194.068 9  20845597.535
  20731900.680    -5141133.687 8  -3966815.836 9  20731903.867
 94  3 23 19 43  0.0000000  0  7  2 27 29 28 31 18 19
  22915160.234    -7492664.508 6  -5687899.800 9  22915166.656
  21341316.391   -13084931.569 7 -10080651.152 9  21341319.941
  22933079.031    12051047.343 6   9377216.488 9  22933084.445
  23877330.664     1300399.106 5   2288020.986 9  23877336.230
  21855705.969    -9562913.537 7  -7350447.984 9  21855709.836
  20856942.133     1787366.970 7   1427661.621 9  20856945.730
  20730929.555    -5146236.163 8  -3970791.800 9  20730932.695
 94  3 23 19 43 30.0000000  0  7  2 27 29 28 31 18 19
  22901868.258    -7562514.954 6  -5742328.672 9  22901874.785
  21331902.883   -13134399.573 7 -10119197.631 9  21331906.516
  22951301.539    12146805.967 6   9451833.437 9  22951307.234
  23889002.805     1361737.109 5   2335816.788 9  23889007.527
  21857510.406    -9553431.350 7  -7343059.268 9  21857514.297
  20868386.750     1847509.741 7   1474526.058 9  20868390.219
  20730004.016    -5151100.788 8  -3974582.423 9  20730007.203
 94  3 23 19 44  0.0000000  0  7  2 27 29 28 31 18 19
  22888637.938    -7632038.434 6  -5796502.769 9  22888644.547
  21322521.969   -13183696.874 7 -10157611.099 9  21322525.508
  22969582.922    12242874.214 6   9526691.673 9  22969588.359
  23900766.406     1423554.833 5   2383986.403 9  23900771.316
  21859437.750    -9543303.232 7  -7335167.229 9  21859441.805
  20879926.820     1908151.953 7   1521779.670 9  20879930.230
  20729122.078    -5155735.498 8  -3978193.899 9  20729125.395
 94  3 23 19 44 30.0000000  0  8  2 27 16 29 28 31 18 19
  22875471.680    -7701229.415 6  -5850417.766 9  22875477.949
  21313175.492   -13232811.493 7 -10195882.215 9  21313178.996
  24254330.859       -5180.64815
  22987921.102    12339243.082 6   9601784.139 9  22987926.668
  23912626.141     1485880.464 5   2432551.776 9  23912631.121
  21861486.578    -9532537.509 7  -7326778.349 9  21861490.480
  20891560.820     1969289.677 7   1569419.397 9  20891564.289
  20728282.563    -5160147.740 8  -3981632.006 9  20728285.797
 94  3 23 19 45  0.0000000  0  8  2 27 16 29 28 31 18 19
  22862369.789    -7770081.030 6  -5904068.343 9  22862375.355
  21303866.359   -13281732.067 7 -10234002.135 9  21303870.016
  24248476.641      -35941.848 5
  23006316.070    12435908.458 6   9677107.635 9  23006321.988
  23924587.742     1548737.648 5   2481531.357 9  23924592.734
  21863654.867    -9521141.764 7  -7317898.543 9  21863658.617
  20903289.617     2030925.657 7   1617447.373 9  20903293.250
  20727486.133    -5164333.327 8  -3984893.508 9  20727489.238
 94  3 23 19 45 30.0000000  0  8  2 27 16 29 28 31 18 19
  22849330.664    -7838602.334 6  -5957461.518 9  22849336.113
  21294595.383   -13330451.695 7 -10271965.462 9  21294599.027
  24242728.422      -66155.481 5     -2335.90319  24242735.574
  23024765.852    12532859.955 6   9752654.099 9  23024771.066
  23936649.477     1612119.960 5   2530920.137 9  23936654.129
  21865939.727    -9509135.050 7  -7308542.661 9  21865943.699
  20915114.359     2093064.346 7   1665867.068 9  20915117.992
  20726733.109    -5168289.745 8  -3987976.439 9  20726736.438
 94  3 23 19 46  0.0000000  0  8  2 27 16 29 28 31 18 19
  22836344.766    -7906841.861 6  -6010635.133 9  22836350.660
  21285358.625   -13378991.161 7 -10309788.405 9  21285362.199
  24237076.539      -95852.621 5    -25476.549 9  24237084.102
  23043264.367    12630071.059 6   9828402.858 9  23043269.934
  23948805.938     1676002.358 6   2580698.581 9  23948810.930
  21868336.094    -9496542.540 7  -7298730.306 9  21868339.949
  20927032.203     2155692.536 7   1714668.190 9  20927035.836
  20726020.875    -5172032.520 8  -3990892.895 9  20726024.250
 94  3 23 19 46 30.0000000  0  8  2 27 16 29 28 31 18 19
  22823412.594    -7974801.761 6  -6063590.853 9  22823418.160
  21276154.031   -13427360.233 7 -10347478.583 9  21276157.559
  24231525.141     -125022.678 5    -48206.507 9  24231531.270
  23061813.836    12727549.146 6   9904359.659 9  23061819.426
  23961055.961     1740376.024 6   2630859.838 9  23961061.059
  21870849.242    -9483335.527 7  -7288439.132 9  21870853.402
  20939045.133     2218820.526 7   1763858.759 9  20939048.766
  20725353.008    -5175541.196 8  -3993626.940 9  20725356.488
 94  3 23 19 47  0.0000000  0  8  2 27 16 29 28 31 18 19
  22810532.352    -8042488.037 6  -6116333.367 9  22810538.000
  21266982.414   -13475558.988 7 -10385036.047 9  21266985.965
  24226078.359     -153649.788 5    -70513.398 9  24226084.945
  23080417.422    12825309.858 6   9980536.679 9  23080423.480
  23973394.484     1805216.999 5   2681385.223 9  23973399.043
  21873480.930    -9469506.408 7  -7277663.189 9  21873484.891
  20951152.445     2282445.069 7   1813436.258 9  20951155.973
  20724732.758    -5178800.889 8  -3996166.967 9  20724736.191
 94  3 23 19 47 30.0000000  0  8  2 27 16 29 28 31 18 19
  22797699.148    -8109925.421 6  -6168881.931 9  22797704.844
  21257841.500   -13523595.356 7 -10422466.977 9  21257845.051
  24220732.125     -181740.765 5    -92402.503 8  24220738.805
  23099074.813    12923356.566 6  10056936.535 9  23099081.719
  23985816.820     1870501.466 5   2732256.184 9  23985821.965
  21876229.406    -9455062.529 7  -7266408.215 9  21876233.367
  20963350.648     2346547.918 7   1863386.463 9  20963354.480
  20724161.922    -5181801.966 8  -3998505.479 9  20724165.438
 94  3 23 19 48  0.0000000  0  8  2 27 16 29 28 31 18 19
  22784915.977    -8177102.375 6  -6221227.570 9  22784921.449
  21248735.406   -13571447.176 7 -10459754.102 9  21248739.191
  24215492.461     -209276.042 5   -113858.567 9  24215499.637
  23117790.352    13021705.280 6  10133571.728 9  23117796.727
  23998326.492     1936237.023 5   2783478.665 9  23998331.391
  21879101.563    -9439970.640 7  -7254648.302 9  21879105.465
  20975639.695     2411125.885 7   1913706.892 9  20975643.445
  20723644.031    -5184522.908 8  -4000625.703 9  20723647.535
 94  3 23 19 48 30.0000000  0  8  2 27 16 29 28 31 18 19
  22772185.203    -8244005.017 6  -6273359.454 9  22772190.711
  21239665.172   -13619112.826 7 -10496896.155 9  21239668.723
  24210361.133     -236242.430 5   -134871.353 9  24210367.414
  23136562.484    13120355.015 6  10210441.481 9  23136569.012
  24010922.938     2002429.397 5   2835057.068 9  24010927.238
  21882101.195    -9424205.622 7  -7242363.873 9  21882105.109
  20988017.594     2476170.526 7   1964390.959 9  20988021.262
  20723177.594    -5186973.185 8  -4002535.012 9  20723181.074
 94  3 23 19 49  0.0000000  0  8  2 27 16 29 28 31 18 19
  22759507.852    -8310620.756 6  -6325267.763 9  22759513.992
  21230632.656   -13666578.100 7 -10533882.074 9  21230636.020
  24205337.375     -262639.736 5   -155440.713 9  24205344.973
  23155392.617    13219303.694 6  10287544.165 9  23155399.523
  24023611.273     2069106.709 5   2887013.338 9  24023615.949
  21885228.797    -9407769.605 7  -7229556.585 9  21885232.828
  21000483.414     2541679.448 7   2015436.811 9  21000486.965
  20722760.258    -5189166.725 8  -4004244.271 9  20722763.844
 94  3 23 19 49 30.0000000  0  8  2 27 16 29 28 31 18 19
  22746889.773    -8376931.174 6  -6376938.166 9  22746896.055
  21221638.492   -13713842.985 7 -10570711.842 9  21221641.867
  24200421.219     -288474.662 5   -175571.826 8  24200427.980
  23174276.695    13318541.110 6  10364871.822 9  23174283.492
  24036395.211     2136280.838 6   2939356.763 9  24036399.934
  21888485.750    -9390656.458 7  -7216221.664 9  21888489.699
  21013041.063     2607669.307 7   2066857.413 9  21013044.719
  20722390.313    -5191112.289 8  -4005760.296 9  20722393.770
 94  3 23 19 50  0.0000000  0  8  2 27 16 29 28 31 18 19
  22734331.234    -8442925.992 6  -6428362.638 9  22734338.066
  21212681.672   -13760912.090 7 -10607389.053 9  21212685.000
  24195612.656     -313749.262 5   -195266.376 9  24195618.398
  23193211.984    13418045.818 6  10442407.781 9  23193218.891
  24049270.719     2203943.064 6   2992080.526 9  24049274.715
  21891870.977    -9372866.876 7  -7202359.648 9  21891874.855
  21025691.469     2674147.396 7   2118658.462 9  21025694.973
  20722061.711    -5192838.876 8  -4007105.690 9  20722065.168
 94  3 23 19 50 30.0000000  0  8  2 27 16 29 28 31 18 19
  22721834.047    -8508597.509 6  -6479535.198 9  22721839.930
  21203761.484   -13807788.885 7 -10643916.411 9  21203764.766
  24190909.688     -338462.889 5   -214523.770 9  24190916.734
  23212199.219    13517823.321 6  10520156.311 9  23212205.723
  24062239.586     2272098.967 5   3045188.969 9  24062244.250
  21895382.164    -9354414.576 7  -7187981.236 9  21895386.055
  21038438.109     2741131.523 7   2170853.823 9  21038441.719
  20721773.438    -5194353.474 8  -4008285.898 9  20721776.871
 94  3 23 19 51  0.0000000  0  8  2 27 16 29 28 31 18 19
  22709396.883    -8573955.454 6  -6530463.418 9  22709403.059
  21194874.797   -13854487.807 7 -10680305.169 9  21194878.066
  24186308.688     -362638.827 5   -233362.218 9  24186314.535
  23231237.430    13617867.600 6  10598112.703 9  23231244.168
  24075300.883     2340731.200 5   3098668.582 9  24075306.566
  21899012.727    -9335335.758 7  -7173114.629 9  21899016.488
  21051279.867     2808616.692 7   2223439.614 9  21051283.687
  20721524.852    -5195658.869 8  -4009303.094 9  20721528.250
 94  3 23 19 51 30.0000000  0  8  2 27 16 29 28 31 18 19
  22697019.648    -8638999.072 6  -6581146.700 9  22697026.035
  21186025.070   -13900992.730 7 -10716542.754 9  21186028.516
  24181813.117     -386262.627 5   -251770.411 9  24181819.961
  23250330.188    13718203.428 5  10676296.278 9  23250337.270
  24088450.219     2409834.235 5   3152515.058 9  24088455.176
  21902765.922    -9315612.790 7  -7157746.086 9  21902769.906
  21064221.922     2876626.943 7   2276434.557 9  21064225.707
  20721322.844    -5196719.811 8  -4010129.805 9  20721326.266
 94  3 23 19 52  0.0000000  0  8  2 27 16 29 28 31 18 19
  22684699.406    -8703740.883 6  -6631594.804 9  22684705.969
  21177213.406   -13947299.183 7 -10752625.683 9  21177216.887
  24177424.625     -409330.355 5   -269745.297 9  24177429.160
  23269479.070    13818828.509 6  10754705.228 9  23269485.738
  24101688.250     2479402.755 5   3206724.247 9  24101692.645
  21906639.414    -9295258.310 7  -7141885.464 9  21906643.375
  21077258.492     2945133.520 7   2329816.242 9  21077262.359
  20721166.203    -5197544.076 7  -4010772.093 9  20721169.648
 94  3 23 19 52 30.0000000  0  8  2 27 16 29 28 31 18 19
  22672439.586    -8768164.860 6  -6681795.261 9  22672446.148
  21168441.828   -13993394.741 7 -10788544.281 9  21168445.098
  24173141.516     -431833.520 5   -287280.228 9  24173148.137
  23288687.828    13919771.182 5  10833361.668 9  23288694.566
  24115021.289     2549465.047 5   3261318.186 9  24115027.289
  21910633.406    -9274268.011 7  -7125529.398 9  21910637.273
  21090389.133     3014135.476 7   2383583.938 9  21090392.871
  20721059.977    -5198101.873 7  -4011206.743 9  20721063.504
 94  3 23 19 53  0.0000000  0  8  2 27 16 29 28 31 18 19
  22660239.953    -8832274.136 6  -6731750.492 9  22660246.680
  21159712.820   -14039264.781 7 -10824287.148 9  21159715.961
  24168966.953     -453766.329 5   -304370.734 9  24168973.930
  23307956.789    14021029.399 5  10912263.973 9  23307964.000
  24128447.164     2620021.752 5   3316297.367 9  24128453.105
  21914752.508    -9252623.884 7  -7108663.849 9  21914756.199
  21103612.195     3083623.951 7   2437730.741 9  21103616.285
  20721006.242    -5198383.443 7  -4011426.156 9  20721009.770
 94  3 23 19 53 30.0000000  0  8  2 27 16 29 28 31 18 19
  22648098.805    -8896077.743 6  -6781467.547 9  22648105.285
  21151028.453   -14084899.945 7 -10859846.998 9  21151031.875
  24164906.148     -475111.746 5   -321003.578 9  24164912.816
  23327283.500    14122588.779 5  10991400.951 9  23327290.500
  24141965.203     2691056.234 5   3371648.856 9  24141970.441
  21918995.422    -9230324.905 7  -7091288.037 9  21918999.383
  21116926.164     3153588.095 7   2492248.201 9  21116929.949
  20721002.539    -5198403.933 7  -4011442.128 9  20721006.008
 94  3 23 19 54  0.0000000  0  8  2 27 16 29 28 31 18 19
  22636019.297    -8959555.799 6  -6830930.905 9  22636025.988
  21142387.242   -14130310.222 7 -10895231.611 9  21142390.734
  24160953.312     -495878.308 4   -337185.332 9  24160960.570
  23346664.211    14224434.876 5  11070761.331 9  23346671.270
  24155571.414     2762557.481 5   3427364.057 9  24155577.836
  21923361.094    -9207384.410 7  -7073412.330 9  21923365.125
  21130326.305     3224007.062 7   2547120.057 9  21130330.324
  20721044.711    -5198183.536 8  -4011270.391 9  20721048.168
 94  3 23 19 54 30.0000000  0  8  2 27 16 29 28 31 18 19
  22624002.961    -9022702.899 6  -6880136.396 9  22624009.488
  21133787.242   -14175504.240 7 -10930447.712 9  21133790.535
  24157110.859     -516075.093 5   -352923.106 9  24157115.910
  23366098.398    14326563.304 5  11150341.705 9  23366105.797
  24169263.266     2834508.064 5   3483429.356 9  24169269.910
  21927849.836    -9183796.322 7  -7055032.016 9  21927853.879
  21143816.305     3294895.941 7   2602358.084 9  21143820.184
  20721134.664    -5197710.664 8  -4010901.919 9  20721138.133
 94  3 23 19 55  0.0000000  0  8  2 27 16 29 28 31 18 19
  22612050.570    -9085509.561 6  -6929076.624 9  22612057.145
  21125230.242   -14220471.978 7 -10965487.490 9  21125233.406
  24153378.781     -535687.245 5   -368205.364 9  24153386.156
  23385585.875    14428969.322 5  11230138.395 9  23385593.379
  24183038.297     2906897.148 5   3539836.359 9  24183043.734
  21932465.063    -9159543.363 7  -7036133.616 9  21932468.883
  21157400.734     3366282.631 7   2657984.014 9  21157404.754
  20721273.086    -5196982.162 7  -4010334.255 9  20721276.672
 94  3 23 19 55 30.0000000  0  7  2 27 16 29 31 18 19
  22600166.336    -9147963.936 6  -6977742.335 9  22600172.770
  21116711.734   -14265236.106 7 -11000368.613 9  21116715.016
  24149754.258     -554734.813 5   -383047.669 9  24149760.645
  23405122.531    14531632.348 5  11310135.347 9  23405129.188
  21937204.813    -9134636.604 7  -7016725.768 9  21937208.750
  21171079.922     3438166.130 7   2713997.070 9  21171083.613
  20721460.406    -5195997.342 7  -4009566.864 9  20721463.793
 94  3 23 19 56  0.0000000  0  7  2 27 16 29 31 18 19
  22588350.805    -9210053.743 6  -7026123.960 9  22588357.238
  21108231.320   -14309801.784 7 -11035095.097 9  21108234.613
  24146235.250     -573229.934 5   -397459.447 9  24146241.437
  23424707.164    14634551.532 5  11390331.904 9  23424714.188
  21942071.594    -9109059.421 7  -6996795.509 9  21942075.391
  21184854.398     3510551.716 7   2770401.358 9  21184858.359
  20721699.055    -5194744.644 7  -4008590.737 9  20721702.582
 94  3 23 19 56 30.0000000  0  7  2 27 16 29 31 18 19
  22576599.984    -9271806.637 6  -7074243.051 9  22576606.699
  21099789.961   -14354160.680 7 -11069660.457 9  21099793.160
  24142821.094     -591168.511 5   -411437.594 9  24142828.082
  23444339.680    14737720.807 5  11470723.324 9  23444346.855
  21947068.250    -9082804.352 7  -6976337.029 9  21947071.965
  21198726.016     3583447.825 7   2827203.457 9  21198730.023
  20721988.672    -5193220.566 7  -4007403.146 9  20721992.258
 94  3 23 19 57  0.0000000  0  7  2 27 16 29 31 18 19
  22564909.852    -9333237.872 6  -7122111.510 9  22564916.672
  21091390.930   -14398297.624 7 -11104052.864 9  21091394.199
  24139514.484     -608548.712 5   -424980.663 9  24139520.531
  23464019.789    14841139.000 5  11551308.708 9  23464027.340
  21952192.711    -9055873.230 7  -6955351.758 9  21952196.637
  21212693.422     3656847.250 7   2884397.746 9  21212697.465
  20722329.766    -5191428.195 7  -4006006.493 9  20722333.387
 94  3 23 19 57 30.0000000  0  7  2 27 16 29 31 18 19
  22553279.852    -9394354.613 6  -7169734.895 9  22553286.414
  21083035.695   -14442204.722 7 -11138266.169 9  21083038.895
  24136313.344     -625370.641 5   -438088.721 9  24136320.695
  23483748.961    14944813.551 5  11632093.817 9  23483756.465
  21957445.336    -9028270.612 7  -6933843.240 9  21957449.391
  21226754.063     3730734.480 7   2941972.141 9  21226758.000
  20722722.297    -5189365.503 7  -4004399.206 9  20722725.953
 94  3 23 19 58  0.0000000  0  7  2 27 16 29 31 18 19
  22541705.289    -9455178.363 6  -7217129.979 9  22541711.992
  21074724.906   -14485877.616 7 -11172296.975 9  21074728.293
  24133222.562     -641617.019 5   -450748.266 9  24133228.750
  23503528.281    15048756.339 5  11713087.978 9  23503534.984
  21962822.344    -9000012.948 7  -6911824.293 9  21962826.469
  21240904.797     3805098.068 7   2999917.730 9  21240908.734
  20723163.320    -5187048.223 7  -4002593.537 9  20723166.848
 94  3 23 19 58 30.0000000  0  7  2 27 16 29 31 18 19
  22530187.219    -9515705.317 6  -7264293.811 9  22530193.957
  21066460.992   -14529305.286 7 -11206136.701 9  21066464.250
  24130243.570     -657268.947 5   -462944.629 9  24130249.594
  23523362.891    15152982.402 5  11794302.855 9  23523370.324
  21968323.242    -8971107.107 7  -6889300.273 9  21968327.391
  21255145.664     3879934.390 7   3058231.687 9  21255149.508
  20723656.617    -5184457.239 7  -4000574.596 9  20723660.238
 94  3 23 19 59  0.0000000  0  7  2 27 16 29 31 18 19
  22518729.734    -9575914.354 6  -7311209.896 9  22518736.109
  21058240.844   -14572502.378 7 -11239796.751 9  21058244.172
  24127378.555     -672320.064 5   -474672.781 9  24127385.375
  23543249.688    15257489.367 5  11875736.635 9  23543257.191
  21973946.102    -8941558.484 7  -6866275.377 9  21973950.180
  21269475.922     3955238.826 7   3116910.392 9  21269479.930
  20724203.117    -5181584.711 7  -3998336.267 9  20724206.504
 94  3 23 19 59 30.0000000  0  7  2 27 16 29 31 18 19
  22507334.242    -9635798.412 6  -7357872.745 9  22507340.910
  21050059.563   -14615495.091 7 -11273297.543 9  21050063.031
  24124630.180     -686765.766 5   -485929.221 9  24124637.273
  23563188.570    15362268.037 5  11957382.110 9  23563195.992
  21979690.094    -8911374.641 7  -6842755.503 9  21979693.996
  21283892.633     4030997.665 7   3175943.186 9  21283896.406
  20724802.656    -5178434.227 7  -3995881.350 9  20724806.113
 94  3 23 20  0  0.0000000  0  7  2 27 16 29 31 18 19
  22496003.555    -9695340.484 6  -7404269.111 9  22496010.000
  21041919.961   -14658269.781 7 -11306628.449 9  21041923.242
  24121999.602     -700591.679 5   -496702.698 9  24122006.719
  23583179.961    15467323.757 5  12039243.475 9  23583187.512
  21985559.078    -8880532.885 7  -6818722.973 9  21985563.086
  21298396.117     4107215.535 7   3235333.663 9  21298400.125
  20725458.359    -5174990.074 7  -3993197.602 9  20725461.934
 94  3 23 20  0 30.0000000  0  7  2 27 16 29 31 18 19
  22484737.984    -9754544.248 6  -7450401.873 9  22484744.148
  21033820.320   -14700833.351 7 -11339794.848 9  21033823.520
  24119481.102     -713824.551 5   -507014.079 9  24119488.863
  23603219.461    15572630.761 5  12121300.639 9  23603227.211
  21991552.930    -8849035.256 7  -6794179.372 9  21991556.691
  21312985.766     4183883.767 7   3295075.074 9  21312989.609
  20726169.477    -5171251.679 7  -3990284.577 9  20726173.027
 94  3 23 20  1  0.0000000  0  7  2 27 16 29 31 18 19
  22473535.109    -9813412.196 6  -7496272.945 9  22473541.707
  21025759.484   -14743192.954 7 -11372802.312 9  21025762.695
  24117073.969     -726478.220 5   -516874.121 9  24117081.484
  23623304.273    15678179.172 5  12203545.881 9  23623312.316
  21997670.844    -8816885.757 7  -6769127.815 9  21997674.711
  21327662.539     4261012.592 7   3355175.388 9  21327666.699
  20726934.156    -5167232.835 7  -3987153.016 9  20726937.684
 94  3 23 20  1 30.0000000  0  7  2 27 16 29 31 18 19
  22462397.961    -9871940.546 6  -7541879.404 9  22462404.113
  21017743.484   -14785317.690 7 -11405626.762 9  21017746.660
  24114775.734     -738556.713 5   -526285.981 9  24114782.699
  23643439.539    15783986.328 5  12285992.764 9  23643446.879
  22003913.586    -8784079.668 7  -6743564.629 9  22003917.195
  21342428.664     4338608.378 7   3415639.567 9  21342432.742
  20727751.875    -5162936.231 7  -3983805.020 9  20727755.508
 94  3 23 20  2  0.0000000  0  7  2 27 16 29 31 18 19
  22451322.109    -9930143.284 6  -7587232.123 9  22451328.754
  21009773.656   -14827198.860 7 -11438261.423 9  21009776.797
  24112581.867     -750079.883 5   -535265.137 9  24112588.855
  23663620.438    15890041.732 5  12368633.091 9  23663628.727
  22010277.648    -8750635.385 7  -6717504.146 9  22010281.457
  21357282.617     4416664.653 7   3476462.569 9  21357286.789
  20728619.695    -5158375.161 7  -3980250.951 9  20728623.434
 94  3 23 20  2 30.0000000  0  7  2 27 16 29 31 18 19
  22440309.445    -9988016.462 7  -7632328.053 9  22440316.066
  21001849.891   -14868840.825 7 -11470709.691 9  21001853.043
  24110494.344     -761045.765 5   -543810.000 9  24110500.402
  23683851.258    15996350.441 5  12451470.752 9  23683859.008
  22016761.656    -8716563.345 7  -6690954.502 9  22016765.441
  21372228.031     4495203.476 7   3537661.590 9  21372232.027
  20729538.484    -5153547.459 7  -3976489.112 9  20729542.059
 94  3 23 20  3  0.0000000  0  7  2 27 16 29 31 18 19
  22429356.039   -10045575.103 6  -7677178.874 9  22429362.414
  20993970.609   -14910246.110 7 -11502973.534 9  20993973.738
  24108515.797     -771454.401 5   -551920.667 9  24108522.266
  23704129.031    16102909.029 5  12534503.165 9  23704137.262
  22023364.836    -8681863.903 7  -6663915.976 9  22023368.609
  21387264.133     4574219.106 7   3599232.149 9  21387268.223
  20730505.570    -5148465.459 7  -3972529.120 9  20730509.074
 94  3 23 20  3 30.0000000  0  7  2 27 16 29 31 18 19
  22418462.578   -10102822.040 7  -7721786.824 9  22418468.672
  20986139.109   -14951400.705 7 -11535042.037 9  20986142.191
  24106643.180     -781293.877 5   -559587.843 9  24106650.309
  23724454.828    16209719.361 5  12617731.722 9  23724462.086
  22030089.313    -8646525.171 7  -6636379.289 9  22030093.098
  21402389.227     4653700.020 7   3661165.268 9  21402393.375
  20731522.234    -5143123.607 7  -3968366.643 9  20731525.773
 94  3 23 20  4  0.0000000  0  7  2 27 16 29 31 18 19
  22407626.719   -10159764.826 7  -7766157.760 9  22407633.094
  20978353.055   -14992315.867 7 -11566923.966 9  20978356.242
  24104879.469     -790563.228 5   -566810.731 9  24104887.043
  23744824.727    16316763.248 5  12701142.256 9  23744832.465
  22036937.055    -8610539.923 7  -6608338.832 9  22036940.652
  21417601.461     4733640.635 7   3723456.588 9  21417605.504
  20732589.078    -5137516.936 7  -3963997.813 9  20732592.535
 94  3 23 20  4 30.0000000  0  7  2 27 16 29 31 18 19
  22396849.906   -10216396.198 7  -7810286.054 9  22396855.461
  20970612.156   -15032994.900 7 -11598621.896 9  20970615.320
  24103224.125     -799257.180 5   -573585.288 9  24103231.383
  23765239.359    16424038.709 5  12784733.234 9  23765246.559
  22043910.313    -8573896.174 7  -6579785.256 9  22043913.793
  21432902.391     4814048.874 7   3786112.302 9  21432906.480
  20733707.750    -5131637.577 7  -3959416.506 9  20733711.324
 94  3 23 20  5  0.0000000  0  7  2 27 16 29 31 18 19
  22386133.797   -10272709.456 7  -7854166.448 9  22386139.176
  20962916.031   -15073438.624 7 -11630136.470 9  20962919.066
  24101677.391     -807383.393 5   -579917.451 9  24101684.707
  23785695.578    16531535.279 5  12868496.492 9  23785703.000
  22051008.547    -8536594.080 7  -6550718.684 9  22051012.379
  21448288.031     4894899.868 7   3849113.013 9  21448292.238
  20734877.617    -5125489.414 7  -3954625.733 9  20734881.320
 94  3 23 20  5 30.0000000  0  7  2 27 16 29 31 18 19
  22375481.969   -10328686.371 7  -7897784.781 9  22375487.230
  20955261.281   -15113664.799 7 -11661481.526 9  20955264.434
  24100238.820     -814944.573 5   -585809.338 9  24100246.453
  23806191.813    16639246.348 5  12952426.891 9  23806199.656
  22058228.422    -8498652.418 7  -6521153.747 9  22058232.406
  21463755.852     4976184.353 7   3912451.509 9  21463759.988
  20736098.875    -5119072.861 7  -3949625.828 9  20736102.473
 94  3 23 20  6  0.0000000  0  7  2 27 16 29 31 18 19
  22364896.086   -10384314.188 7  -7941131.078 9  22364901.289
  20947646.891   -15153677.893 7 -11692660.542 9  20947649.926
  24098907.820     -821938.501 5   -591259.212 9  24098915.395
  23826729.750    16747174.073 5  13036526.142 9  23826737.441
  22065567.414    -8460087.373 7  -6491103.059 9  22065571.258
  21479306.789     5057904.592 7   3976129.551 9  21479310.984
  20737372.922    -5112377.139 7  -3944408.391 9  20737376.672
 94  3 23 20  6 30.0000000  0  7  2 27 16 29 31 18 19
  22354378.070   -10439586.726 7  -7984200.540 9  22354383.742
  20940072.430   -15193482.322 7 -11723676.962 9  20940075.500
  24097685.719     -828363.422 5   -596265.674 9  24097692.742
  23847311.523    16855328.165 5  13120801.738 9  23847319.766
  22073021.383    -8420917.421 7  -6460581.018 9  22073025.156
  21494939.750     5140056.191 7   4040143.714 9  21494943.922
  20738700.195    -5105402.657 7  -3938973.738 9  20738703.969
 94  3 23 20  7  0.0000000  0  7  2 27 16 29 31 18 19
  22343927.164   -10494507.552 7  -8026995.936 9  22343932.484
  20932538.648   -15233072.763 7 -11754526.639 9  20932541.848
  24096573.203     -834211.530 5   -600822.702 9  24096580.590
  23867936.172    16963712.447 5  13205256.721 9  23867944.449
  22080590.750    -8381139.657 7  -6429585.356 9  22080594.465
  21510654.461     5222635.351 7   4104491.047 9  21510658.504
  20740080.672    -5098148.366 7  -3933321.051 9  20740084.457
 94  3 23 20  7 30.0000000  0  7  2 27 16 29 31 18 19
  22333537.953   -10549102.708 7  -8069537.565 9  22333543.355
  20925046.617   -15272444.379 7 -11785205.804 9  20925049.746
  24095569.742     -839481.377 5   -604929.097 9  24095577.926
  23888604.313    17072321.363 5  13289886.705 9  23888612.508
  22088273.586    -8340764.535 7  -6398124.226 9  22088277.254
  21526451.563     5305649.263 7   4169177.141 9  21526455.594
  20741512.828    -5090622.148 7  -3927456.471 9  20741516.613
 94  3 23 20  8  0.0000000  0  7  2 27 16 29 31 18 19
  22323208.453   -10603382.658 7  -8111833.578 9  22323214.078
  20917599.281   -15311579.676 7 -11815700.824 9  20917602.375
  24094675.852     -844179.463 5   -608589.996 9  24094684.949
  23909317.289    17181168.135 5  13374702.049 9  23909325.848
  22096073.875    -8299772.868 7  -6366182.675 9  22096077.906
  21542334.328     5389116.133 7   4234216.185 9  21542338.453
  20742996.984    -5082822.812 7  -3921379.072 9  20743000.746
 94  3 23 20  8 30.0000000  0  7  2 27 16 29 31 18 19
  22312940.617   -10657339.792 7  -8153878.049 9  22312946.430
  20910199.219   -15350466.620 7 -11846002.319 9  20910202.348
  24093893.414     -848292.034 5   -611794.657 9  24093901.176
  23930076.188    17290257.408 5  13459706.370 9  23930084.746
  22104000.414    -8258119.749 7  -6333725.701 9  22104004.270
  21558309.711     5473066.113 7   4299631.685 9  21558314.000
  20744534.375    -5074743.313 7  -3915083.365 9  20744537.914
 94  3 23 20  9  0.0000000  0  7  2 27 16 29 31 18 19
  22302730.641   -10710993.485 7  -8195686.067 9  22302736.230
  20902847.609   -15389100.161 7 -11876106.361 9  20902850.715
  24093219.711     -851835.754 5   -614556.063 9  24093227.473
  23950876.742    17399560.282 5  13544877.123 9  23950884.621
  22112051.453    -8215808.605 7  -6300755.984 9  22112055.309
  21574373.805     5557482.223 7   4365410.397 9  21574378.176
  20746124.039    -5066390.097 7  -3908574.369 9  20746127.789
 94  3 23 20  9 30.0000000  0  7  2 27 16 29 31 18 19
  22292579.102   -10764338.845 7  -8237253.825 9  22292584.609
  20895543.195   -15427482.928 7 -11906014.994 9  20895546.336
  24092647.844     -854837.706 5   -616895.323 9  24092654.336
  23971715.219    17509068.592 5  13630207.971 9  23971723.930
  22120225.570    -8172856.017 7  -6267286.446 9  22120229.660
  21590522.570     5642344.612 7   4431536.865 9  21590526.473
  20747764.688    -5057769.043 7  -3901856.667 9  20747768.379
 94  3 23 20 10  0.0000000  0  7  2 27 16 29 31 18 19
  22282487.805   -10817369.483 7  -8278576.344 9  22282493.418
  20888285.188   -15465625.557 7 -11935736.509 9  20888288.328
  24092179.641     -857298.890 5   -618813.129 9  24092187.016
  23992592.695    17618777.778 5  13715695.322 9  23992601.301
  22128522.609    -8129255.148 7  -6233311.755 9  22128526.664
  21606752.789     5727634.536 7   4497996.473 9  21606757.020
  20749457.867    -5048871.693 7  -3894923.673 9  20749461.465
 94  3 23 20 10 30.0000000  0  7  2 27 16 29 31 18 19
  22272457.398   -10870080.417 7  -8319649.739 9  22272462.859
  20881073.883   -15503521.489 7 -11965265.792 9  20881076.953
  24091816.680     -859206.868 5   -620299.916 9  24091823.926
  24013504.344    17728668.195 5  13801323.917 9  24013513.008
  22136938.922    -8085026.968 7  -6198848.255 9  22136942.766
  21623058.656     5813322.112 7   4564765.940 9  21623062.898
  20751203.773    -5039696.135 7  -3887773.891 9  20751207.465
 94  3 23 20 11  0.0000000  0  7  2 27 16 29 31 18 19
  22262488.891   -10922465.126 7  -8360468.936 9  22262494.281
  20873911.867   -15541157.523 7 -11994592.552 9  20873915.090
  24091556.953     -860568.189 5   -621360.744 9  24091563.680
  24034452.125    17838746.801 5  13887099.116 9  24034460.777
  22145471.008    -8040190.291 7  -6163910.605 9  22145474.770
  21639436.172     5899389.152 7   4631831.093 9  21639440.754
  20753001.750    -5030248.564 7  -3880412.153 9  20753005.547
 94  3 23 20 11 30.0000000  0  7  2 27 16 29 31 18 19
  22252580.133   -10974535.031 7  -8401042.837 9  22252585.395
  20866793.273   -15578566.266 7 -12023742.207 9  20866796.484
  24091403.023     -861380.838 5   -621994.045 9  24091410.129
  24055435.727    17949016.618 5  13973023.339 9  24055444.730
  22154118.594    -7994746.449 7  -6128499.844 9  22154122.426
  21655887.781     5985840.805 7   4699195.945 9  21655892.375
  20754849.273    -5020539.225 7  -3872846.434 9  20754853.199
 94  3 23 20 12  0.0000000  0  7  2 27 16 29 31 18 19
  22242727.719   -11026310.860 7  -8441387.580 9  22242733.262
  20859715.922   -15615757.227 7 -12052722.155 9  20859719.109
  24091354.773     -861633.165 5   -622190.709 9  24091362.313
  24076452.445    18059460.783 5  14059083.390 9  24076462.645
  22162878.508    -7948712.717 7  -6092629.434 9  22162882.223
  21672413.266     6072683.358 7   4766865.398 9  21672417.859
  20756745.594    -5010573.797 7  -3865081.174 9  20756749.473
 94  3 23 20 12 30.0000000  0  7  2 27 16 29 31 18 19
  22232932.680   -11077782.257 7  -8481495.104 9  22232938.211
  20852685.172   -15652704.780 7 -12081512.442 9  20852688.254
  24091412.688     -861330.674 5   -621955.062 9  24091420.637
  24097504.641    18170089.240 5  14145287.027 9  24097514.066
  22171751.680    -7902084.846 7  -6056296.059 9  22171755.172
  21689016.719     6159933.313 7   4834852.297 9  21689021.277
  20758692.664    -5000341.070 7  -3857107.625 9  20758696.660
 94  3 23 20 13  0.0000000  0  7  2 27 16 29 31 18 19
  22223192.711   -11128965.357 7  -8521377.986 9  22223198.113
  20845699.289   -15689414.804 7 -12110117.635 9  20845702.430
  24091572.367     -860491.810 5   -621301.421 9  24091579.285
  24118592.414    18280905.224 5  14231636.834 9  24118601.969
  22180738.086    -7854859.929 7  -6019497.451 9  22180742.152
  21705699.125     6247601.519 7   4903165.112 9  21705703.625
  20760691.875    -4989837.072 8  -3848922.694 9  20760695.566
 94  3 23 20 13 30.0000000  0  6  2 27 16 31 18 19
  22213509.062   -11179854.151 7  -8561031.530 9  22213514.277
  20838759.961   -15725881.341 7 -12138533.101 9  20838763.125
  24091835.906     -859104.590 5   -620220.529 9  24091843.996
  22189836.828    -7807044.916 7  -5982239.031 9  22189840.613
  21722463.500     6335696.941 7   4971810.821 9  21722468.176
  20762745.422    -4979045.896 8  -3840513.992 9  20762748.949
 94  3 23 20 14  0.0000000  0  6  2 27 16 31 18 19
  22203886.953   -11230419.430 7  -8600432.995 9  22203891.875
  20831873.367   -15762071.429 7 -12166733.154 9  20831876.496
  24092202.836     -857175.971 5   -618717.757 9  24092210.738
  22199047.594    -7758644.726 7  -5944524.624 9  22199051.309
  21739308.766     6424219.888 7   5040789.673 9  21739313.395
  20764852.836    -4967970.198 7  -3831883.584 9  20764856.832
 94  3 23 20 14 30.0000000  0  6  2 27 16 31 18 19
  22194329.523   -11280643.965 7  -8639568.941 9  22194334.668
  20825041.555   -15797972.820 7 -12194708.241 9  20825044.613
  24092674.680     -854700.794 5   -616789.105 9  24092681.551
  22208372.063    -7709642.902 7  -5906341.420 9  22208376.352
  21756235.641     6513171.682 7   5110102.682 9  21756240.586
  20767014.617    -4956608.554 7  -3823030.360 9  20767018.309
 94  3 23 20 15  0.0000000  0  6  2 27 16 31 18 19
  22184837.695   -11330524.134 7  -8678436.548 9  22184842.723
  20818260.563   -15833606.219 7 -12222474.511 9  20818263.668
  24093252.438     -851663.213 5   -614422.212 9  24093259.270
  22217810.320    -7660045.842 7  -5867694.386 9  22217814.141
  21773242.961     6602544.890 7   5179744.074 9  21773247.484
  20769227.320    -4944981.730 7  -3813970.505 9  20769231.141
 94  3 23 20 15 30.0000000  0  6  2 27 16 31 18 19
  22175413.063   -11380049.770 7  -8717027.900 9  22175418.055
  20811526.688   -15868993.742 7 -12250049.188 9  20811529.746
  24093938.977     -848056.826 5   -611612.102 9  24093945.492
  22227360.836    -7609857.231 7  -5828586.404 9  22227364.633
  21790329.133     6692332.860 7   5249708.650 9  21790333.879
  20771488.156    -4933101.533 7  -3804713.215 9  20771491.941
 94  3 23 20 16  0.0000000  0  6  2 27 16 31 18 19
  22166052.359   -11429241.162 7  -8755358.793 9  22166057.293
  20804835.641   -15904153.816 7 -12277446.632 9  20804838.781
  24094731.359     -843891.185 5   -608366.193 9  24094738.594
  22237026.570    -7559064.493 7  -5789007.673 9  22237030.484
  21807491.656     6782520.814 7   5319984.903 9  21807496.121
  20773796.742    -4920969.492 7  -3795259.679 9  20773800.633
 94  3 23 20 16 30.0000000  0  6  2 27 16 31 18 19
  22156749.344   -11478128.907 7  -8793453.083 9  22156754.230
  20798184.313   -15939107.750 7 -12304683.446 9  20798187.641
  24095631.703     -839158.021 5   -604678.069 9  24095637.480
  22246810.078    -7507653.177 7  -5748946.930 9  22246813.875
  21824727.148     6873095.723 7   5390562.688 9  21824731.754
  20776157.523    -4908563.411 7  -3785592.607 9  20776161.461
 94  3 23 20 17  0.0000000  0  6  2 27 16 31 18 19
  22147501.484   -11526723.550 7  -8831318.980 9  22147506.828
  20791570.969   -15973860.255 7 -12331763.304 9  20791574.379
  24096640.516     -833858.266 5   -600548.450 9  24096646.961
  22256711.836    -7455619.670 7  -5708401.366 9  22256715.375
  21842036.758     6964055.767 7   5461440.573 9  21842041.445
  20778573.133    -4895869.869 7  -3775701.536 9  20778577.047
 94  3 23 20 17 30.0000000  0  6  2 27 16 31 18 19
  22138306.297   -11575046.566 7  -8868973.222 9  22138311.430
  20784995.273   -16008415.993 7 -12358689.840 9  20784998.730
  24097751.977     -828021.702 5   -596000.550 9  24097757.367
  22266727.656    -7402983.171 7  -5667385.928 9  22266731.406
  21859416.086     7055385.223 7   5532606.310 9  21859420.469
  20781043.500    -4882887.613 7  -3765585.492 9  20781047.297
 94  3 23 20 18  0.0000000  0  6  2 27 16 31 18 19
  22129163.508   -11623090.443 7  -8906409.947 9  22129168.781
  20778464.039   -16042737.901 7 -12385434.169 9  20778467.379
  24098964.844     -821647.106 5   -591033.404 9  24098969.555
  22276858.711    -7349745.081 7  -5625901.717 9  22276862.391
  21876863.641     7147072.400 7   5604050.793 9  21876867.883
  20783571.344    -4869602.581 7  -3755233.521 9  20783575.211
 94  3 23 20 18 30.0000000  0  6  2 27 16 31 18 19
  22120077.242   -11670840.514 7  -8943617.740 9  22120082.363
  20771981.203   -16076806.258 7 -12411980.927 9  20771984.578
  24100280.867     -814733.768 5   -585646.432 9  24100287.418
  22287100.609    -7295925.397 7  -5583964.318 9  22287104.207
  21894380.281     7239121.958 7   5675777.646 9  21894384.652
  20786157.695    -4856013.061 7  -3744644.288 9  20786161.574
 94  3 23 20 19  0.0000000  0  6  2 27 16 31 18 19
  22111049.750   -11718278.403 7  -8980582.272 9  22111054.906
  20765548.734   -16110608.985 7 -12438320.699 9  20765551.980
  24101695.664     -807294.978 5   -579850.009 9  24101702.262
  22297448.438    -7241544.160 7  -5541589.340 9  22297452.445
  21911965.664     7331535.013 7   5747787.734 9  21911970.152
  20788798.250    -4842136.618 7  -3733831.481 9  20788802.070
 94  3 23 20 19 30.0000000  0  6  2 27 16 31 18 19
  22102083.922   -11765393.038 7  -9017294.913 9  22102089.359
  20759168.766   -16144136.750 8 -12464446.209 9  20759171.930
  24103210.477     -799333.205 5   -573646.064 9  24103217.559
  22307905.109    -7186596.191 7  -5498772.751 9  22307908.941
  21929621.117     7424312.901 7   5820082.120 9  21929625.395
  20791492.164    -4827979.028 7  -3722799.598 9  20791496.113
 94  3 23 20 20  0.0000000  0  6  2 27 16 31 18 19
  22093180.219   -11812184.093 7  -9053755.421 9  22093185.398
  20752841.289   -16177387.192 8 -12490355.627 9  20752844.383
  24104826.031     -790844.152 5   -567031.284 9  24104832.664
  22318472.016    -7131066.612 7  -5455502.956 9  22318475.801
  21947346.266     7517459.343 7   5892663.680 9  21947350.836
  20794240.234    -4813538.156 7  -3711546.978 9  20794244.113
 94  3 23 20 20 30.0000000  0  6  2 27 16 31 18 19
  22084336.250   -11858658.966 7  -9089969.547 9  22084341.723
  20746563.844   -16210374.502 8 -12516060.013 9  20746567.008
  24106539.391     -781840.868 5   -560015.830 9  24106545.215
  22329151.422    -7074945.604 7  -5411772.317 9  22329155.301
  21965146.344     7611000.072 7   5965552.479 9  21965151.078
  20797040.023    -4798824.884 8  -3700082.100 9  20797043.727
 94  3 23 20 21  0.0000000  0  6  2 27 16 31 18 19
  22075551.789   -11904821.623 7  -9125940.394 9  22075557.227
  20740333.797   -16243115.128 8 -12541572.173 9  20740336.973
  24108350.352     -772328.171 5   -552603.375 9  24108357.160
  22339944.867    -7018226.292 7  -5367575.464 9  22339948.453
  21983021.078     7704932.833 7   6038746.769 9  21983025.496
  20799889.086    -4783855.288 8  -3688417.490 9  20799892.707
 94  3 23 20 21 30.0000000  0  6  2 27 16 31 18 19
  22066827.008   -11950670.273 7  -9161666.562 9  22066832.387
  20734150.086   -16275608.382 8 -12566891.579 9  20734153.168
  24110259.547     -762294.040 5   -544784.626 9  24110266.617
  22350850.867    -6960914.473 7  -5322916.923 9  22350854.758
  22000971.953     7799263.614 7   6112251.183 9  22000976.559
  20802786.922    -4768624.970 8  -3676549.718 9  20802790.789
 94  3 23 20 22  0.0000000  0  6  2 27 16 31 18 19
  22058161.156   -11996208.475 7  -9197150.810 9  22058166.535
  20728013.906   -16307856.560 8 -12592020.015 9  20728017.012
  24112267.484     -751742.450 5   -536562.661 9  24112274.836
  22361863.773    -6903041.130 7  -5277820.830 9  22361867.688
  22018997.508     7893988.784 7   6186062.917 9  22019001.961
  20805735.086    -4753132.280 8  -3664477.502 9  20805739.059
 94  3 23 20 22 30.0000000  0  6  2 27 16 31 18 19
  22049552.852   -12041446.536 7  -9232401.197 9  22049558.207
  20721921.031   -16339874.262 8 -12616968.860 9  20721924.055
  24114373.273     -740677.975 5   -527941.045 9  24114381.023
  22372976.805    -6844641.159 7  -5232314.380 9  22372980.578
  22037093.766     7989084.569 7   6260163.447 9  22037098.324
  20808729.500    -4737396.393 8  -3652215.779 9  20808733.520
 94  3 23 20 23  0.0000000  0  6  2 27 16 31 18 19
  22041002.055   -12086380.880 7  -9267414.920 9  22041007.094
  20715872.445   -16371659.570 8 -12641736.617 9  20715875.574
  24116583.156     -729065.022 5   -518892.059 9  24116590.555
  22384188.031    -6785727.826 7  -5186407.913 9  22384191.652
  22055256.555     8084529.689 7   6334536.185 9  22055261.313
  20811772.023    -4721407.830 7  -3639757.168 9  20811775.949
 94  3 23 20 23 30.0000000  0  6  2 27 16 31 18 19
  22032506.227   -12131026.120 7  -9302203.369 9  22032511.594
  20709868.953   -16403208.762 8 -12666320.389 9  20709871.941
  24118897.320     -716904.113 5   -509416.081 9  24118904.414
  22395493.750    -6726313.645 7  -5140111.169 9  22395497.523
  22073483.031     8180311.564 7   6409171.317 9  22073487.859
  20814863.594    -4705160.946 7  -3627097.268 9  20814867.730
 94  3 23 20 24  0.0000000  0  6  2 27 16 31 18 19
  22024063.117   -12175394.488 7  -9336776.070 9  22024068.754
  20703910.539   -16434520.019 8 -12690718.756 9  20703913.480
  24121313.797     -704201.421 5   -499517.904 9  24121321.488
  22406899.594    -6666378.081 7  -5093408.166 9  22406903.426
  22091772.320     8276418.996 7   6484060.138 9  22091776.809
  20818005.344    -4688653.268 8  -3614234.149 9  20818009.176
 94  3 23 20 24 30.0000000  0  6  2 27 16 31 18 19
  22015670.750   -12219496.943 7  -9371141.569 9  22015676.000
  20697995.828   -16465601.523 7 -12714938.099 9  20697998.934
  24123833.609     -690964.738 5   -489203.696 9  24123840.844
  22418407.586    -6605901.074 7  -5046283.254 9  22418411.559
  22110120.180     8372838.889 7   6559192.439 9  22110124.973
  20821195.117    -4671890.006 8  -3601171.885 9  20821198.961
 94  3 23 20 25  0.0000000  0  6  2 27 16 31 18 19
  22007330.078   -12263326.956 7  -9405294.775 9  22007335.422
  20692126.109   -16496446.598 7 -12738973.210 9  20692129.285
  24126451.219     -677209.649 5   -478485.504 9  24126458.699
  22430023.578    -6544859.665 7  -4998718.555 9  22430027.375
  22128530.195     8469586.302 7   6634579.933 9  22128535.234
  20824436.352    -4654858.009 8  -3587900.212 9  20824440.148
 94  3 23 20 25 30.0000000  0  6  2 27 16 31 18 19
  21999043.625   -12306873.171 7  -9439226.833 9  21999048.816
  20686304.430   -16527040.523 7 -12762812.622 9  20686307.582
  24129159.438     -662976.862 5   -467395.080 9  24129166.824
  22441749.961    -6483236.675 7  -4950700.665 9  22441753.664
  22147004.547     8566666.580 7   6710226.813 9  22147009.223
  20827731.133    -4637543.943 8  -3574408.743 9  20827734.824
 94  3 23 20 26  0.0000000  0  6  2 27 16 31 18 19
  21990814.797   -12350115.100 7  -9472921.793 9  21990819.824
  20680531.578   -16557376.504 7 -12786451.038 9  20680534.766
  24131958.555     -648266.089 5   -455932.192 9  24131966.375
  22453589.086    -6421022.165 7  -4902221.868 9  22453592.941
  22165543.078     8664087.224 7   6786138.907 9  22165547.953
  20831082.187    -4619933.322 8  -3560686.197 9  20831085.996
 94  3 23 20 26 30.0000000  0  6  2 27 16 31 18 19
  21982644.984   -12393049.181 7  -9506376.875 9  21982649.953
  20674806.430   -16587461.874 7 -12809894.176 9  20674809.547
  24134848.492     -633080.118 5   -444099.042 9  24134856.031
  22465536.414    -6358241.302 7  -4853301.752 9  22465539.719
  22184145.445     8761843.972 7   6862312.883 9  22184150.309
  20834488.719    -4602031.841 8  -3546737.008 9  20834492.645
 94  3 23 20 27  0.0000000  0  6  2 27 16 31 18 19
  21974533.320   -12435675.898 7  -9539592.446 9  21974538.277
  20669128.844   -16617299.404 7 -12833144.189 9  20669131.949
  24137828.461     -617423.881 5   -431899.443 9  24137835.176
  22477586.430    -6294916.589 7  -4803957.850 9  22477589.863
  22202811.328     8859932.708 7   6938745.578 9  22202816.039
  20837948.961    -4583848.280 8  -3532568.021 9  20837952.805
 94  3 23 20 27 30.0000000  0  7  2 27 16  7 31 18 19
  21966481.844   -12477985.965 7  -9572561.274 9  21966486.789
  20663501.023   -16646873.033 7 -12856188.567 9  20663504.070
  24140900.867     -601277.983 5   -419318.288 9  24140908.652
  24227354.477      -58202.85715
  22489739.586    -6231052.129 7  -4754193.377 9  22489743.219
  22221539.312     8958350.202 7   7015434.436 9  22221544.445
  20841464.805    -4565372.069 8  -3518170.989 9  20841468.695
 94  3 23 20 28  0.0000000  0  7  2 27 16  7 31 18 19
  21958489.664   -12519983.808 7  -9605286.819 9  21958494.609
  20657921.922   -16676191.801 7 -12879034.351 9  20657925.109
  24144071.273     -584618.292 5   -406336.779 9  24144079.832
  24207818.234     -160864.603 5     -2663.29919  24207829.137
  22501994.023    -6166653.313 7  -4704012.517 9  22501997.902
  22240331.000     9057099.574 7   7092381.905 9  22240336.156
  20845034.641    -4546612.799 8  -3503553.395 9  20845038.484
 94  3 23 20 28 30.0000000  0  7  2 27 16  7 31 18 19
  21950555.328   -12561678.843 7  -9637776.409 9  21950560.191
  20652391.102   -16705257.152 7 -12901682.665 9  20652394.160
  24147339.016     -567440.930 5   -392951.895 9  24147347.586
  24188297.172     -263448.804 5    -82598.883 9  24188307.922
  22514350.703    -6101718.379 7  -4653413.903 9  22514354.430
  22259186.664     9156185.486 7   7169591.607 9  22259191.715
  20848656.148    -4527582.044 8  -3488724.253 9  20848659.945
 94  3 23 20 29  0.0000000  0  7  2 27 16  7 31 18 19
  21942676.266   -12603083.057 7  -9670039.374 9  21942681.035
  20646909.398   -16734060.894 7 -12924127.129 9  20646912.563
  24150706.383     -549753.085 5   -379169.244 9  24150714.250
  24168791.008     -365956.905 5   -162475.119 9  24168801.488
  22526807.664    -6036256.382 7  -4602404.594 9  22526811.660
  22278102.664     9255589.421 7   7247049.130 9  22278107.469
  20852328.133    -4508286.175 8  -3473688.526 9  20852332.047
 94  3 23 20 29 30.0000000  0  7  2 27 16  7 31 18 19
  21934852.516   -12644197.577 7  -9702076.612 9  21934857.344
  20641478.289   -16762602.544 7 -12946367.361 9  20641481.324
  24154170.406     -531545.673 5   -364981.728 9  24154178.766
  24149299.047     -468384.610 5   -242288.734 9  24149309.633
  22539365.711    -5970263.991 7  -4550981.992 9  22539369.695
  22297076.445     9355297.236 7   7324743.438 9  22297081.543
  20856051.461    -4488719.991 8  -3458442.160 9  20856055.316
 94  3 23 20 30  0.0000000  0  7  2 27 16  7 31 18 19
  21927082.242   -12685030.770 7  -9733894.633 9  21927087.000
  20636096.055   -16790886.777 7 -12968407.009 9  20636098.973
  24157733.945     -512821.966 5   -350391.902 9  24157741.473
  24129824.289     -570722.707 5   -322032.496 9  24129834.266
  22552023.320    -5903747.786 7  -4499151.217 9  22552027.223
  22316107.227     9455303.975 7   7402670.658 9  22316112.430
  20859824.711    -4468890.354 8  -3442990.513 9  20859828.590
 94  3 23 20 30 30.0000000  0  7  2 27 16  7 31 18 19
  21919361.766   -12725601.962 7  -9765508.501 9  21919366.324
  20630764.266   -16818905.084 7 -12990239.447 9  20630767.266
  24161391.961     -493594.218 5   -335409.303 9  24161400.449
  24110364.750     -672982.874 5   -401715.514 9  24110375.301
  22564777.281    -5836725.108 7  -4446925.794 9  22564780.961
  22335191.180     9555589.999 7   7480815.510 9  22335195.984
  20863648.898    -4448795.725 8  -3427332.378 9  20863652.637
 94  3 23 20 31  0.0000000  0  7  2 27 16  7 31 18 19
  21911694.297   -12765895.181 7  -9796905.766 9  21911698.938
  20625486.891   -16846637.769 7 -13011849.319 9  20625489.926
  24165147.156     -473859.615 5   -320031.763 9  24165155.574
  24090921.016     -775161.156 5   -481334.714 9  24090931.320
  22577629.125    -5769189.139 7  -4394300.390 9  22577633.039
  22354329.875     9656166.569 7   7559186.763 9  22354334.867
  20867528.445    -4428408.327 8  -3411446.114 9  20867532.336
 94  3 23 20 31 30.0000000  0  7  2 27 16  7 31 18 19
  21904079.609   -12805910.526 7  -9828086.510 9  21904084.168
  20620260.672   -16874101.791 7 -13033249.851 9  20620263.848
  24168995.742     -453636.470 5   -304273.554 9  24169004.441
  24071489.734     -877272.522 5   -560901.744 9  24071500.156
  22590578.266    -5701142.329 7  -4341276.945 9  22590581.910
  22373528.742     9757057.143 6   7637802.686 9  22373533.980
  20871463.125    -4407730.024 7  -3395333.169 9  20871467.004
 94  3 23 20 32  0.0000000  0  7  2 27 16  7 31 18 19
  21896514.125   -12845665.514 7  -9859064.370 9  21896518.684
  20615084.289   -16901304.062 7 -13054446.417 9  20615087.312
  24172931.742     -432951.504 5   -288155.463 9  24172940.441
  24052069.320     -979325.403 5   -640423.217 9  24052079.848
  22603621.250    -5632599.301 7  -4287866.831 9  22603625.188
  22392789.242     9858269.213 7   7716669.132 9  22392794.234
  20875450.555    -4386777.388 8  -3379006.453 9  20875454.516
 94  3 23 20 32 30.0000000  0  7  2 27 16  7 31 18 19
  21888999.906   -12885153.715 7  -9889834.357 9  21889004.617
  20609959.242   -16928236.739 7 -13075432.914 9  20609962.242
  24176956.109     -411800.023 5   -271673.907 9  24176965.418
  24032661.055    -1081312.150 5   -719893.143 9  24032671.805
  22616760.844    -5563551.501 7  -4234063.391 9  22616764.793
  22412113.938     9959821.760 7   7795800.879 9  22412118.813
  20879490.289    -4365548.563 8  -3362464.522 9  20879494.238
 94  3 23 20 33  0.0000000  0  7  2 27 16  7 31 18 19
  21881540.391   -12924353.533 7  -9920379.620 9  21881544.996
  20604882.898   -16954913.220 7 -13096219.778 9  20604885.816
  24181069.859     -390188.078 4   -254833.503 9  24181077.680
  24013268.539    -1183222.269 5   -799303.372 9  24013278.785
  22629996.953    -5493995.838 7  -4179864.206 9  22630000.797
  22431504.984    10061721.372 7   7875203.068 9  22431510.141
  20883580.477    -4344053.978 8  -3345715.511 9  20883584.355
 94  3 23 20 33 30.0000000  0  7  2 27 16  7 31 18 19
  21874136.750   -12963258.334 7  -9950695.011 9  21874141.332
  20599854.305   -16981338.818 7 -13116811.156 9  20599857.293
  24185273.805     -368096.942 4   -237619.658 8  24185282.539
  23993895.656    -1285025.993 5   -878630.655 9  23993906.547
  22643330.539    -5423927.370 7  -4125265.441 9  22643334.488
  22450960.242    10163959.259 7   7954868.851 9  22450965.070
  20887721.117    -4322294.966 8  -3328760.446 9  20887725.043
 94  3 23 20 34  0.0000000  0  7  2 27 16  7 31 18 19
  21866787.797   -13001878.799 7  -9980788.841 9  21866792.391
  20594872.063   -17007519.861 7 -13137211.965 9  20594875.121
  24189567.281     -345525.607 3   -220031.723 9  24189577.023
  23974544.914    -1386714.386 5   -957868.123 9  23974554.855
  22656760.688    -5353351.776 7  -4070271.506 9  22656764.461
  22470471.969    10266494.974 6   8034766.708 9  22470477.148
  20891912.070    -4300270.205 8  -3311598.305 9  20891916.055
 94  3 23 20 34 30.0000000  0  7  2 27 16  7 31 18 19
  21859494.969   -13040201.225 7 -10010650.436 9  21859499.738
  20589936.188   -17033458.353 7 -13157423.777 9  20589939.363
  24193955.234     -322467.422 3   -202064.365 9  24193964.285
  23955217.125    -1488281.817 5  -1037011.313 9  23955226.516
  22670287.727    -5282265.917 7  -4014879.968 9  22670291.617
  22490037.000    10369306.258 7   8114879.295 9  22490042.098
  20896156.172    -4277968.640 7  -3294220.473 9  20896160.168
 94  3 23 20 35  0.0000000  0  7  2 27 16  7 31 18 19
  21852258.945   -13078226.350 7 -10040280.363 9  21852263.738
  20585045.469   -17059159.467 7 -13177450.615 9  20585048.598
  24198436.352     -298920.669 3   -183716.315 8  24198446.832
  23935912.328    -1589724.963 5  -1116057.659 9  23935922.258
  22683911.094    -5210674.636 7  -3959094.594 9  22683915.102
  22509649.242    10472370.000 7   8195188.596 9  22509654.105
  20900454.414    -4255380.684 7  -3276619.477 9  20900458.363
 94  3 23 20 35 30.0000000  0  7  2 27 16  7 31 18 19
  21845075.797   -13115974.416 7 -10069694.399 9  21845080.813
  20580201.680   -17084614.245 7 -13197285.504 9  20580204.891
  24203012.141     -274879.426 3   -164982.974 9  24203022.023
  23916629.719    -1691055.565 5  -1195016.313 9  23916639.965
  22697630.078    -5138581.603 7  -3902918.241 9  22697634.039
  22529308.203    10575678.870 6   8275688.909 9  22529313.605
  20904810.078    -4232490.741 8  -3258783.165 9  20904813.922
 94  3 23 20 36  0.0000000  0  7  2 27 16  7 31 18 19
  21837946.164   -13153441.287 7 -10098889.326 9  21837951.098
  20575411.078   -17109788.982 7 -13216902.176 9  20575414.313
  24207678.875     -250352.345 3   -145871.044 9  24207688.160
  23897366.547    -1792279.871 5  -1273892.116 9  23897376.688
  22711445.063    -5065983.183 7  -3846348.087 9  22711449.059
  22549016.492    10679245.281 6   8356389.902 9  22549021.801
  20909225.875    -4209285.513 7  -3240701.177 9  20909229.848
 94  3 23 20 36 30.0000000  0  7  2 27 16  7 31 18 19
  21830868.992   -13190632.048 7 -10127869.099 9  21830873.809
  20570676.148   -17134670.519 7 -13236290.383 9  20570679.395
  24212437.672     -225342.771 3   -126383.132 9  24212447.543
  23878124.563    -1893398.933 5  -1352685.937 9  23878133.918
  22725354.461    -4992889.232 7  -3789391.801 9  22725358.445
  22568774.141    10783072.775 6   8437294.333 9  22568780.012
  20913697.781    -4185787.631 8  -3222391.148 9  20913701.613
 94  3 23 20 37  0.0000000  0  7  2 27 16  7 31 18 19
  21823841.922   -13227559.465 7 -10156643.676 9  21823846.750
  20565998.766   -17159249.448 7 -13255442.794 9  20566001.988
  24217291.797     -199847.546 4   -106516.813 9  24217300.379
  23858902.828    -1994412.290 5  -1431397.389 9  23858912.746
  22739353.961    -4919321.195 7  -3732066.108 9  22739358.168
  22588582.938    10887169.780 6   8518408.753 9  22588588.773
  20918224.023    -4162001.439 8  -3203856.460 9  20918227.844
 94  3 23 20 37 30.0000000  0  7  2 27 16  7 31 18 19
  21816863.336   -13264232.106 7 -10185219.721 9  21816867.871
  20561380.602   -17183517.494 7 -13274352.954 9  20561383.777
  24222231.461     -173886.316 4    -86287.367 9  24222240.898
  23839698.258    -2095329.450 5  -1510033.854 9  23839707.473
  22753440.211    -4845297.862 7  -3674385.632 9  22753444.359
  22608443.672    10991536.356 6   8599733.239 9  22608449.109
  20922803.117    -4137938.078 8  -3185105.799 9  20922806.973
 94  3 23 20 38  0.0000000  0  7  2 27 16  7 31 18 19
  21809934.672   -13300642.615 7 -10213591.512 9  21809939.055
  20556821.984   -17207474.105 7 -13293020.438 9  20556825.078
  24227258.922     -147469.264 4    -65702.707 9  24227268.102
  23820516.359    -2196129.482 5  -1588579.063 9  23820525.727
  22767612.805    -4770819.643 7  -3616350.688 9  22767616.906
  22628354.125    11096165.584 6   8681262.391 9  22628359.926
  20927431.523    -4113615.880 7  -3166153.453 9  20927435.484
 94  3 23 20 38 30.0000000  0  7  2 27 16  7 31 18 19
  21803058.453   -13336776.684 7 -10241747.897 9  21803063.059
  20552319.211   -17231136.835 7 -13311458.927 9  20552322.305
  24232375.164     -120582.560 5    -44752.132 9  24232383.734
  23801360.531    -2296793.203 5  -1667018.066 9  23801368.820
  22781873.297    -4695881.814 6  -3557957.616 9  22781877.445
  22648317.594    11201074.919 6   8763009.792 9  22648323.020
  20932108.242    -4089038.938 7  -3147002.609 9  20932112.191
 94  3 23 20 39  0.0000000  0  7  2 27 16  7 31 18 19
  21796238.000   -13372619.238 7 -10269677.125 9  21796242.547
  20547871.727   -17254508.457 7 -13329670.580 9  20547874.809
  24237578.258      -93234.386 4    -23441.953 9  24237586.688
  23782231.367    -2397319.586 6  -1745350.011 9  23782240.453
  22796223.773    -4620468.493 6  -3499194.029 9  22796228.215
  22668336.977    11306276.621 6   8844985.016 9  22668342.332
  20936838.438    -4064181.595 7  -3127633.276 9  20936842.445
 94  3 23 20 39 30.0000000  0  7  2 27 16  7 31 18 19
  21789472.016   -13408174.355 7 -10297382.371 9  21789476.633
  20543474.156   -17277617.968 8 -13347677.993 9  20543477.121
  24242863.086      -65468.748 5     -1806.493 9  24242871.105
  23763124.523    -2497722.864 5  -1823586.059 9  23763133.621
  22810666.703    -4544568.996 6  -3440051.607 9  22810671.004
  22688408.906    11411754.159 6   8927175.183 9  22688413.910
  20941617.992    -4039064.704 7  -3108061.692 9  20941622.082
 94  3 23 20 40  0.0000000  0  7  2 27 16  7 31 18 19
  21782763.547   -13443427.319 7 -10324852.179 9  21782768.117
  20539125.547   -17300471.300 7 -13365485.779 9  20539128.465
  24248228.750      -37271.863 5     20165.076 9  24248238.012
  23744044.297    -2597989.001 5  -1901715.232 9  23744053.031
  22825205.711    -4468169.699 6  -3380519.734 9  22825209.766
  22708535.805    11517519.216 6   9009589.379 9  22708541.336
  20946447.711    -4013684.452 7  -3088284.898 9  20946451.625
 94  3 23 20 40 30.0000000  0  7  2 27 16  7 31 18 19
  21776113.406   -13478373.288 7 -10352082.769 9  21776118.094
  20534826.891   -17323060.059 7 -13383087.412 9  20534829.937
  24253677.695       -8637.131 5     42477.741 9  24253686.078
  23724989.195    -2698124.643 5  -1979742.691 9  23724997.414
  22839838.180    -4391273.366 6  -3320600.551 9  22839842.434
  22728719.000    11623583.516 6   9092236.742 9  22728724.156
  20951330.008    -3988027.764 7  -3068292.694 9  20951333.828
 94  3 23 20 41  0.0000000  0  7  2 27 16  7 31 18 19
  21769516.172   -13513041.693 7 -10379097.072 9  21769520.730
  20530578.305   -17345386.281 7 -13400484.466 9  20530581.352
  24259206.258       20416.058 5     65116.568 8  24259214.582
  23705953.633    -2798156.808 5  -2057689.529 9  23705961.898
  22854559.695    -4313911.525 6  -3260318.631 9  22854564.148
  22748951.992    11729907.762 6   9175086.678 9  22748957.078
  20956266.195    -3962087.998 7  -3048079.907 9  20956270.133
 94  3 23 20 41 30.0000000  0  7  2 27 16  7 31 18 19
  21762973.414   -13547424.881 7 -10405889.138 9  21762977.891
  20526380.672   -17367446.648 7 -13417674.363 9  20526383.637
  24264821.578       49923.806 4     88109.556 9  24264829.375
  23686939.938    -2898069.659 5  -2135543.387 9  23686948.332
  22869367.516    -4236095.602 6  -3199682.885 9  22869371.793
  22769234.391    11836494.663 6   9258141.281 9  22769239.770
  20961258.617    -3935853.221 7  -3027637.241 9  20961262.391
 94  3 23 20 42  0.0000000  0  7  2 27 16  7 31 18 19
  21756483.625   -13581529.452 7 -10432464.094 9  21756488.008
  20522236.602   -17389222.815 7 -13434642.803 9  20522239.613
  24270528.094       79907.858 5    111473.650 9  24270536.711
  23667950.586    -2997857.861 5  -2213300.099 9  23667959.672
  22884258.695    -4157842.002 6  -3138706.096 9  22884262.984
  22789566.922    11943338.844 6   9341396.348 9  22789572.348
  20966309.242    -3909311.927 7  -3006955.736 9  20966313.074
 94  3 23 20 42 30.0000000  0  7  2 27 16  7 31 18 19
  21750042.164   -13615379.606 7 -10458840.803 9  21750046.266
  20518143.961   -17410729.790 7 -13451401.487 9  20518147.113
  24276321.047      110349.443 5    135194.265 8  24276328.668
  23648983.180    -3097532.904 5  -2290968.636 9  23648991.457
  22899230.969    -4079166.495 6  -3077400.536 9  22899234.848
  22809940.180    12050401.972 6   9424822.022 9  22809945.676
  20971418.109    -3882463.589 7  -2986034.977 9  20971422.082
 94  3 23 20 43  0.0000000  0  7  2 27 16  7 31 18 19
  21743648.227   -13648978.188 7 -10485021.482 9  21743652.504
  20514102.484   -17431966.695 7 -13467949.717 9  20514105.578
  24282202.766      141261.080 5    159281.226 7  24282207.805
  23630040.773    -3197074.067 5  -2368532.852 9  23630049.660
  22914285.766    -4000052.276 6  -3015753.130 9  22914289.938
  22830353.867    12157677.687 6   9508413.353 9  22830359.398
  20976587.383    -3855299.440 7  -2964868.128 9  20976591.473
 94  3 23 20 43 30.0000000  0  7  2 27 16  7 31 18 19
  21737305.063   -13682311.042 7 -10510995.098 9  21737309.504
  20510114.141   -17452926.527 7 -13484282.047 9  20510117.270
  24288174.930      172644.259 5    183735.602 9  24288182.410
  23611128.656    -3296455.699 6  -2445972.796 9  23611137.637
  22929429.320    -3920470.678 6  -2953741.517 9  22929433.504
  22850809.852    12265173.364 6   9592176.086 9  22850815.418
  20981813.438    -3827835.956 7  -2943468.031 9  20981817.492
 94  3 23 20 44  0.0000000  0  7  2 27 16  7 31 18 19
  21731011.742   -13715383.089 7 -10536765.490 9  21731016.277
  20506182.922   -17473584.795 7 -13500379.386 9  20506185.852
  24294233.773      204484.711 5    208546.265 8  24294242.273
  23592249.844    -3395665.238 5  -2523278.620 9  23592258.250
  22944665.859    -3840402.277 6  -2891350.589 9  22944670.137
  22871306.031    12372881.304 6   9676104.198 9  22871311.574
  20987095.297    -3800081.055 7  -2921840.857 9  20987099.234
 94  3 23 20 44 30.0000000  0  7  2 27 16  7 31 18 19
  21724767.523   -13748195.639 7 -10562333.673 9  21724771.965
  20502308.820   -17493942.873 7 -13516242.820 9  20502311.656
  24300379.266      236778.890 5    233710.481 8  24300386.980
  23573404.922    -3494695.238 6  -2600444.544 9  23573413.457
  22959995.227    -3759844.213 6  -2828578.099 9  22959999.680
  22891843.320    12480803.721 6   9760199.429 9  22891849.566
  20992430.758    -3772042.884 7  -2899992.954 9  20992434.473
 94  3 23 20 45  0.0000000  0  7  2 27 16  7 31 18 19
  21718575.297   -13780735.387 7 -10587689.283 9  21718579.785
  20498495.258   -17513982.495 7 -13531858.101 9  20498498.258
  24306611.453      269525.498 5    259227.264 8  24306619.098
  23554593.578    -3593548.309 6  -2677472.645 9  23554601.551
  22975417.305    -3678801.766 6  -2765428.165 9  22975421.523
  22912424.750    12588959.744 6   9844476.707 9  22912430.352
  20997817.039    -3743738.156 7  -2877937.340 9  20997820.871
 94  3 23 20 45 30.0000000  0  7  2 27 16  7 31 18 19
  21712438.164   -13812986.997 7 -10612820.373 9  21712442.594
  20494743.406   -17533699.873 7 -13547222.286 9  20494746.488
  24312926.953      302716.066 5    285089.992 7  24312933.445
  23535815.398    -3692225.254 6  -2754363.510 9  23535823.453
  22990928.625    -3597290.302 6  -2701912.789 9  22990932.984
  22933052.227    12697358.155 6   9928942.856 9  22933058.156
  21003254.102    -3715165.578 7  -2855673.012 9  21003258.156
 94  3 23 20 46  0.0000000  0  7  2 27 16  7 31 18 19
  21706351.281   -13844974.345 7 -10637745.547 9  21706355.582
  20491051.797   -17553100.021 7 -13562339.280 9  20491054.891
  24319326.711      336342.716 5    311292.512 7  24319334.438
  23517067.633    -3790744.918 6  -2831131.827 9  23517076.109
  23006524.945    -3515333.292 6  -2638050.214 9  23006529.199
  22953726.164    12805999.232 6  10013598.073 9  22953733.281
  21008740.852    -3686332.976 7  -2833206.069 9  21008744.895
 94  3 23 20 46 30.0000000  0  7  2 27 16  7 31 18 19
  21700314.352   -13876696.811 7 -10662464.324 9  21700318.734
  20487415.953   -17572204.244 7 -13577225.677 9  20487419.117
  24325805.664      370394.416 5    337826.257 9  24325814.246
  23498346.352    -3889124.190 6  -2907790.760 9  23498354.547
  23022203.266    -3432943.437 6  -2573850.385 9  23022207.238
  22974446.133    12914881.251 6  10098441.042 9  22974452.637
  21014278.453    -3657231.813 7  -2810529.861 9  21014282.660
 94  3 23 20 47  0.0000000  0  7  2 27 16  7 31 18 19
  21694328.344   -13908154.927 7 -10686977.116 9  21694332.539
  20483834.273   -17591025.922 7 -13591891.925 9  20483837.555
  24332363.898      404860.955 5    364683.202 9  24332373.371
  23479650.813    -3987371.154 6  -2984346.607 9  23479658.574
  23037962.234    -3350127.831 6  -2509318.788 9  23037966.793
  22995210.414    13023997.383 6  10183466.457 9  22995216.895
  21019869.711    -3627850.445 7  -2787635.313 9  21019873.801
 94  3 23 20 47 30.0000000  0  7  2 27 16  7 31 18 19
  21688391.602   -13939352.690 7 -10711287.034 9  21688395.645
  20480306.961   -17609563.442 7 -13606336.743 9  20480310.148
  24339002.828      439739.596 5    391861.299 9  24339011.598
  23460983.023    -4085470.163 6  -3060787.215 9  23460990.680
  23053804.461    -3266873.191 6  -2444445.096 9  23053809.078
  23016017.609    13133342.374 6  10268670.181 9  23016024.430
  21025517.367    -3598171.642 7  -2764508.999 9  21025521.352
 94  3 23 20 48  0.0000000  0  6  2 27  7 31 18 19
  21682504.164   -13970292.324 7 -10735395.813 9  21682508.395
  20476834.438   -17627811.897 7 -13620556.321 9  20476837.625
  23442343.086    -4183427.311 6  -3137117.274 9  23442350.508
  23069732.852    -3183173.138 6  -2379224.329 9  23069737.082
  23036866.516    13242904.843 6  10354043.382 9  23036873.656
  21031223.883    -3568182.810 7  -2741141.100 9  21031227.855
 94  3 23 20 48 30.0000000  0  6  2 27  7 31 18 19
  21676668.813   -14000955.511 7 -10759289.179 9  21676673.348
  20473414.930   -17645781.651 7 -13634558.727 9  20473418.234
  23423729.922    -4281235.235 6  -3213331.068 9  23423737.414
  23085743.422    -3099036.394 6  -2313663.290 9  23085747.875
  23057755.047    13352669.317 6  10439573.980 9  23057761.375
  21036992.320    -3537870.847 7  -2717521.405 9  21036996.363
 94  3 23 20 49  0.0000000  0  6  2 27  7 31 18 19
  21670889.469   -14031327.887 7 -10782955.942 9  21670893.852
  20470052.688   -17663450.519 7 -13648326.676 9  20470055.852
  23405152.148    -4378862.964 6  -3289404.483 9  23405159.090
  23101836.727    -3014466.092 6  -2247764.396 9  23101840.805
  23078684.180    13462653.574 6  10525275.829 9  23078691.086
  21042820.625    -3507243.391 7  -2693655.877 9  21042824.715
 94  3 23 20 49 30.0000000  0  6  2 27  7 31 18 19
  21665162.984   -14061420.206 7 -10806404.477 9  21665167.438
  20466750.281   -17680804.726 7 -13661849.435 9  20466753.375
  23386607.781    -4476313.680 6  -3365339.973 9  23386614.676
  23118009.234    -2929479.489 6  -2181541.133 9  23118013.430
  23099653.797    13572851.859 6  10611144.481 9  23099661.230
  21048707.383    -3476308.668 7  -2669550.925 9  21048711.379
 94  3 23 20 50  0.0000000  0  6  2 27  7 31 18 19
  21659487.961   -14091242.130 7 -10829642.315 9  21659492.297
  20463505.125   -17697857.641 7 -13675137.424 9  20463508.219
  23368096.602    -4573587.622 6  -3441137.714 9  23368104.563
  23134256.734    -2844096.525 6  -2115009.013 9  23134261.047
  23120664.656    13683260.339 6  10697176.878 9  23120672.172
  21054651.281    -3445073.096 7  -2645211.534 9  21054655.125
 94  3 23 20 50 30.0000000  0  6  2 27  7 31 18 19
  21653864.094   -14120794.953 7 -10852670.467 9  21653868.453
  20460319.188   -17714601.211 7 -13688184.364 9  20460322.129
  23349621.547    -4670675.489 6  -3516790.455 9  23349629.707
  23150579.102    -2758324.078 6  -2048173.400 9  23150583.109
  23141717.117    13793891.318 6  10783382.651 9  23141724.035
  21060650.383    -3413547.389 7  -2620646.070 9  21060654.344
 94  3 23 20 51  0.0000000  0  6  2 27  7 31 18 19
  21648289.008   -14150092.461 7 -10875499.660 9  21648293.379
  20457194.156   -17731022.060 7 -13700979.832 9  20457197.191
  23331180.992    -4767582.445 6  -3592302.227 9  23331188.520
  23166975.602    -2672161.314 6  -1981033.650 9  23166979.785
  23162810.984    13904744.582 6  10869761.649 9  23162818.406
  21066703.820    -3381737.144 7  -2595858.894 9  21066707.805
 94  3 23 20 51 30.0000000  0  6  2 27  7 31 18 19
  21642759.297   -14179150.512 7 -10898142.270 9  21642763.715
  20454130.336   -17747123.526 7 -13713526.432 9  20454133.465
  23312771.836    -4864322.389 6  -3667683.888 9  23312779.492
  23183447.297    -2585598.129 6  -1913581.872 9  23183451.832
  23183944.891    14015798.112 6  10956296.707 9  23183951.090
  21072814.016    -3349628.268 7  -2570839.015 9  21072817.836
 94  3 23 20 52  0.0000000  0  6  2 27  7 31 18 19
  21637277.055   -14207959.260 7 -10920590.605 9  21637281.344
  20451124.391   -17762917.700 7 -13725833.585 9  20451127.637
  23294395.141    -4960888.424 6  -3742929.998 9  23294403.137
  23199998.000    -2498626.191 6  -1845811.598 9  23200002.406
  23205114.078    14127044.573 6  11042982.063 9  23205120.922
  21078979.734    -3317227.066 7  -2545591.346 9  21078983.637
 94  3 23 20 52 30.0000000  0  6  2 27  7 31 18 19
  21631842.039   -14236522.628 7 -10942847.751 9  21631846.387
  20448178.680   -17778399.816 7 -13737897.578 9  20448181.844
  23276051.273    -5057288.008 6  -3818046.403 9  23276059.375
  23216627.219    -2411239.340 6  -1777718.001 9  23216631.648
  23226320.852    14238485.333 6  11129818.863 9  23226327.637
  21085200.898    -3284535.719 7  -2520117.593 9  21085204.730
 94  3 23 20 53  0.0000000  0  6  2 27  7 31 18 19
  21626453.195   -14264841.170 7 -10964914.114 9  21626457.508
  20445289.805   -17793580.701 7 -13749726.840 9  20445292.781
  23257741.953    -5153502.624 6  -3893018.650 9  23257749.867
  23233337.422    -2323429.028 6  -1709294.444 9  23233341.922
  23247564.141    14350114.724 6  11216802.625 9  23247570.598
  21091478.539    -3251546.148 7  -2494411.457 9  21091482.453
 94  3 23 20 53 30.0000000  0  6  2 27  7 31 18 19
  21621114.242   -14292895.939 7 -10986774.943 9  21621118.578
  20442456.844   -17808467.832 7 -13761327.201 9  20442460.055
  23239470.570    -5249517.718 6  -3967835.470 9  23239478.402
  23250128.688    -2235188.675 6  -1640535.782 9  23250133.258
  23268844.461    14461947.121 6  11303944.575 9  23268851.367
  21097814.406    -3218250.005 7  -2468466.436 9  21097818.309
 94  3 23 20 54  0.0000000  0  6  2 27  7 31 18 19
  21615824.883   -14320691.841 7 -11008434.059 9  21615829.313
  20439678.258   -17823069.078 7 -13772704.795 9  20439681.352
  23221237.234    -5345334.964 6  -4042498.110 9  23221244.762
  23266998.758    -2146533.882 6  -1571454.182 9  23267003.328
  23290164.680    14573984.118 6  11391245.952 9  23290172.312
  21104206.875    -3184658.347 7  -2442291.149 9  21104210.883
 94  3 23 20 54 30.0000000  0  6  2 27  7 31 18 19
  21610583.289   -14348236.767 7 -11029897.607 9  21610587.684
  20436956.945   -17837370.060 7 -13783848.406 9  20436959.957
  23203041.406    -5440954.038 6  -4117006.299 9  23203048.723
  23283948.156    -2057463.952 6  -1502049.106 9  23283952.949
  23311523.000    14686218.811 6  11478701.368 9  23311530.270
  21110655.320    -3150769.739 7  -2415884.467 9  21110659.621
 94  3 23 20 55  0.0000000  0  6  2 27  7 31 18 19
  21605391.563   -14375518.912 7 -11051156.380 9  21605396.063
  20434295.125   -17851357.759 7 -13794747.918 9  20434298.266
  23184883.344    -5536374.096 6  -4191359.415 9  23184890.250
  23300973.734    -1967995.736 6  -1432333.669 9  23300978.434
  23332911.875    14798623.713 6  11566289.408 9  23332919.953
  21117161.055    -3116582.447 7  -2389245.045 9  21117165.133
 94  3 23 20 55 30.0000000  0  6  2 27  7 31 18 19
  21600253.203   -14402520.232 7 -11072196.333 9  21600257.750
  20431699.414   -17864998.914 7 -13805377.384 9  20431702.285
  23166764.148    -5631590.175 6  -4265553.609 9  23166771.547
  23318076.023    -1878123.144 6  -1362303.133 9  23318080.512
  23354335.063    14911200.307 6  11654011.231 9  23354341.992
  21123727.031    -3082078.903 7  -2362359.186 9  21123730.969
 94  3 23 20 56  0.0000000  0  6  2 27  7 31 18 19
  21595164.594   -14429260.544 7 -11093032.903 9  21595169.164
  20429170.734   -17878287.129 7 -13815731.836 9  20429173.652
  23148683.492    -5726603.542 6  -4339589.820 9  23148690.703
  23335251.188    -1787866.813 6  -1291973.590 9  23335255.113
  23375785.070    15023919.095 6  11741843.859 9  23375792.656
  21130351.422    -3047267.625 7  -2335233.534 9  21130355.430
 94  3 23 20 56 30.0000000  0  6  2 27  7 31 18 19
  21590129.375   -14455721.436 7 -11113651.748 9  21590133.957
  20426710.328   -17891216.601 7 -13825806.747 9  20426713.105
  23130644.906    -5821396.716 6  -4413454.465 9  23130651.223
  23352497.078    -1697240.235 6  -1221355.532 9  23352501.320
  23397262.188    15136783.843 6  11829790.237 9  23397269.516
  21137035.922    -3012140.805 7  -2307862.008 9  21137039.801
 94  3 23 20 57  0.0000000  0  6  2 27  7 31 18 19
  21585147.727   -14481902.245 8 -11134052.348 9  21585151.875
  20424314.805   -17903805.640 8 -13835616.392 9  20424317.664
  23112645.930    -5915981.102 6  -4487156.403 9  23112652.918
  23369808.133    -1606270.280 6  -1150469.921 9  23369812.703
  23418767.414    15249792.310 6  11917848.580 9  23418775.141
  21143777.266    -2976715.364 7  -2280257.791 9  21143781.250
 94  3 23 20 57 30.0000000  0  6  2 27  7 31 18 19
  21580217.063   -14507811.576 8 -11154241.409 9  21580221.188
  20421979.852   -17916075.332 7 -13845177.195 9  20421982.863
  23094689.711    -6010341.890 6  -4560684.120 9  23094696.449
  23387185.508    -1514951.208 6  -1079312.276 9  23387189.797
  23440304.008    15362967.330 6  12006036.664 9  23440312.637
  21150572.891    -2941003.370 7  -2252430.287 9  21150576.828
 94  3 23 20 58  0.0000000  0  6  2 27  7 31 18 19
  21575335.203   -14533465.852 7 -11174231.727 9  21575339.340
  20419704.539   -17928032.716 7 -13854494.639 9  20419707.422
  23076776.500    -6104473.691 6  -4634033.410 9  23076783.465
  23404629.492    -1423284.488 6  -1007883.723 9  23404633.688
  23461875.789    15476325.685 6  12094367.689 9  23461883.199
  21157419.391    -2905023.643 7  -2224394.161 9  21157423.387
 94  3 23 20 58 30.0000000  0  6  2 27  7 31 18 19
  21570502.930   -14558859.657 7 -11194019.085 9  21570507.125
  20417487.641   -17939683.293 7 -13863573.014 9  20417490.734
  23058906.648    -6198379.877 6  -4707206.877 9  23058913.965
  23422143.508    -1331247.797 6   -936166.891 9  23422147.680
  23483485.820    15589883.970 6  12182854.434 9  23483493.488
  21164317.266    -2868774.836 7  -2196148.357 9  21164321.625
 94  3 23 20 59  0.0000000  0  6  2 27  7 31 18 19
  21565714.898   -14584020.576 7 -11213624.975 9  21565718.965
  20415327.461   -17951033.873 7 -13872417.628 9  20415330.660
  23041078.102    -6292069.992 6  -4780211.983 9  23041084.805
  23439730.211    -1238827.111 6   -864150.835 9  23439734.746
  23505131.078    15703633.441 6  12271490.199 9  23505138.160
  21171266.102    -2832259.863 7  -2167695.164 9  21171270.168
 94  3 23 20 59 30.0000000  0  6  2 27  7 31 18 19
  21560969.398   -14608958.466 7 -11233057.073 9  21560973.500
  20413225.711   -17962077.482 7 -13881023.044 9  20413228.828
  23023294.648    -6385524.250 6  -4853033.308 9  23023301.504
  23457392.266    -1146014.086 6   -791829.081 9  23457396.402
  23526814.531    15817575.640 6  12360276.068 9  23526822.234
  21178270.484    -2795452.087 7  -2139013.801 9  21178274.352
 94  3 23 21  0  0.0000000  0  6  2 27  7 31 18 19
  21556265.602   -14633675.911 7 -11252317.397 9  21556269.832
  20411184.867   -17972802.523 7 -13889380.221 9  20411187.926
  23005551.078    -6478763.774 6  -4925687.317 9  23005557.973
  23475126.453    -1052820.391 6   -719210.687 9  23475131.387
  23548528.406    15931686.006 6  12449193.039 9  23548535.617
  21185334.680    -2758329.944 7  -2110087.479 9  21185338.641
 94  3 23 21  0 30.0000000  0  6  2 27  7 31 18 19
  21551605.727   -14658165.104 7 -11271399.863 9  21551609.875
  20409203.016   -17983216.750 7 -13897495.206 9  20409206.355
  22987847.781    -6571795.343 6  -4998179.262 9  22987855.039
  23492929.828     -959263.183 6   -646309.039 9  23492934.164
  23570270.484    16045937.470 6  12538219.946 9  23570277.941
  21192461.766    -2720876.586 7  -2080903.074 9  21192465.832
 94  3 23 21  1  0.0000000  0  6  2 27  7 31 18 19
  21546989.219   -14682424.490 8 -11290303.262 9  21546993.414
  20407284.727   -17993298.823 7 -13905351.362 9  20407287.773
  22970183.828    -6664619.110 6  -5070509.300 9  22970190.461
  23510799.383     -865360.552 6   -573138.238 9  23510803.859
  23592033.742    16160308.971 6  12627340.360 9  23592041.609
  21199651.742    -2683092.359 7  -2051460.845 9  21199655.738
 94  3 23 21  1 30.0000000  0  6  2 27  7 31 18 19
  21542419.516   -14706437.751 7 -11309014.876 9  21542423.699
  20405431.469   -18003038.615 7 -13912940.809 9  20405434.352
  22952557.938    -6757241.216 6  -5142682.206 9  22952564.664
  23528731.719     -771124.421 6   -499707.580 9  23528735.809
  23613820.656    16274794.867 6  12716549.936 9  23613828.020
  21206904.469    -2644980.378 7  -2021763.225 9  21206908.418
 94  3 23 21  2  0.0000000  0  6  2 27  7 31 18 19
  21537899.219   -14730193.305 8 -11327525.674 9  21537903.215
  20403645.461   -18012423.954 7 -13920254.059 9  20403648.473
  22934971.453    -6849659.317 6  -5214696.130 9  22934978.477
  23546730.688     -676538.882 6   -426004.652 9  23546735.164
  23635631.172    16389408.122 6  12805858.697 9  23635639.273
  21214218.531    -2606543.976 7  -1991812.806 9  21214222.703
 94  3 23 21  2 30.0000000  0  6  2 27  7 31 18 19
  21533428.141   -14753689.242 8 -11345834.170 9  21533431.984
  20401928.758   -18021445.262 7 -13927283.648 9  20401931.805
  22917427.789    -6941853.975 6  -5286535.958 9  22917434.848
  23564798.484     -581594.659 6   -352022.230 9  23564802.750
  23657467.383    16504156.864 6  12895273.105 9  23657475.145
  21221589.977    -2567805.900 7  -1961627.327 9  21221594.137
 94  3 23 21  3  0.0000000  0  6  2 27  7 31 18 19
  21529007.852   -14776916.129 7 -11363933.023 9  21529011.684
  20400280.977   -18030102.714 7 -13934029.712 9  20400284.199
  22899927.242    -7033819.147 6  -5358196.975 9  22899934.063
  23582933.688     -486291.463 6   -277760.092 9  23582938.082
  23679332.781    16619063.068 5  12984810.132 9  23679341.293
  21229018.828    -2528767.931 7  -1931208.162 9  21229022.988
 94  3 23 21  3 30.0000000  0  6  2 27  7 31 18 19
  21524636.008   -14799890.398 7 -11381835.021 9  21524640.051
  20398697.117   -18038426.817 7 -13940516.026 9  20398700.164
  22882472.070    -7125544.415 6  -5429671.049 9  22882479.246
  23601136.102     -390636.033 6   -203223.479 9  23601140.191
  23701229.688    16734129.680 6  13074472.190 9  23701237.344
  21236503.547    -2489436.541 7  -1900560.355 9  21236507.543
 94  3 23 21  4  0.0000000  0  6  2 27  7 31 18 19
  21520310.602   -14822621.024 7 -11399547.177 9  21520314.773
  20397174.961   -18046424.880 7 -13946748.286 9  20397178.148
  22865065.734    -7217015.081 6  -5500946.744 9  22865072.250
  23619407.633     -294619.369 6   -128405.400 9  23619412.344
  23723156.750    16849355.540 6  13164258.302 9  23723164.934
  21244042.555    -2449816.874 7  -1869687.914 9  21244046.738
 94  3 23 21  4 30.0000000  0  6  2 27  7 31 18 19
  21516032.906   -14845100.456 7 -11417063.588 9  21516037.172
  20395714.367   -18054101.034 7 -13952729.702 9  20395717.449
  22847708.469    -7308225.415 6  -5572019.576 9  22847715.398
  23637745.992     -198251.942 6    -53313.992 9  23637750.926
  23745111.094    16964723.282 6  13254154.997 9  23745119.242
  21251636.742    -2409910.571 7  -1838592.123 9  21251640.773
 94  3 23 21  5  0.0000000  0  6  2 27  7 31 18 19
  21511802.914   -14867329.182 7 -11434384.650 9  21511807.051
  20394313.484   -18061463.774 7 -13958466.896 9  20394316.602
  22830403.625    -7399166.016 6  -5642882.225 9  22830410.070
  23656149.313     -101543.162 6     22043.402 9  23656154.188
  23767091.352    17080228.503 5  13344158.794 9  23767100.496
  21259288.773    -2369698.800 7  -1807258.308 9  21259292.770
 94  3 23 21  5 30.0000000  0  6  2 27  7 31 18 19
  21507616.156   -14889331.277 8 -11451529.111 9  21507620.152
  20392972.664   -18068508.736 7 -13963956.476 9  20392975.629
  22813148.586    -7489843.017 6  -5713539.504 9  22813155.055
  23674616.969       -4494.616 6     97665.553 9  23674621.586
  23789091.125    17195840.196 5  13434245.558 9  23789100.012
  21266997.305    -2329190.495 7  -1775693.429 9  21267001.453
 94  3 23 21  6  0.0000000  0  6  2 27  7 31 18 19
  21503473.477   -14911099.897 8 -11468491.647 9  21503477.473
  20391695.898   -18075218.449 7 -13969184.817 9  20391699.004
  22795939.367    -7580274.144 6  -5784005.172 9  22795946.176
  23693146.414       92878.632 6    173540.730 9  23693150.973
  23811110.219    17311550.887 5  13524409.438 9  23811117.687
  21274762.875    -2288382.900 7  -1743895.337 9  21274766.742
 94  3 23 21  6 30.0000000  0  6  2 27  7 31 18 19
  21499376.180   -14932632.159 8 -11485270.008 9  21499380.164
  20390485.766   -18081577.857 7 -13974140.201 9  20390488.766
  22778776.891    -7670461.779 6  -5854281.105 9  22778783.809
  23711733.617      190551.741 6    249649.554 9  23711737.848
  23833147.016    17427352.280 6  13614644.062 9  23833155.656
  21282587.242    -2247264.663 7  -1711855.190 9  21282591.461
 94  3 23 21  7  0.0000000  0  6  2 27  7 31 18 19
  21495321.477   -14953939.466 8 -11501873.080 9  21495325.660
  20389344.734   -18087574.051 7 -13978812.557 9  20389347.652
  22761659.492    -7760416.543 6  -5924375.601 9  22761665.832
  23730375.313      288515.627 6    325984.961 9  23730379.789
  23855201.586    17543246.704 6  13704951.098 9  23855209.781
  21290472.156    -2205830.266 7  -1679568.691 9  21290476.258
 94  3 23 21  7 30.0000000  0  6  2 27  7 31 18 19
  21491309.484   -14975022.513 8 -11518301.401 9  21491313.586
  20388275.211   -18093193.621 7 -13983191.441 9  20388278.387
  22744584.828    -7850142.343 6  -5994291.675 9  22744591.438
  23749072.891      386772.093 6    402548.335 9  23749077.672
  23877274.070    17659237.927 5  13795333.613 9  23877282.312
  21298415.898    -2164084.906 7  -1647039.876 9  21298420.012
 94  3 23 21  8  0.0000000  0  6  2 27  7 31 18 19
  21487343.625   -14995862.110 7 -11534540.021 9  21487347.914
  20387277.133   -18098439.380 7 -13987279.046 9  20387280.379
  22727556.883    -7939626.249 6  -6064019.277 9  22727563.328
  23767824.977      485317.501 6    479336.881 9  23767829.816
  23899366.984    17775337.217 5  13885800.244 9  23899375.344
  21306418.742    -2122030.542 7  -1614270.281 9  21306422.902
 94  3 23 21  8 30.0000000  0  6  2 27  7 31 18 19
  21483421.844   -15016468.714 7 -11550597.089 9  21483426.238
  20386345.570   -18103335.595 7 -13991094.281 9  20386348.852
  22710576.734    -8028852.915 6  -6133546.443 9  22710582.688
  23786634.539      584159.529 6    556356.547 9  23786639.531
  23921480.734    17891544.677 5  13976351.252 9  23921489.363
  21314479.977    -2079668.688 7  -1581261.085 9  21314484.148
 94  3 23 21  9  0.0000000  0  6  2 27  7 31 18 19
  21479544.664   -15036845.107 7 -11566474.775 9  21479548.930
  20385476.508   -18107900.768 7 -13994651.554 9  20385479.625
  22693648.195    -8117815.510 6  -6202867.834 9  22693654.641
  23805503.930      683318.407 6    633623.099 9  23805508.805
  23943617.336    18007872.357 5  14066995.909 9  23943625.660
  21322599.594    -2036999.822 7  -1548012.657 9  21322603.672
 94  3 23 21  9 30.0000000  0  6  2 27  7 31 18 19
  21475711.734   -15056987.771 7 -11582170.339 9  21475716.070
  20384667.313   -18112154.567 7 -13997966.202 9  20384670.371
  22676770.977    -8206505.495 6  -6271976.807 9  22676777.551
  23824434.781      782801.301 6    711142.154 9  23824439.621
  23965775.891    18124317.576 5  14157732.141 9  23965784.320
  21330776.773    -1994028.166 7  -1514528.287 9  21330781.051
 94  3 23 21 10  0.0000000  0  6  2 27  7 31 18 19
  21471926.797   -15076877.547 7 -11597668.845 9  21471931.145
  20383916.813   -18116097.750 7 -14001038.811 9  20383919.965
  22659947.641    -8294911.018 6  -6340864.108 9  22659953.969
  23843431.078      882625.786 6    788927.372 9  23843435.965
  23987958.375    18240884.511 5  14248563.194 9  23987968.258
  21339015.453    -1950734.654 7  -1480793.120 9  21339019.742
 94  3 23 21 10 30.0000000  0  6  2 27  7 31 18 19
  21468182.781   -15096551.355 7 -11612999.060 9  21468187.188
  20383225.969   -18119728.417 7 -14003867.906 9  20383229.086
  22643176.648    -8383043.250 6  -6409538.474 9  22643182.777
  23862489.438      982777.376 6    866967.489 9  23862494.020
  24010159.625    18357554.088 5  14339474.255 9  24010169.156
  21347314.727    -1907121.484 7  -1446808.863 9  21347319.039
 94  3 23 21 11  0.0000000  0  6  2 27  7 31 18 19
  21464484.437   -15115986.777 7 -11628143.518 9  21464488.949
  20382602.148   -18123005.200 7 -14006421.248 9  20382605.242
  22626457.477    -8470902.713 6  -6478000.286 9  22626464.004
  23881610.031     1083256.428 6    945262.754 9  23881615.094
  24032381.117    18474325.408 5  14430464.552 9  24032390.285
  21355676.117    -1863182.611 7  -1412570.811 9  21355680.207
 94  3 23 21 11 30.0000000  0  6  2 27  7 31 18 19
  21460830.469   -15135188.191 7 -11643105.640 9  21460834.746
  20382048.641   -18125914.913 7 -14008688.559 9  20382051.816
  22609789.008    -8558494.859 6  -6546253.777 9  22609795.676
  23900787.992     1184036.086 6   1023792.265 9  23900793.066
  24054618.641    18591184.203 5  14521523.063 9  24054626.719
  21364097.914    -1818924.770 7  -1378084.211 9  21364102.180
 94  3 23 21 12  0.0000000  0  6  2 27  7 31 18 19
  21457218.602   -15154168.522 7 -11657895.488 9  21457222.996
  20381567.016   -18128446.681 7 -14010661.371 9  20381570.344
  22593171.609    -8645821.466 6  -6614300.385 9  22593177.832
  23920019.391     1285098.202 6   1102541.875 9  23920024.219
  24076872.266    18708122.702 5  14612643.627 9  24076881.785
  21372579.266    -1774354.889 7  -1343354.461 9  21372583.719
 94  3 23 21 12 30.0000000  0  6  2 27  7 31 18 19
  21453648.961   -15172927.306 7 -11672512.701 9  21453653.367
  20381160.844   -18130581.299 7 -14012324.714 9  20381164.125
  22576604.727    -8732878.835 6  -6682137.189 9  22576611.609
  23939303.281     1386434.082 6   1181504.798 9  23939308.566
  24099142.258    18825156.230 5  14703838.271 9  24099151.297
  21381119.938    -1729475.149 7  -1308383.262 9  21381124.273
 94  3 23 21 13  0.0000000  0  6  2 27  7 31 18 19
  21450124.898   -15191447.731 7 -11686944.178 9  21450129.059
  20380827.531   -18132332.061 7 -14013688.953 9  20380830.730
  22560088.336    -8819675.493 6  -6749770.821 9  22560095.086
  23958638.828     1488048.361 6   1260684.643 9  23958643.750
  24121431.367    18942283.959 5  14795106.298 9  24121441.566
  21389716.516    -1684298.767 7  -1273180.911 9  21389720.770
 94  3 23 21 13 30.0000000  0  6  2 27  7 31 18 19
  21446645.023   -15209733.304 7 -11701192.655 9  21446649.324
  20380566.188   -18133705.365 7 -14014759.064 9  20380569.457
  22543625.461    -8906184.898 6  -6817180.639 9  22543631.637
  23978031.469     1589956.333 5   1340093.359 9  23978036.086
  24143742.500    19059522.866 5  14886460.963 9  24143751.973
  21398371.078    -1638820.000 7  -1237742.943 9  21398375.320
 94  3 23 21 14  0.0000000  0  6  2 27  7 31 18 19
  21443208.141   -15227793.140 7 -11715265.237 9  21443212.277
  20380374.570   -18134712.523 7 -14015543.870 9  20380377.699
  22527217.586    -8992409.850 6  -6884368.804 9  22527224.184
  23997480.711     1692158.377 6   1419731.216 9  23997485.703
  24166068.602    19176850.964 5  14977885.124 9  24166078.098
  21407080.039    -1593053.627 7  -1202080.867 9  21407084.363
 94  3 23 21 14 30.0000000  0  6  2 27  7 31 18 19
  21439818.914   -15245603.497 7 -11729143.417 9  21439822.957
  20380255.258   -18135339.146 7 -14016032.154 9  20380258.387
  22510868.273    -9078324.106 6  -6951314.858 9  22510874.813
  24016989.680     1794677.573 6   1499616.194 9  24016994.566
  24188414.797    19294278.987 5  15069387.126 9  24188424.023
  21415846.609    -1546984.665 7  -1166183.009 9  21415850.969
 94  3 23 21 15  0.0000000  0  6  2 27  7 31 18 19
  21436476.641   -15263168.732 7 -11742830.594 9  21436480.742
  20380203.938   -18135608.690 7 -14016242.193 9  20380207.219
  22494578.555    -9163925.350 6  -7018017.033 9  22494584.566
  24036555.117     1897495.527 6   1579733.985 9  24036559.688
  24210774.734    19411779.985 5  15160945.996 9  24210784.676
  21424670.531    -1500614.263 7  -1130050.257 9  21424674.867
 94  3 23 21 15 30.0000000  0  6  2 27  7 31 18 19
  21433178.992   -15280497.417 8 -11756333.447 9  21433182.918
  20380220.578   -18135522.209 7 -14016174.811 9  20380223.977
  22478349.367    -9249211.829 6  -7084473.923 9  22478355.730
  24056173.508     2000590.178 6   1660067.371 9  24056177.938
  24233146.367    19529342.244 5  15252552.588 9  24233155.465
  21433554.047    -1453930.628 7  -1093673.427 9  21433558.301
 94  3 23 21 16  0.0000000  0  6  2 27  7 31 18 19
  21429930.953   -15297566.959 8 -11769634.375 9  21429934.926
  20380308.094   -18135062.780 8 -14015816.817 9  20380311.188
  22462181.391    -9334175.936 6  -7150679.602 9  22462188.332
  24075844.156     2103958.801 6   1740614.228 9  24075849.301
  24255530.516    19646968.859 5  15344209.379 9  24255538.172
  21442502.289    -1406907.904 7  -1057032.380 9  21442506.402
 94  3 23 21 16 30.0000000  0  6  2 27  7 31 18 19
  21426729.867   -15314387.553 7 -11782741.310 9  21426733.957
  20380467.141   -18134226.837 8 -14015165.437 9  20380470.223
  22446071.023    -9418833.025 6  -7216646.058 9  22446076.977
  24095563.078     2207582.520 6   1821359.868 9  24095568.586
  24277926.711    19764661.705 5  15435917.736 9  24277936.113
  21451516.836    -1359537.837 7  -1020120.670 9  21451521.160
 94  3 23 21 17  0.0000000  0  6  2 27  7 31 18 19
  21423573.625   -15330974.276 8 -11795666.007 9  21423577.703
  20380698.656   -18133009.256 8 -14014216.672 9  20380701.773
  22430017.453    -9503196.026 6  -7282383.353 9  22430023.898
  24115329.703     2311457.128 6   1902301.018 9  24115335.914
  24300333.648    19882411.898 5  15527670.757 9  24300343.520
  21460597.992    -1311814.436 7   -982933.638 9  21460602.316
 94  3 23 21 17 30.0000000  0  6  2 27  7 31 18 19
  21420456.461   -15347355.073 8 -11808430.245 9  21420460.445
  20381004.383   -18131403.650 8 -14012965.553 9  20381007.488
  22414018.133    -9587272.797 6  -7347897.610 9  22414024.695
  24135142.375     2415574.930 5   1983431.671 9  24135148.035
  24322750.461    20000211.418 5  15619462.240 9  24322760.520
  21469742.008    -1263762.920 7   -945490.932 9  21469746.320
 94  3 23 21 18  0.0000000  0  7  2 27 26  7 31 18 19
  21417372.016   -15363562.914 8 -11821059.710 9  21417376.188
  20381380.266   -18129428.104 8 -14011426.170 9  20381383.535
  24516946.320      -45223.26715
  22398069.648    -9671082.807 6  -7413203.997 9  22398075.754
  24155000.234     2519927.622 5   2064745.354 9  24155005.953
  24345172.633    20118040.877 4  15711277.002 9  24345184.145
  21478942.187    -1215415.608 7   -907817.728 9  21478946.371
 94  3 23 21 18 30.0000000  0  7  2 27 26  7 31 18 19
  21414319.961   -15379602.820 8 -11833558.316 9  21414323.898
  20381825.805   -18127085.442 7 -14009600.719 9  20381829.250
  24501805.102     -124792.218 5
  22382172.281    -9754621.719 6  -7478299.163 9  22382178.082
  24174904.180     2624521.751 5   2146247.175 9  24174910.695
  24367601.516    20235900.207 5  15803115.052 9  24367612.418
  21488197.742    -1166777.854 7   -869918.214 9  21488202.148
 94  3 23 21 19  0.0000000  0  7  2 27 26  7 31 18 19
  21411301.711   -15395463.836 8 -11845917.535 9  21411305.672
  20382337.766   -18124395.653 7 -14007504.785 9  20382341.141
  24486724.203     -204039.888 5    -28784.76419  24486727.918
  22366329.914    -9837875.119 6  -7543171.823 9  22366336.160
  24194854.922     2729363.494 5   2227941.952 9  24194860.301
  24390036.273    20353792.613 5  15894978.884 9  24390046.613
  21497504.758    -1117869.159 7   -831807.580 9  21497509.199
 94  3 23 21 19 30.0000000  0  7  2 27 26  7 31 18 19
  21408320.750   -15411128.372 8 -11858123.654 9  21408324.746
  20382915.586   -18121359.464 7 -14005138.924 9  20382918.973
  24471703.398     -282977.415 5    -90294.502 9  24471706.844
  22350545.094    -9920824.187 6  -7607807.372 9  22350551.293
  24214851.727     2834449.176 5   2309826.793 9  24214857.281
  24412478.789    20471729.387 5  15986877.301 9  24412490.008
  21506863.695    -1068686.021 7   -793483.093 9  21506868.266
 94  3 23 21 20  0.0000000  0  7  2 27 26  7 31 18 19
  21405381.266   -15426575.841 8 -11870160.628 9  21405385.133
  20383557.516   -18117986.328 8 -14002510.511 9  20383560.762
  24456735.547     -361635.940 5   -151586.871 9  24456739.391
  22334817.445   -10003472.659 6  -7672208.682 9  22334824.078
  24234893.930     2939772.079 5   2391896.456 9  24234899.367
  24434929.594    20589705.361 5  16078806.255 9  24434940.883
  21516277.852    -1019215.760 7   -754934.871 9  21516282.387
 94  3 23 21 20 30.0000000  0  7  2 27 26  7 31 18 19
  21402488.219   -15441778.586 8 -11882006.909 9  21402492.168
  20384264.125   -18114272.287 7 -13999616.454 9  20384267.371
  24441816.273     -440035.888 5   -212677.698 9  24441820.211
  22319148.734   -10085813.313 6  -7736370.125 9  22319155.344
  24254981.313     3045330.427 5   2474149.617 9  24254986.867
  24457387.055    20707722.193 5  16170767.043 9  24457398.672
  21525747.711     -969451.902 7   -716157.878 9  21525752.328
 94  3 23 21 21  0.0000000  0  7  2 27 26  7 31 18 19
  21399644.180   -15456723.395 8 -11893652.205 9  21399648.316
  20385039.281   -18110198.881 7 -13996442.382 9  20385042.645
  24426943.367     -518190.452 5   -273577.342 9  24426948.207
  22303539.875   -10167836.108 6  -7800283.895 9  22303546.051
  24275114.773     3151131.372 5   2556591.787 9  24275120.820
  24479855.375    20825791.140 5  16262768.456 9  24479866.137
  21535275.320     -919385.331 7   -677145.001 9  21535279.855
 94  3 23 21 21 30.0000000  0  7  2 27 26  7 31 18 19
  21396850.984   -15471401.850 8 -11905089.942 9  21396854.910
  20385887.945   -18105739.616 7 -13992967.640 9  20385891.121
  24412117.523     -596099.165 5   -334285.385 9  24412123.863
  22287996.586   -10249519.813 6  -7863933.451 9  22288002.563
  24295296.820     3257187.381 5   2639232.729 9  24295301.906
  24502335.445    20943922.172 5  16354818.252 9  24502345.996
  21544866.922     -868980.110 7   -637868.240 9  21544871.340
 94  3 23 21 22  0.0000000  0  7  2 27 26  7 31 18 19
  21394106.703   -15485823.417 8 -11916327.512 9  21394110.734
  20386809.133   -18100897.196 7 -13989194.336 9  20386812.414
  24397344.859     -673731.582 5   -394778.142 9  24397350.004
  22272514.984   -10330873.135 6  -7927325.557 9  22272520.609
  24315529.391     3363507.079 5   2722079.152 9  24315535.906
  24524824.891    21062107.536 5  16446910.357 9  24524836.203
  21554522.125     -818242.392 7   -598332.388 9  21554526.449
 94  3 23 21 22 30.0000000  0  7  2 27 26  7 31 18 19
  21391406.141   -15500014.961 8 -11927385.846 9  21391410.242
  20387803.930   -18095670.513 7 -13985121.610 9  20387807.281
  24382632.578     -751049.356 5   -455025.723 9  24382636.539
  22257095.797   -10411898.841 6  -7990462.383 9  22257101.504
  24335811.844     3470092.876 5   2805132.933 9  24335818.676
  24547328.313    21180362.238 5  16539056.514 9  24547339.039
  21564239.672     -767176.069 7   -558540.477 9  21564244.125
 94  3 23 21 23  0.0000000  0  6  2 27 26  7 31 19
  21388743.945   -15514004.738 8 -11938286.953 9  21388747.941
  20388871.984   -18090056.952 7 -13980747.421 9  20388875.336
  24367982.117     -828033.190 5   -515013.101 9  24367987.191
  22241741.203   -10492590.951 6  -8053339.262 9  22241746.758
  24356142.773     3576936.706 5   2888387.772 9  24356149.656
  21574019.617     -715782.353 7   -518493.451 9  21574023.883
 94  3 23 21 23 30.0000000  0  6  2 27 26  7 31 19
  21386117.281   -15527808.876 8 -11949043.411 9  21386121.301
  20390015.469   -18084049.368 7 -13976066.196 9  20390018.855
  24353399.555     -904664.268 5   -574725.583 9  24353404.266
  22226449.227   -10572950.486 7  -8115956.986 9  22226454.770
  24376522.031     3684027.347 5   2971834.935 9  24376529.020
  21583861.820     -664061.246 7   -478191.320 9  21583865.969
 94  3 23 21 24  0.0000000  0  5  2 27 26  7 19
  21383523.148   -15541439.773 8 -11959664.881 9  21383526.969
  20391234.688   -18077641.477 7 -13971073.047 9  20391238.063
  24338886.594     -980935.673 5   -634157.830 9  24338890.227
  22211219.805   -10652981.581 7  -8178318.796 9  22211225.043
  21593763.609     -612026.461 7   -437644.769 9  21593767.898
 94  3 23 21 24 30.0000000  0  5  2 27 26  7 19
  21380962.828   -15554894.550 8 -11970149.114 9  21380966.707
  20392531.352   -18070828.227 7 -13965764.033 9  20392534.773
  24324436.484    -1056871.258 5   -693328.379 9  24324440.984
  22196054.211   -10732678.071 7  -8240419.873 9  22196059.531
  21603724.734     -559680.482 7   -396855.728 9  21603729.234
 94  3 23 21 25  0.0000000  0  5  2 27 26  7 19
  21378439.727   -15568154.697 8 -11980481.681 9  21378443.430
  20393907.508   -18063596.542 7 -13960128.967 9  20393910.859
  24310045.758    -1132490.234 5   -752252.239 9  24310050.703
  22180953.359   -10812030.545 7  -8302252.885 9  22180958.844
  21613746.195     -507017.584 7   -355819.732 9  21613750.508
 94  3 23 21 25 30.0000000  0  5  2 27 26  7 19
  21375954.820   -15581212.672 8 -11990656.714 9  21375958.746
  20395361.859   -18055954.510 7 -13954174.154 9  20395365.234
  24295711.492    -1207820.288 5   -810950.959 9  24295716.484
  22165916.305   -10891051.070 6  -8363827.226 9  22165921.859
  21623827.125     -454040.879 7   -314539.217 9  21623831.543
 94  3 23 21 26  0.0000000  0  5  2 27 26  7 19
  21373513.219   -15594042.105 8 -12000653.665 9  21373517.168
  20396890.594   -18047919.050 7 -13947912.770 9  20396893.898
  24281429.281    -1282873.431 5   -869433.922 9  24281434.074
  22150943.055   -10969735.945 7  -8425140.038 9  22150948.328
  21633968.414     -400749.788 7   -273013.736 9  21633972.715
 94  3 23 21 26 30.0000000  0  5  2 27 26  7 19
  21371117.117   -15606632.570 8 -12010464.406 9  21371121.090
  20398493.938   -18039494.016 7 -13941347.816 9  20398497.547
  24267199.430    -1357654.312 5   -927704.721 9  24267203.648
  22136031.781   -11048092.281 6  -8486196.829 9  22136037.582
  21644171.211     -347134.415 7   -231235.557 9  21644175.359
 94  3 23 21 27  0.0000000  0  5  2 27 26  7 19
  21368764.953   -15618994.368 8 -12020096.962 9  21368768.902
  20400171.164   -18030681.566 7 -13934480.982 9  20400174.539
  24253021.922    -1432158.533 5   -985759.941 9  24253025.859
  22121183.719   -11126122.830 7  -8546999.768 9  22121189.027
  21654435.242     -293196.798 7   -189206.286 9  21654439.543
 94  3 23 21 27 30.0000000  0  5  2 27 26  7 19
  21366454.070   -15631137.550 8 -12029559.166 9  21366458.008
  20401919.375   -18021493.126 7 -13927321.170 9  20401922.867
  24238898.766    -1506373.927 6  -1043590.096 9  24238902.750
  22106396.781   -11203827.014 7  -8607548.403 9  22106402.113
  21664759.586     -238941.445 7   -146929.433 9  21664764.004
 94  3 23 21 28  0.0000000  0  5  2 27 26  7 19
  21364183.477   -15643070.535 8 -12038857.582 9  21364187.355
  20403740.953   -18011921.380 7 -13919862.676 9  20403744.387
  24224837.281    -1580266.336 5  -1101168.578 9  24224841.453
  22091672.523   -11281203.844 7  -8667841.956 9  22091677.645
  21675144.422     -184369.647 7   -104405.985 9  21675148.758
 94  3 23 21 28 30.0000000  0  5  2 27 26  7 19
  21361949.430   -15654809.512 8 -12048004.825 9  21361953.379
  20405639.281   -18001943.787 7 -13912087.935 9  20405642.750
  24210841.758    -1653811.281 5  -1158476.286 9  24210845.754
  22077012.578   -11358241.323 7  -8727871.087 9  22077017.711
  21685589.805     -129478.933 7    -61634.044 9  21685594.023
 94  3 23 21 29  0.0000000  0  5  2 27 26  7 19
  21359752.438   -15666356.391 8 -12057002.379 9  21359756.328
  20407615.227   -17991562.171 7 -13903998.371 9  20407618.695
  24196914.234    -1726999.347 5  -1215505.909 9  24196918.547
  22062417.922   -11434935.142 7  -8787632.422 9  22062423.137
  21696094.734      -74274.852 7    -18617.913 9  21696098.906
 94  3 23 21 29 30.0000000  0  5  2 27 26  7 19
  21357595.578   -15677689.332 8 -12065833.227 9  21357599.422
  20409669.000   -17980768.911 7 -13895588.044 9  20409672.469
  24183056.375    -1799823.226 5  -1272251.773 9  24183060.043
  22047890.023   -11511279.864 7  -8847121.739 9  22047895.320
  21706659.977      -18754.616 7     24644.575 9  21706664.137
 94  3 23 21 30  0.0000000  0  5  2 27 26  7 19
  21355480.391   -15688805.704 8 -12074495.322 9  21355484.258
  20411802.047   -17969559.270 7 -13886853.261 9  20411805.434
  24169265.500    -1872294.567 5  -1328722.898 9  24169269.871
  22033428.961   -11587273.993 7  -8906337.872 9  22033434.469
  21717283.602       37073.398 7     68146.884 9  21717288.055
 94  3 23 21 30 30.0000000  0  5  2 27 26  7 19
  21353405.008   -15699710.163 8 -12082992.287 9  21353408.793
  20414012.438   -17957944.840 7 -13877803.066 9  20414015.719
  24155537.164    -1944434.298 5  -1384935.663 9  24155542.074
  22019036.195   -11662908.007 7  -8965273.389 9  22019041.410
  21727964.727       93202.521 7    111883.823 9  21727968.969
 94  3 23 21 31  0.0000000  0  5  2 27 26  7 19
  21351371.273   -15710398.604 8 -12091320.931 9  21351375.141
  20416298.180   -17945932.365 7 -13868442.702 9  20416301.613
  24141872.508    -2016246.063 5  -1440892.850 9  24141876.762
  22004713.305   -11738175.060 7  -9023922.973 9  22004718.719
  21738704.016      149635.850 7    155857.804 9  21738708.094
 94  3 23 21 31 30.0000000  0  5  2 27 26  7 19
  21349375.492   -15720886.191 8 -12099493.063 9  21349379.395
  20418660.125   -17933521.180 7 -13858771.663 9  20418663.594
  24128269.938    -2087727.607 5  -1496592.756 9  24128273.605
  21990460.594   -11813072.407 7  -9082284.470 9  21990465.902
  21749500.180      206370.535 7    200066.615 9  21749504.316
 94  3 23 21 32  0.0000000  0  5  2 27 26  7 19
  21347414.422   -15731190.657 7 -12107522.497 9  21347418.324
  20421095.945   -17920720.476 7 -13848797.102 9  20421099.215
  24114732.891    -2158864.705 5  -1552024.255 9  24114737.156
  21976280.773   -11887590.549 7  -9140350.484 9  21976285.813
  21760354.891      263413.069 7    244515.301 9  21760359.309
 94  3 23 21 32 30.0000000  0  5  2 27 26  7 19
  21345488.375   -15741312.883 8 -12115409.931 9  21345492.277
  20423603.234   -17907543.620 7 -13838529.438 9  20423606.785
  24101261.820    -2229657.128 5  -1607187.131 9  24101266.426
  21962171.695   -11961732.333 7  -9198123.236 9  21962176.535
  21771269.219      320768.425 7    289207.743 9  21771273.520
 94  3 23 21 33  0.0000000  0  5  2 27 26  7 19
  21343598.922   -15751241.830 8 -12123146.760 9  21343602.719
  20426184.445   -17893979.781 7 -13827960.227 9  20426187.926
  24087857.617    -2300097.414 5  -1662075.625 9  24087862.422
  21948134.359   -12035498.566 7  -9255603.342 9  21948139.352
  21782244.922      378445.860 7    334151.155 9  21782249.199
 94  3 23 21 33 30.0000000  0  5  2 27 26  7 19
  21341747.547   -15760970.997 7 -12130727.917 9  21341751.484
  20428840.313   -17880023.580 7 -13817085.282 9  20428843.711
  24074519.266    -2370189.700 5  -1716692.972 9  24074523.531
  21934168.977   -12108888.159 7  -9312789.973 9  21934173.910
  21793282.992      436450.889 7    379349.835 9  21793287.316
 94  3 23 21 34  0.0000000  0  5  2 27 26  7 19
  21339938.438   -15770477.129 7 -12138135.279 9  21339942.492
  20431572.789   -17865665.376 7 -13805897.085 9  20431576.047
  24061248.352    -2439931.494 5  -1771037.189 9  24061252.488
  21920277.016   -12181891.568 7  -9369675.665 9  21920281.891
  21804384.563      494789.883 7    424808.745 9  21804388.852
 94  3 23 21 34 30.0000000  0  6  2 27 26  7 15 19
  21338170.086   -15779770.496 7 -12145376.845 9  21338174.188
  20434382.734   -17850899.266 7 -13794391.040 9  20434385.887
  24048041.492    -2509332.388 6  -1825115.799 9  24048045.242
  21906455.219   -12254523.945 7  -9426272.247 9  21906459.941
  24364792.313      -33527.75715
  21815549.055      553458.578 7    470524.560 9  21815553.320
 94  3 23 21 35  0.0000000  0  6  2 27 26  7 15 19
  21336439.492   -15788864.725 8 -12152463.245 9  21336443.465
  20437270.758   -17835722.582 7 -13782565.067 9  20437274.133
  24034901.586    -2578384.841 5  -1878922.880 9  24034905.875
  21892701.516   -12326800.005 7  -9482591.180 9  21892706.449
  24356525.617      -76967.732 5     -7874.87719  24356533.859
  21826774.938      612451.479 7    516493.009 9  21826779.414
 94  3 23 21 35 30.0000000  0  6  2 27 26  7 15 19
  21334745.594   -15797767.393 8 -12159400.375 9  21334749.426
  20440235.773   -17820140.161 7 -13770422.932 9  20440239.172
  24021829.687    -2647076.128 5  -1932448.519 9  24021834.246
  21879016.023   -12398717.839 7  -9538630.972 9  21879020.852
  24348325.227     -120068.141 5    -41459.492 9  24348334.523
  21838062.469      671769.208 7    562714.566 9  21838066.969
 94  3 23 21 36  0.0000000  0  6  2 27 26  7 15 19
  21333085.469   -15806491.198 8 -12166198.137 9  21333089.359
  20443277.102   -17804157.975 7 -13757969.294 9  20443280.453
  24008828.539    -2715398.225 5  -1985686.490 9  24008833.449
  21865397.570   -12470282.613 7  -9594395.658 9  21865402.469
  24340187.875     -162827.605 5    -74778.425 9  24340196.750
  21849411.516      731408.902 7    609187.003 9  21849416.262
 94  3 23 21 36 30.0000000  0  6  2 27 26  7 15 19
  21331459.641   -15815033.598 8 -12172854.542 9  21331463.461
  20446395.719   -17787769.122 7 -13745198.773 9  20446399.316
  23995899.328    -2783339.492 5  -2038627.722 9  23995904.602
  21851849.047   -12541481.215 7  -9649875.013 9  21851853.875
  24332118.641     -205233.235 5   -107821.657 9  24332127.727
  21860825.195      791386.488 7    655922.731 9  21860829.531
 94  3 23 21 37  0.0000000  0  6  2 27 26  7 15 19
  21329867.797   -15823400.184 8 -12179373.946 9  21329871.641
  20449590.141   -17770983.880 7 -13732119.379 9  20449593.609
  23983038.180    -2850922.270 5  -2091289.597 9  23983043.430
  21838370.234   -12612311.223 7  -9705067.146 9  21838374.957
  24324115.094     -247290.226 5   -140593.217 9  24324124.191
  21872298.648      851680.801 7    702905.265 9  21872303.184
 94  3 23 21 37 30.0000000  0  6  2 27 26  7 15 19
  21328310.469   -15831583.327 8 -12185750.413 9  21328314.395
  20452861.102   -17753793.323 7 -13718724.152 9  20452864.641
  23970244.344    -2918152.712 5  -2143676.932 9  23970250.121
  21824966.055   -12682750.286 7  -9759954.656 9  21824970.766
  24316178.141     -288996.146 5   -173091.226 9  24316186.980
  21883831.766      912285.818 7    750129.899 9  21883836.043
 94  3 23 21 38  0.0000000  0  6  2 27 26  7 15 19
  21326791.391   -15839566.749 8 -12191971.249 9  21326795.398
  20456211.820   -17736186.166 7 -13705004.303 9  20456215.230
  23957517.133    -2985040.341 5  -2195797.120 9  23957521.375
  21811636.781   -12752795.636 7  -9814535.365 9  21811641.516
  24308308.977     -330349.817 5   -205314.745 9  24308317.559
  21895422.219      973195.090 7    797591.614 9  21895426.684
 94  3 23 21 38 30.0000000  0  6  2 27 26  7 15 19
  21325311.898   -15847341.723 8 -12198029.657 9  21325315.801
  20459642.047   -17718158.568 7 -13690956.837 9  20459645.492
  23944851.789    -3051596.484 5  -2247659.018 9  23944855.762
  21798383.883   -12822439.134 7  -9868802.954 9  21798388.594
  24300507.320     -371346.689 5   -237260.225 9  24300516.125
  21907068.844     1034397.292 7    845281.586 9  21907073.414
 94  3 23 21 39  0.0000000  0  6  2 27 26  7 15 19
  21323871.500   -15854910.686 8 -12203927.541 9  21323875.332
  20463152.383   -17699713.605 7 -13676584.151 9  20463155.793
  23932247.859    -3117831.697 5  -2299270.832 9  23932252.266
  21785206.914   -12891685.508 7  -9922761.086 9  21785211.766
  24292773.602     -411988.435 5   -268929.007 9  24292781.645
  21918767.156     1095871.822 7    893183.749 9  21918771.809
 94  3 23 21 39 30.0000000  0  6  2 27 26  7 15 19
  21322473.305   -15862258.845 8 -12209653.365 9  21322477.184
  20466743.039   -17680843.691 7 -13661880.337 9  20466746.531
  23919708.078    -3183725.148 5  -2350616.346 9  23919712.004
  21772102.805   -12960546.596 7  -9976419.009 9  21772107.750
  24285108.031     -452268.135 5   -300315.682 9  24285116.379
  21930519.477     1157630.076 7    941307.008 9  21930523.918
 94  3 23 21 40  0.0000000  0  6  2 27 26  7 15 19
  21321115.484   -15869393.477 8 -12215212.808 9  21321119.293
  20470413.414   -17661556.132 7 -13646851.091 9  20470416.883
  23907235.094    -3249271.892 5  -2401691.693 9  23907239.934
  21759070.664   -13029031.798 7 -10029784.024 9  21759075.539
  24277511.742     -492187.264 5   -331421.389 9  24277519.492
  21942326.078     1219675.982 7    989654.408 9  21942330.695
 94  3 23 21 40 30.0000000  0  6  2 27 26  7 15 19
  21319797.969   -15876317.985 8 -12220608.519 9  21319801.730
  20474164.211   -17641845.359 7 -13631492.070 9  20474167.926
  23894833.852    -3314443.244 6  -2452474.538 9  23894838.574
  21746113.305   -13097121.585 7 -10082840.939 9  21746118.145
  24269986.625     -531731.240 5   -362234.747 9  24269994.703
  21954192.125     1282033.751 7   1038244.824 9  21954196.906
 94  3 23 21 41  0.0000000  0  6  2 27 26  7 15 19
  21318518.117   -15883044.046 8 -12225849.593 9  21318521.809
  20477996.898   -17621705.003 7 -13615798.307 9  20478000.379
  23882507.461    -3379219.203 6  -2502949.295 9  23882511.445
  21733228.102   -13164834.073 7 -10135603.850 9  21733232.977
  24262531.867     -570903.582 5   -392758.551 9  24262540.391
  21966121.195     1344718.263 7   1087089.842 9  21966125.977
 94  3 23 21 41 30.0000000  0  6  2 27 26  7 15 19
  21317272.359   -15889589.482 8 -12230949.923 9  21317275.980
  20481910.648   -17601136.873 7 -13599771.210 9  20481914.176
  23870260.641    -3443576.314 6  -2553097.659 9  23870265.832
  21720414.031   -13232172.850 7 -10188075.560 9  21720418.930
  24255148.969     -609706.398 5   -422994.406 9  24255157.211
  21978113.391     1407739.601 7   1136197.318 9  21978118.078
 94  3 23 21 42  0.0000000  0  6  2 27 26  7 15 19
  21316055.875   -15895981.463 8 -12235930.681 9  21316059.461
  20485902.852   -17580158.023 7 -13583424.073 9  20485906.449
  23858093.695    -3507517.642 6  -2602922.042 9  23858098.113
  21707674.547   -13299120.723 7 -10240242.668 9  21707679.141
  24247834.766     -648137.676 5   -452940.757 9  24247843.266
  21990170.922     1471100.349 7   1185569.266 9  21990175.527
 94  3 23 21 42 30.0000000  0  6  2 27 26  7 15 19
  21314866.945   -15902230.617 8 -12240800.143 9  21314870.473
  20489973.727   -17558766.346 7 -13566755.256 9  20489977.359
  23846004.539    -3571042.842 6  -2652422.147 9  23846008.559
  21695006.242   -13365690.531 7 -10292115.191 9  21695010.789
  24240591.820     -686201.975 5   -482601.163 9  24240600.180
  22002291.398     1534793.811 7   1235200.474 9  22002296.285
 94  3 23 21 43  0.0000000  0  6  2 27 26  7 15 19
  21313705.188   -15908335.725 8 -12245557.363 9  21313708.598
  20494123.672   -17536958.774 7 -13549762.365 9  20494127.188
  23833995.609    -3634150.514 6  -2701596.927 9  23834000.004
  21682409.148   -13431888.380 7 -10343697.874 9  21682413.590
  24233418.719     -723896.371 5   -511973.341 9  24233426.645
  22014473.320     1598809.945 7   1285083.113 9  22014478.055
 94  3 23 21 43 30.0000000  0  6  2 27 26  7 15 19
  21312571.453   -15914292.300 8 -12250198.847 9  21312575.039
  20498348.781   -17514755.266 7 -13532460.950 9  20498352.309
  23822062.672    -3696855.931 6  -2750458.249 9  23822067.465
  21669885.688   -13497697.948 7 -10394978.003 9  21669890.422
  24226316.688     -761218.056 5   -541055.076 9  24226324.719
  22026715.531     1663143.588 7   1335213.153 9  22026720.195
 94  3 23 21 44  0.0000000  0  6  2 27 26  7 15 19
  21311472.273   -15920070.129 8 -12254701.047 9  21311475.871
  20502649.586   -17492154.280 7 -13514849.810 9  20502653.148
  23810204.563    -3759169.875 6  -2799014.536 9  23810209.414
  21657437.016   -13563118.437 7 -10445954.954 9  21657441.867
  24219286.930     -798159.756 5   -569840.712 9  24219295.371
  22039018.352     1727794.661 7   1385590.547 9  22039023.180
 94  3 23 21 44 30.0000000  0  6  2 27 26  7 15 19
  21310412.969   -15925636.250 8 -12259038.279 9  21310416.531
  20507029.984   -17469135.416 7 -13496913.055 9  20507033.582
  23798421.711    -3821090.065 6  -2847264.008 9  23798426.867
  21645059.844   -13628158.413 7 -10496635.405 9  21645064.520
  24212329.758     -834721.159 5   -598330.056 9  24212337.367
  22051379.750     1792754.050 7   1436208.195 9  22051384.602
 94  3 23 21 45  0.0000000  0  6  2 27 26  7 15 19
  21309394.375   -15930988.117 8 -12263208.559 9  21309397.762
  20511489.984   -17445698.690 7 -13478650.689 9  20511493.500
  23786710.000    -3882636.862 6  -2895222.527 9  23786715.344
  21632759.711   -13692797.798 7 -10547003.713 9  21632764.199
  24205445.016     -870898.692 5   -626520.267 9  24205452.895
  22063798.922     1858015.598 7   1487061.281 9  22063803.492
 94  3 23 21 45 30.0000000  0  6  2 27 26  7 15 19
  21308417.500   -15936121.092 8 -12267208.277 9  21308421.086
  20516030.820   -17421836.480 7 -13460056.773 9  20516034.383
  23775066.164    -3943826.262 6  -2942902.557 9  23775070.922
  21620537.992   -13757022.851 7 -10597049.159 9  21620542.539
  24198633.578     -906691.356 5   -654410.576 9  24198641.422
  22076274.586     1923577.603 7   1538148.491 9  22076279.309
 94  3 23 21 46  0.0000000  0  6  2 27 26  7 15 19
  21307481.516   -15941039.244 8 -12271040.598 9  21307485.230
  20520657.977   -17397520.442 7 -13441109.226 9  20520661.551
  23763491.266    -4004651.879 6  -2990299.119 9  23763496.070
  21608396.961   -13820824.371 7 -10646764.584 9  21608401.379
  24191897.766     -942095.009 5   -681997.790 9  24191904.539
  22088806.555     1989431.087 7   1589462.827 9  22088811.266
 94  3 23 21 46 30.0000000  0  6  2 27 26  7 15 19
  21306581.156   -15945770.878 8 -12274727.580 9  21306584.789
  20525371.430   -17372750.907 7 -13421808.303 9  20525375.109
  23751984.375    -4065119.268 6  -3037416.539 9  23751988.875
  21596338.406   -13884192.489 7 -10696142.291 9  21596343.129
  24185233.375     -977108.069 5   -709280.609 9  24185241.500
  22101393.133     2055574.376 7   1641002.984 9  22101397.750
 94  3 23 21 47  0.0000000  0  6  2 27 26  7 15 19
  21305710.938   -15950343.287 8 -12278290.492 9  21305714.793
  20530167.781   -17347545.392 7 -13402167.664 9  20530171.531
  23740545.414    -4125231.381 6  -3084257.143 9  23740550.090
  21584363.703   -13947118.799 7 -10745175.735 9  21584368.191
  24178644.867    -1011728.093 5   -736257.195 9  24178652.523
  22114035.477     2122010.774 7   1692771.539 9  22114040.563
 94  3 23 21 47 30.0000000  0  6  2 27 26  7 15 19
  21304871.109   -15954755.366 7 -12281728.472 9  21304875.059
  20535045.203   -17321914.868 7 -13382195.848 9  20535048.801
  23729180.883    -4184951.131 6  -3130791.976 9  23729185.957
  21572471.789   -14009611.704 7 -10793871.455 9  21572476.125
  24172133.805    -1045947.837 5   -762921.846 9  24172142.023
  22126736.906     2188759.523 7   1744783.479 9  22126742.063
 94  3 23 21 48  0.0000000  0  6  2 27 26  7 15 19
  21304059.750   -15959019.765 7 -12285051.375 9  21304063.816
  20539999.781   -17295878.282 7 -13361907.620 9  20540003.332
  23717895.063    -4244262.991 6  -3177008.999 9  23717899.633
  21560659.266   -14071687.679 7 -10842242.292 9  21560663.555
  24165699.047    -1079764.759 5   -789272.622 9  24165706.926
  22139500.109     2255827.375 7   1797044.077 9  22139504.914
 94  3 23 21 48 30.0000000  0  6  2 27 26  7 15 19
  21303276.656   -15963134.945 7 -12288258.003 9  21303280.652
  20545028.672   -17269451.474 7 -13341315.321 9  20545032.457
  23706687.656    -4303155.763 6  -3222899.451 9  23706691.922
  21548925.102   -14133350.523 7 -10890291.210 9  21548929.543
  24159341.594    -1113173.376 5   -815305.260 9  24159348.746
  22152326.383     2323229.710 7   1849565.305 9  22152331.328
 94  3 23 21 49  0.0000000  0  6  2 27 26  7 15 19
  21302523.438   -15967093.858 7 -12291342.863 9  21302527.445
  20550132.445   -17242631.175 7 -13320416.404 9  20550136.184
  23695563.617    -4361615.263 6  -3268452.295 9  23695567.953
  21537269.375   -14194600.569 7 -10938018.469 9  21537274.039
  24153060.953    -1146176.997 5   -841022.333 9  24153068.094
  22165214.328     2390956.418 7   1902339.297 9  22165219.180
 94  3 23 21 49 30.0000000  0  6  2 27 26  7 15 19
  21301803.383   -15970879.176 8 -12294292.459 9  21301807.250
  20555315.000   -17215396.876 7 -13299194.887 9  20555318.609
  23684524.305    -4419627.978 6  -3313656.996 9  23684528.102
  21525691.367   -14255442.958 7 -10985428.075 9  21525695.891
  24146857.797    -1178770.946 5   -866420.129 9  24146864.902
  22178163.078     2459001.667 7   1955361.497 9  22178168.281
 94  3 23 21 50  0.0000000  0  6  2 27 26  7 15 19
  21301117.906   -15974480.727 7 -12297098.855 9  21301121.820
  20560581.555   -17187720.021 7 -13277628.522 9  20560585.211
  23673566.453    -4477210.285 6  -3358526.313 9  23673570.859
  21514192.445   -14315869.638 7 -11032513.746 9  21514197.039
  24140734.234    -1210951.604 5   -891495.914 9  24140741.938
  22191168.695     2527348.833 7   2008618.955 9  22191174.051
 94  3 23 21 50 30.0000000  0  6  2 27 26  7 15 19
  21300470.289   -15977883.112 7 -12299750.052 9  21300474.086
  20565935.406   -17159585.960 7 -13255705.894 9  20565939.145
  23662690.703    -4534361.326 6  -3403059.569 9  23662695.156
  21502775.641   -14375866.182 7 -11079264.253 9  21502780.223
  24134689.914    -1242719.051 5   -916249.705 9  24134697.020
  22204229.828     2595985.756 6   2062102.200 9  22204235.102
 94  3 23 21 51  0.0000000  0  6  2 27 26  7 15 19
  21299863.008   -15981074.477 7 -12302236.828 9  21299866.852
  20571376.609   -17130992.724 7 -13233425.468 9  20571380.254
  23651898.281    -4591075.734 6  -3447252.587 9  23651902.887
  21491439.453   -14435435.857 7 -11125682.130 9  21491444.152
  24128722.969    -1274069.991 5   -940678.954 9  24128730.121
  22217345.297     2664906.053 7   2115806.254 9  22217350.395
 94  3 23 21 51 30.0000000  0  6  2 27 26  7 15 19
  21299294.500   -15984062.164 8 -12304564.884 9  21299298.273
  20576901.594   -17101957.272 7 -13210800.460 9  20576905.320
  23641185.586    -4647372.134 6  -3491119.871 9  23641189.523
  21480181.594   -14494596.144 7 -11171781.005 9  21480186.375
  24122834.273    -1305009.852 5   -964787.851 9  24122842.680
  22230515.422     2734114.951 7   2169735.190 9  22230520.578
 94  3 23 21 52  0.0000000  0  6  2 27 26  7 15 19
  21298763.227   -15986854.445 7 -12306740.683 9  21298767.070
  20582508.703   -17072493.431 7 -13187841.647 9  20582512.359
  23630551.688    -4703255.568 6  -3534665.375 9  23630555.520
  21469005.227   -14553328.779 7 -11217546.647 9  21469010.066
  24117027.461    -1335527.174 5   -988567.511 9  24117035.094
  22243744.094     2803632.400 7   2223904.552 9  22243749.250
 94  3 23 21 52 30.0000000  0  6  2 27 26  7 15 19
  21298267.578   -15989459.124 8 -12308770.299 9  21298271.352
  20588192.555   -17042624.204 7 -13164566.939 9  20588196.129
  23619996.875    -4758718.456 6  -3577883.194 9  23620000.355
  21457910.352   -14611632.404 7 -11262977.990 9  21457915.086
  24111301.656    -1365618.733 5  -1012015.403 9  24111308.867
  22257033.727     2873470.994 7   2278324.156 9  22257039.223
 94  3 23 21 53  0.0000000  0  6  2 27 26  7 15 19
  21297803.250   -15991899.721 8 -12310672.059 9  21297807.035
  20593952.398   -17012355.418 7 -13140980.895 9  20593956.090
  23609522.148    -4813764.458 6  -3620776.146 9  23609525.676
  21446896.469   -14669511.526 7 -11308078.560 9  21446900.945
  24105656.938    -1395284.203 5  -1035131.272 9  24105664.418
  22270385.945     2943636.660 7   2332998.618 9  22270391.160
 94  3 23 21 53 30.0000000  0  6  2 27 26  7 15 19
  21297366.586   -15994193.485 7 -12312459.400 9  21297370.289
  20599791.742   -16981670.844 7 -13117070.856 9  20599795.340
  23599123.172    -4868406.792 6  -3663354.556 9  23599127.496
  21435965.797   -14726952.931 7 -11352838.047 9  21435970.402
  24100093.664    -1424517.871 5  -1057910.652 9  24100100.969
  22283800.117     3014127.132 7   2387926.183 9  22283805.074
 94  3 23 21 54  0.0000000  0  6  2 27 26  7 15 19
  21296954.195   -15996360.860 8 -12314148.257 9  21296957.875
  20605709.555   -16950572.126 7 -13092838.106 9  20605712.988
  23588801.055    -4922650.625 6  -3705622.455 9  23588805.695
  21425119.586   -14783950.284 7 -11397251.533 9  21425123.887
  24094611.930    -1453325.577 5  -1080358.136 9  24094620.219
  22297272.016     3084921.371 7   2443090.457 9  22297277.078
 94  3 23 21 54 30.0000000  0  6  2 27 26  7 15 19
  21296568.898   -15998385.098 7 -12315725.576 9  21296572.484
  20611709.227   -16919042.794 7 -13068269.822 9  20611712.824
  23578557.461    -4976483.101 6  -3747569.811 9  23578561.469
  21414357.297   -14840507.434 7 -11441321.989 9  21414361.680
  24089211.977    -1481705.775 5  -1102472.495 9  24089219.363
  22310800.977     3156015.984 7   2498488.780 9  22310805.910
 94  3 23 21 55  0.0000000  0  6  2 27 26  7 15 19
  21296213.570   -16000251.836 7 -12317180.173 9  21296217.402
  20617796.828   -16887053.008 7 -13043342.741 9  20617800.414
  23568394.500    -5029891.397 6  -3789186.649 9  23568397.934
  21403681.742   -14896607.716 7 -11485036.463 9  21403685.855
  24083895.406    -1509639.219 5  -1124238.716 9  24083903.039
  22324390.508     3227428.535 7   2554134.856 9  22324395.559
 94  3 23 21 55 30.0000000  0  6  2 27 26  7 15 19
  21295888.445   -16001960.496 7 -12318511.591 9  21295892.160
  20623968.438   -16854619.914 7 -13018070.233 9  20623972.188
  23558310.398    -5082884.046 6  -3830479.599 9  23558314.430
  21393088.430   -14952275.478 7 -11528413.895 9  21393092.531
  24078662.008    -1537137.498 5  -1145665.852 9  24078669.699
  22338037.695     3299144.720 7   2610017.525 9  22338042.535
 94  3 23 21 56  0.0000000  0  6  2 27 26  7 15 19
  21295596.594   -16003493.833 7 -12319706.390 9  21295600.355
  20630223.508   -16821751.037 7 -12992458.148 9  20630227.152
  23548310.695    -5135432.003 6  -3871426.026 9  23548314.035
  21382576.742   -15007515.623 7 -11571458.124 9  21382580.914
  24073513.586    -1564196.338 5  -1166750.583 9  24073520.914
  22351745.500     3371181.866 6   2666150.292 9  22351750.691
 94  3 23 21 56 30.0000000  0  6  2 27 26  7 15 19
  21295338.563   -16004850.558 7 -12320763.569 9  21295342.219
  20636559.148   -16788457.425 7 -12966515.102 9  20636562.875
  23538395.977    -5187531.955 6  -3912023.355 9  23538399.785
  21372144.555   -15062337.175 7 -11614176.177 9  21372148.551
  24068447.164    -1590818.796 5  -1187495.288 9  24068455.383
  22365514.805     3443539.640 6   2722532.899 9  22365519.867
 94  3 23 21 57  0.0000000  0  6  2 27 26  7 15 19
  21295112.539   -16006036.951 7 -12321688.028 9  21295116.207
  20642976.727   -16754732.478 7 -12940235.953 9  20642980.406
  23528569.391    -5239173.049 6  -3952263.129 9  23528573.410
  21361792.766   -15116734.970 7 -11656564.028 9  21361796.984
  24063466.711    -1616996.623 5  -1207893.540 9  24063473.887
  22379343.492     3516208.695 6   2779158.052 9  22379348.930
 94  3 23 21 57 30.0000000  0  6  2 27 26  7 15 19
  21294920.313   -16007047.441 7 -12322475.419 9  21294923.898
  20649475.547   -16720580.868 7 -12913624.332 9  20649479.063
  23518831.180    -5290344.713 6  -3992137.119 9  23518835.059
  21351522.430   -15170704.710 7 -11698618.324 9  21351526.660
  24058569.156    -1642728.844 5  -1227944.558 9  24058576.684
  22393227.328     3589170.036 6   2836010.966 9  22393232.695
 94  3 23 21 58  0.0000000  0  6  2 27 26  7 15 19
  21294762.250   -16007879.860 8 -12323124.055 9  21294765.836
  20656057.406   -16685993.077 7 -12886672.829 9  20656060.887
  23509184.836    -5341037.666 6  -4031638.116 9  23509188.410
  21341338.898   -15224220.794 7 -11740319.130 9  21341343.094
  24053758.508    -1668008.581 5  -1247642.972 9  24053766.316
  22407165.305     3662412.490 6   2893082.931 9  22407170.730
 94  3 23 21 58 30.0000000  0  6  2 27 26  7 15 19
  21294633.734   -16008555.070 7 -12323650.188 9  21294637.355
  20662722.203   -16650970.425 7 -12859382.475 9  20662725.672
  23499625.602    -5391273.168 6  -4070782.642 9  23499629.434
  21331238.438   -15277297.558 7 -11781677.604 9  21331242.855
  24049032.016    -1692847.021 5  -1266997.536 9  24049039.660
  22421149.484     3735899.675 6   2950345.596 9  22421155.039
 94  3 23 21 59  0.0000000  0  6  2 27 26  7 15 19
  21294536.758   -16009064.708 7 -12324047.300 9  21294540.484
  20669474.742   -16615485.200 7 -12831731.677 9  20669478.188
  23490155.469    -5441040.427 6  -4109562.301 9  23490159.324
  21321223.219   -15329928.523 7 -11822688.699 9  21321227.484
  24044391.234    -1717232.310 5  -1285998.997 9  24044398.855
  22435182.773     3809645.430 6   3007809.745 9  22435188.129
 94  3 23 21 59 30.0000000  0  6  2 27 26  7 15 19
  21294472.828   -16009399.958 8 -12324308.528 9  21294476.602
  20676315.930   -16579534.767 7 -12803718.378 9  20676319.480
  23480774.172    -5490337.084 6  -4147975.258 9  23480777.781
  21311297.234   -15382090.593 7 -11863334.422 9  21311301.441
  24039838.852    -1741155.604 5  -1304640.480 9  24039846.133
  22449269.406     3883669.687 6   3065490.902 9  22449274.914
 94  3 23 22  0  0.0000000  0  6  2 27 26  7 15 19
  21294438.961   -16009577.637 8 -12324446.975 9  21294442.711
  20683246.148   -16543116.340 7 -12775340.409 9  20683249.641
  23471479.594    -5539181.214 6  -4186035.601 9  23471483.379
  21301457.359   -15433799.491 7 -11903627.029 9  21301461.578
  24035372.469    -1764627.240 5  -1322930.001 9  24035379.785
  22463410.609     3957980.850 6   3123395.626 9  22463416.082
 94  3 23 22  0 30.0000000  0  6  2 27 26  7 15 19
  21294437.008   -16009588.174 8 -12324455.180 9  21294440.617
  20690267.078   -16506220.559 8 -12746590.475 9  20690270.523
  23462268.523    -5587584.390 6  -4223752.335 9  23462272.074
  21291703.805   -15485054.253 7 -11943565.760 9  21291708.082
  24030994.359    -1787634.743 5  -1340857.875 9  24031001.910
  22477612.859     4032615.611 6   3181552.496 9  22477618.344
 94  3 23 22  1  0.0000000  0  6  2 27 26  7 15 19
  21294467.117   -16009431.863 8 -12324333.376 9  21294470.621
  20697373.031   -16468879.866 8 -12717493.857 9  20697376.535
  23453137.563    -5635568.458 6  -4261142.504 9  23453141.359
  21282037.820   -15535848.126 7 -11983145.356 9  21282042.109
  24026701.789    -1810190.332 5  -1358433.586 9  24026708.539
  22491876.555     4107571.748 6   3239959.791 9  22491882.074
 94  3 23 22  1 30.0000000  0  6  2 27 26  7 15 19
  21294532.016   -16009090.647 8 -12324067.489 9  21294535.402
  20704561.133   -16431106.030 8 -12688059.721 9  20704564.707
  23444086.469    -5683131.614 6  -4298204.691 9  23444090.559
  21272462.492   -15586166.650 7 -12022354.557 9  21272466.770
  24022497.820    -1832284.359 5  -1375649.645 9  24022505.254
  22506201.672     4182849.819 6   3298617.946 9  22506207.273
 94  3 23 22  2  0.0000000  0  6  2 27 26  7 15 19
  21294632.422   -16008563.444 8 -12323656.674 9  21294635.750
  20711831.719   -16392897.539 8 -12658286.892 9  20711835.375
  23435116.133    -5730268.816 6  -4334934.948 9  23435120.563
  21262975.781   -15636018.788 7 -12061200.337 9  21262980.059
  24018382.211    -1853909.467 5  -1392500.320 9  24018389.328
  22520588.852     4258454.236 6   3357530.395 9  22520594.184
 94  3 23 22  2 30.0010000  0  6  2 27 26  7 15 19
  21294766.231   -16007859.791 8 -12323108.366 9  21294769.560
  20719178.950   -16354288.947 8 -12628202.292 9  20719182.442
  23426226.966    -5776985.706 6  -4371337.708 9  23426230.399
  21253577.630   -15685406.518 7 -12099684.242 9  21253581.919
  24014354.630    -1875073.976 5  -1408992.093 9  24014362.509
  22535033.817     4334364.319 6   3416681.032 9  22535040.110
 94  3 23 22  3  0.0010000  0  6  2 27 26  7 15 19
  21294933.786   -16006979.508 8 -12322422.425 9  21294937.290
  20726602.825   -16315276.295 8 -12597802.843 9  20726606.282
  23417423.396    -5823245.946 6  -4407384.631 9  23417427.345
  21244270.567   -15734315.005 7 -12137794.713 9  21244274.798
  24010416.919    -1895768.018 5  -1425117.280 9  24010423.872
  22549534.208     4410563.123 6   3476056.650 9  22549540.513
 94  3 23 22  3 30.0010000  0  6  2 27 26  7 15 19
  21295130.771   -16005943.372 8 -12321615.039 9  21295134.263
  20734106.935   -16275841.544 8 -12567074.488 9  20734110.286
  23408709.028    -5869041.817 6  -4443069.716 9  23408712.731
  21235049.974   -15782770.039 7 -12175551.842 9  21235054.310
  24006568.278    -1915991.530 5  -1440875.809 9  24006575.196
  22564090.536     4487058.144 6   3535663.072 9  22564096.231
 94  3 23 22  4  0.0010000  0  6  2 27 26  7 15 19
  21295354.911   -16004767.178 8 -12320698.516 9  21295358.462
  20741693.419   -16235975.117 7 -12536009.765 9  20741696.888
  23400082.763    -5914370.878 6  -4478391.067 9  23400086.911
  21225912.739   -15830785.523 7 -12212966.469 9  21225916.888
  24002809.302    -1935746.406 5  -1456269.182 9  24002816.017
  22578703.161     4563845.084 6   3595496.970 9  22578708.856
 94  3 23 22  4 30.0010000  0  6  2 27 26  7 15 19
  21295605.825   -16003448.181 8 -12319670.722 9  21295609.270
  20749363.067   -16195670.101 7 -12504603.286 9  20749366.571
  23391547.013    -5959229.274 6  -4513345.640 9  23391551.161
  21216858.122   -15878367.656 7 -12250043.414 9  21216862.353
  23999138.685    -1955037.252 5  -1471300.987 9  23999145.907
  22593369.575     4640917.909 6   3655553.632 9  22593374.872
 94  3 23 22  5  0.0010000  0  6  2 27 26  7 15 19
  21295885.794   -16001977.177 8 -12318524.478 9  21295889.274
  20757123.763   -16154887.663 8 -12472824.788 9  20757127.091
  23383103.427    -6003599.773 6  -4547920.043 9  23383107.763
  21207886.606   -15925515.327 7 -12286781.820 9  21207890.837
  23995558.591    -1973849.471 5  -1485959.788 9  23995565.743
  22608095.317     4718302.704 6   3715853.386 9  22608101.235
 94  3 23 22  5 30.0010000  0  6  2 27 26  7 15 19
  21296194.450   -16000354.529 8 -12317260.071 9  21296197.720
  20764974.146   -16113633.486 7 -12440678.703 9  20764977.685
  23374752.255    -6047486.312 6  -4582117.340 9  23374755.817
  21198995.067   -15972238.957 7 -12323189.796 9  21198999.392
  23992070.114    -1992182.318 5  -1500245.099 9  23992076.630
  22622882.067     4796007.319 6   3776402.351 9  22622888.349
 94  3 23 22  6  0.0010000  0  6  2 27 26  7 15 19
  21296532.560   -15998578.697 8 -12315876.300 9  21296535.946
  20772912.161   -16071919.165 7 -12408174.059 9  20772915.712
  23366490.864    -6090900.223 6  -4615946.353 9  23366494.919
  21190187.396   -16018521.608 7 -12359254.162 9  21190191.603
  23988671.114    -2010042.098 5  -1514161.760 9  23988677.985
  22637727.708     4874020.007 6   3837191.369 9  22637733.872
 94  3 23 22  6 30.0010000  0  6  2 27 26  7 15 19
  21296901.411   -15996640.314 8 -12314365.866 9  21296904.903
  20780936.224   -16029752.087 7 -12375316.629 9  20780939.751
  23358319.856    -6133838.734 6  -4649404.928 9  23358324.321
  21181467.974   -16064344.914 7 -12394960.590 9  21181472.122
  23985363.458    -2027425.044 5  -1527706.866 9  23985370.856
  22652633.880     4952351.749 6   3898228.990 9  22652639.997
 94  3 23 22  7  0.0010000  0  6  2 27 26  7 15 19
  21297298.700   -15994551.979 8 -12312738.584 9  21297302.263
  20789044.091   -15987144.310 7 -12342115.780 9  20789047.747
  23350237.989    -6176310.088 6  -4682499.484 9  23350242.079
  21172836.435   -16109703.110 7 -12430304.597 9  21172840.466
  23982146.833    -2044325.775 5  -1540876.208 9  23982153.739
  22667600.544     5031002.598 6   3959515.261 9  22667606.204
 94  3 23 22  7 30.0010000  0  6  2 27 26  7 15 19
  21297725.778   -15992308.399 8 -12310990.332 9  21297729.095
  20797234.052   -15944107.634 7 -12308580.738 9  20797237.708
  23342243.856    -6218317.868 6  -4715232.813 9  23342248.075
  21164296.481   -16154581.668 7 -12465274.857 9  21164300.560
  23979023.560    -2060739.519 5  -1553666.098 9  23979030.513
  22682626.044     5109959.635 6   4021040.134 9  22682631.376
 94  3 23 22  8  0.0010000  0  6  2 27 26  7 15 19
  21298183.255   -15989903.331 8 -12309116.250 9  21298186.700
  20805504.224   -15900645.623 7 -12274714.268 9  20805508.114
  23334337.864    -6259864.338 6  -4747606.678 9  23334341.802
  21155847.231   -16198982.091 7 -12499872.551 9  21155851.310
  23975992.005    -2076668.018 5  -1566077.875 9  23975998.708
  22697703.614     5189194.584 6   4082781.563 9  22697709.497
 94  3 23 22  8 30.0010000  0  6  2 27 26  7 15 19
  21298672.927   -15987330.018 8 -12307111.069 9  21298676.419
  20813855.575   -15856760.103 7 -12240517.789 9  20813859.243
  23326523.880    -6300929.638 6  -4779605.594 9  23326528.075
  21147484.739   -16242926.004 7 -12534114.517 9  21147488.841
  23973055.630    -2092100.279 5  -1578102.964 9  23973063.028
  22712833.856     5268701.694 6   4144735.056 9  22712839.306
 94  3 23 22  9  0.0010000  0  6  2 27 26  7 15 19
  21299193.138   -15984596.318 8 -12304980.909 9  21299196.606
  20822285.271   -15812461.234 7 -12205999.225 9  20822288.997
  23318799.372    -6341519.392 6  -4811233.964 9  23318803.251
  21139206.950   -16286425.799 7 -12568010.419 9  21139211.052
  23970212.005    -2107044.563 5  -1589747.805 9  23970219.040
  22728009.521     5348453.480 6   4206879.208 9  22728015.157
 94  3 23 22  9 30.0010000  0  6  2 27 26  7 15 19
  21299750.911   -15981665.122 8 -12302696.858 9  21299754.321
  20830797.302   -15767730.849 7 -12171144.407 9  20830800.981
  23311168.575    -6381617.668 6  -4842479.363 9  23311173.075
  21131016.067   -16329470.010 7 -12601551.325 9  21131020.099
  23967462.841    -2121494.223 5  -1601007.219 9  23967470.157
  22743231.536     5428444.099 6   4269209.456 9  22743237.595
 94  3 23 22 10  0.0010000  0  6  2 27 26  7 15 19
  21300343.880   -15978549.021 8 -12300268.722 9  21300347.395
  20839390.958   -15722572.214 7 -12135955.895 9  20839394.614
  23303630.325    -6421233.544 6  -4873348.874 9  23303634.556
  21122909.958   -16372068.216 7 -12634744.693 9  21122914.001
  23964805.622    -2135454.306 5  -1611885.130 9  23964812.739
  22758499.091     5508673.723 6   4331725.949 9  22758505.091
 94  3 23 22 10 30.0010000  0  6  2 27 26  7 15 19
  21300972.200   -15975246.797 8 -12297695.559 9  21300975.751
  20848070.411   -15676960.931 7 -12100414.658 9  20848074.114
  23296185.403    -6460358.573 6  -4903835.900 9  23296189.622
  21114896.646   -16414179.059 7 -12667558.295 9  21114900.536
  23962245.216    -2148908.086 5  -1622368.525 9  23962251.603
  22773820.052     5589186.860 6   4394463.357 9  22773826.251
 94  3 23 22 11  0.0010000  0  6  2 27 26  7 15 19
  21301633.896   -15971770.611 8 -12294986.835 9  21301637.458
  20856838.997   -15630882.007 7 -12064509.029 9  20856842.524
  23288830.974    -6499007.378 6  -4933951.842 9  23288834.548
  21106980.606   -16455775.442 7 -12699971.025 9  21106984.544
  23959780.419    -2161859.666 5  -1632460.587 9  23959787.548
  22789196.638     5669990.476 6   4457427.104 9  22789202.978
 94  3 23 22 11 30.0010000  0  6  2 27 26  7 15 19
  21302323.661   -15968143.985 8 -12292160.891 9  21302327.364
  20865697.763   -15584327.794 7 -12028233.046 9  20865701.571
  23281565.896    -6537184.016 6  -4963699.866 9  23281569.317
  21099162.247   -16496862.803 7 -12731987.113 9  21099166.114
  23957410.817    -2174313.132 5  -1642164.518 9  23957418.052
  22804630.349     5751096.458 6   4520626.478 9  22804636.864
 94  3 23 22 12  0.0010000  0  6  2 27 26  7 15 19
  21303038.419   -15964387.928 8 -12289234.090 9  21303042.099
  20874648.474   -15537292.336 7 -11991582.072 9  20874652.282
  23274394.333    -6574872.578 6  -4993067.560 9  23274398.259
  21091442.200   -16537431.850 7 -12763599.318 9  21091446.185
  23955136.638    -2186261.347 5  -1651474.741 9  23955144.423
  22820127.716     5832532.960 6   4584083.395 9  22820134.067
 94  3 23 22 12 30.0010000  0  6  2 27 26  7 15 19
  21303779.864   -15960492.349 8 -12286198.567 9  21303783.497
  20883689.544   -15489779.506 7 -11954559.110 9  20883693.423
  23267316.786    -6612060.855 6  -5022045.427 9  23267321.122
  21083818.802   -16577494.413 7 -12794816.866 9  21083822.657
  23952958.458    -2197708.498 5  -1660394.517 9  23952964.587
  22835687.380     5914301.470 6   4647799.017 9  22835693.907
 94  3 23 22 13  0.0010000  0  6  2 27 26  7 15 19
  21304550.544   -15956442.242 8 -12283042.636 9  21304554.165
  20892820.919   -15441795.089 7 -11917168.687 9  20892824.646
  23260338.380    -6648733.719 6  -5050621.672 9  23260342.364
  21076288.013   -16617067.707 7 -12825653.161 9  21076291.927
  23950876.567    -2208648.350 5  -1668919.001 9  23950883.825
  22851310.169     5996399.580 6   4711771.469 9  22851316.485
 94  3 23 22 13 30.0010000  0  6  2 27 26  7 15 19
  21305352.036   -15952230.188 8 -12279760.514 9  21305355.716
  20902039.419   -15393352.354 7 -11879421.130 9  20902043.298
  23253459.786    -6684880.601 6  -5078788.063 9  23253464.497
  21068847.255   -16656169.140 7 -12856121.776 9  21068851.157
  23948892.294    -2219076.126 5  -1677044.452 9  23948899.810
  22866994.919     6078823.210 6   4775997.570 9  22867001.341
 94  3 23 22 14  0.0010000  0  6  2 27 26  7 15 19
  21306184.817   -15947854.596 8 -12276350.954 9  21306188.474
  20911341.036   -15344473.394 7 -11841333.660 9  20911344.798
  23246677.622    -6720521.702 6  -5106560.343 9  23246682.157
  21061492.716   -16694817.216 7 -12886237.125 9  21061496.548
  23947003.669    -2229002.641 5  -1684779.304 9  23947010.985
  22882736.528     6161543.936 6   4840455.173 9  22882743.021
 94  3 23 22 14 30.0010000  0  6  2 27 26  7 15 19
  21307049.138   -15943311.956 8 -12272811.237 9  21307052.712
  20920722.880   -15295169.762 7 -11802915.271 9  20920726.618
  23239987.896    -6755674.183 6  -5133951.878 9  23239992.126
  21054223.630   -16733015.803 7 -12916002.221 9  21054227.509
  23945209.747    -2238424.865 5  -1692121.202 9  23945216.993
  22898530.646     6244540.267 6   4905127.535 9  22898536.810
 94  3 23 22 15  0.0010000  0  6  2 27 26  7 15 19
  21307943.028   -15938614.752 8 -12269151.076 9  21307946.497
  20930186.685   -15245437.144 7 -11764162.610 9  20930190.470
  23233391.685    -6790339.776 6  -5160964.013 9  23233395.657
  21047043.606   -16770746.278 7 -12945402.556 9  21047047.614
  23943515.481    -2247329.454 5  -1699059.755 9  23943522.423
  22914375.099     6327805.210 6   4970009.205 9  22914381.345
 94  3 23 22 15 30.0010000  0  6  2 27 26  7 15 19
  21308862.989   -15933779.545 8 -12265383.384 9  21308866.575
  20939730.372   -15195284.062 7 -11725082.307 9  20939734.204
  23226883.974    -6824537.750 6  -5187611.787 9  23226887.524
  21039952.349   -16808011.172 7 -12974440.097 9  21039956.450
  23941917.591    -2255721.397 5  -1705598.875 9  23941925.552
  22930268.575     6411325.012 6   5035089.464 9  22930275.044
 94  3 23 22 16  0.0010000  0  6  2 27 26  7 15 19
  21309808.911   -15928807.731 8 -12261509.241 9  21309812.685
  20949354.099   -15144711.789 7 -11685675.362 9  20949357.942
  23220465.575    -6858266.710 6  -5213894.086 9  23220469.759
  21032950.552   -16844805.766 7 -13003111.173 9  21032954.536
  23940418.919    -2263602.027 5  -1711739.559 9  23940425.802
  22946211.927     6495107.701 6   5100374.569 9  22946217.833
 94  3 23 22 16 30.0010000  0  6  2 27 26  7 15 19
  21310779.505   -15923708.150 8 -12257535.538 9  21310783.243
  20959057.185   -15093721.027 7 -11645942.325 9  20959061.052
  23214139.966    -6891509.373 6  -5239797.449 9  23214144.056
  21026040.724   -16881116.716 7 -13031405.378 9  21026044.755
  23939017.731    -2270965.610 5  -1717477.365 9  23939024.954
  22962206.958     6579161.841 6   5165871.193 9  22962212.571
 94  3 23 22 17  0.0010000  0  6  2 27 26  7 15 19
  21311774.560   -15918479.172 8 -12253461.005 9  21311778.356
  20968841.060   -15042306.173 7 -11605878.835 9  20968844.903
  23207909.317    -6924250.319 6  -5265309.866 9  23207913.278
  21019222.614   -16916945.687 7 -13059324.019 9  21019226.915
  23937714.950    -2277812.295 5  -1722812.401 9  23937722.372
  22978254.239     6663491.061 6   5231582.166 9  22978260.040
 94  3 23 22 17 30.0010000  0  6  2 27 26  7 15 19
  21312798.786   -15913095.674 8 -12249266.069 9  21312802.595
  20978709.388   -14990448.019 7 -11565469.910 9  20978713.149
  23201777.239    -6956473.621 6  -5290418.925 9  23201781.306
  21012498.927   -16952280.006 7 -13086857.212 9  21012503.099
  23936511.403    -2284137.099 5  -1727740.793 9  23936518.403
  22994356.231     6748106.931 6   5297516.507 9  22994362.243
 94  3 23 22 18  0.0010000  0  6  2 27 26  7 15 19
  21313853.575   -15907553.448 8 -12244947.448 9  21313857.325
  20988661.997   -14938147.895 7 -11524716.602 9  20988665.946
  23195745.427    -6988171.911 6  -5315118.877 9  23195749.271
  21005868.122   -16987123.041 7 -13114007.588 9  21005872.552
  23935406.286    -2289945.972 5  -1732267.148 9  23935412.966
  23010511.200     6833001.324 6   5363667.860 9  23010517.188
 94  3 23 22 18 30.0010000  0  6  2 27 26  7 15 19
  21314941.583   -15901836.338 8 -12240492.552 9  21314945.368
  20998701.138   -14885394.054 7 -11483609.747 9  20998704.806
  23189811.497    -7019355.385 6  -5339417.683 9  23189815.657
  20999333.716   -17021462.308 7 -13140765.423 9  20999337.935
  23934399.896    -2295228.561 5  -1736383.420 9  23934406.931
  23026718.380     6918169.126 6   5430032.274 9  23026724.567
 94  3 23 22 19  0.0010000  0  6  2 27 26  7 15 19
  21316064.083   -15895937.349 8 -12235895.939 9  21316067.798
  21008827.028   -14832180.756 7 -11442144.871 9  21008830.755
  23183971.458    -7050044.147 6  -5363330.999 9  23183975.185
  20992892.724   -17055309.804 7 -13167140.055 9  20992896.649
  23933494.567    -2299988.582 5  -1740092.511 9  23933501.388
  23042977.396     7003611.144 6   5496610.350 9  23042984.075
 94  3 23 22 19 30.0010000  0  6  2 27 26  7 15 19
  21317221.833   -15889852.799 8 -12231154.728 9  21317225.548
  21019040.989   -14778504.484 7 -11400319.234 9  21019044.962
  23178224.247    -7080245.752 6  -5386864.711 9  23178228.021
  20986545.036   -17088667.008 7 -13193132.650 9  20986549.032
  23932689.411    -2304222.075 5  -1743391.289 9  23932696.716
  23059289.208     7089330.067 6   5563404.207 9  23059295.337
 94  3 23 22 20  0.0010000  0  7  2 27 26  7 15 13 19
  21318412.200   -15883597.856 8 -12226280.748 9  21318415.786
  21029340.247   -14724382.951 7 -11358146.645 9  21029344.149
  23172567.341    -7109974.105 6  -5410029.649 9  23172571.431
  20980287.458   -17121550.150 7 -13218755.843 9  20980291.524
  23931982.747    -2307933.856 5  -1746283.563 9  23931989.368
  24411503.677      -62921.30013    -66341.01719  24411515.021
  23075654.005     7175327.975 6   5630415.446 9  23075660.122
 94  3 23 22 20 30.0010000  0  7  2 27 26  7 15 13 19
  21319632.317   -15877185.806 8 -12221284.347 9  21319636.056
  21039725.145   -14669810.875 7 -11315622.980 9  21039728.978
  23166999.317    -7139233.198 6  -5432828.933 9  23167003.876
  20974118.755   -17153966.673 7 -13244015.438 9  20974122.856
  23931375.630    -2311125.150 5  -1748770.254 9  23931382.087
  24390389.403     -173876.570 3   -152799.291 9  24390400.614
  23092072.083     7261604.066 6   5697643.445 9  23092077.872
 94  3 23 22 21  0.0010000  0  7  2 27 26  7 15 13 19
  21320878.786   -15870635.829 8 -12216180.473 9  21320882.489
  21050192.349   -14614804.876 7 -11272761.203 9  21050196.181
  23161524.927    -7168001.999 6  -5455246.178 9  23161529.345
  20968037.021   -17185926.706 7 -13268919.326 9  20968040.958
  23930866.630    -2313799.788 5  -1750854.356 9  23930873.192
  24369295.950     -284720.963 3   -239171.175 9  24369307.247
  23108541.325     7348151.783 6   5765083.109 9  23108548.146
 94  3 23 22 21 30.0010000  0  7  2 27 26  7 15 13 19
  21322150.497   -15863951.629 8 -12210972.010 9  21322154.224
  21060742.638   -14559363.540 7 -11229560.196 9  21060746.446
  23156149.263    -7196251.814 6  -5477259.017 9  23156153.353
  20962044.075   -17217418.771 7 -13293458.566 9  20962048.013
  23930458.020    -2315946.268 5  -1752526.910 9  23930464.501
  24348226.606     -395440.983 3   -325446.165 9  24348237.497
  23125063.200     7434971.555 6   5832734.769 9  23125069.962
 94  3 23 22 22  0.0010000  0  7  2 27 26  7 15 13 19
  21323445.677   -15857147.615 8 -12205670.185 9  21323449.310
  21071375.552   -14503486.449 7 -11186019.634 9  21071379.337
  23150872.153    -7223981.687 6  -5498866.707 9  23150876.360
  20956141.333   -17248438.754 7 -13317629.946 9  20956145.282
  23930149.263    -2317570.113 5  -1753792.204 9  23930156.239
  24327180.270     -506040.482 3   -411627.241 9  24327190.872
  23141635.989     7522064.375 6   5900599.184 9  23141642.833
 94  3 23 22 22 30.0010000  0  7  2 27 26  7 15 13 19
  21324764.028   -15850219.201 8 -12200271.424 9  21324767.685
  21082092.981   -14447166.022 7 -11142133.616 9  21082096.696
  23145697.028    -7251179.294 6  -5520059.635 9  23145701.247
  20950331.317   -17278970.823 7 -13341421.136 9  20950335.255
  23929941.380    -2318663.205 5  -1754643.926 9  23929948.544
  24306158.442     -616509.374 3   -497706.549 9  24306169.235
  23158260.521     7609426.354 6   5968673.339 9  23158267.247
 94  3 23 22 23  0.0010000  0  7  2 27 26  7 15 13 19
  21326106.856   -15843163.484 8 -12194773.466 9  21326110.419
  21092893.935   -14390406.514 7 -11097905.463 9  21092897.661
  23140624.310    -7277835.070 6  -5540830.362 9  23140628.024
  20944615.802   -17309005.433 7 -13364824.696 9  20944619.610
  23929834.716    -2319222.586 5  -1755079.757 9  23929841.454
  24285161.974     -726842.636 3   -583680.173 9  24285172.677
  23174937.474     7697063.984 6   6036962.291 9  23174943.942
 94  3 23 22 23 30.0010000  0  7  2 27 26  7 15 13 19
  21327474.497   -15835976.606 8 -12189173.303 9  21327478.165
  21103783.130   -14333184.676 7 -11053317.047 9  21103787.044
  23135650.935    -7303971.297 6  -5561196.239 9  23135654.790
  20938995.927   -17338538.570 7 -13387837.499 9  20938999.735
  23929828.497    -2319254.119 5  -1755104.272 9  23929835.165
  24264191.427     -837044.267 3   -669551.230 9  24264202.083
  23191668.896     7784985.015 6   6105472.058 9  23191675.704
 94  3 23 22 24  0.0010000  0  7  2 27 26  7 15 13 19
  21328870.294   -15828641.524 8 -12183457.658 9  21328873.903
  21114760.896   -14275496.727 7 -11008365.434 9  21114764.599
  23130772.872    -7329605.140 6  -5581170.659 9  23130776.856
  20933472.599   -17367563.832 7 -13410454.558 9  20933476.478
  23929922.552    -2318759.150 5  -1754718.515 9  23929928.353
  24243245.177     -947113.906 3   -755319.422 9  24243255.763
  23208452.271     7873181.404 6   6174196.390 9  23208458.610
 94  3 23 22 24 30.0010000  0  7  2 27 26  7 15 13 19
  21330294.942   -15821153.832 8 -12177623.095 9  21330298.528
  21125823.411   -14217361.559 7 -10963065.343 9  21125827.185
  23125989.606    -7354742.486 6  -5600758.190 9  23125993.579
  20928042.294   -17396099.967 8 -13432690.480 9  20928045.880
  23930116.552    -2317740.120 5  -1753924.424 9  23930122.810
  24222324.716    -1057051.655 3   -840984.857 9  24222335.665
  23225283.458     7961631.672 6   6243118.551 9  23225290.056
 94  3 23 22 25  0.0010000  0  7  2 27 26  7 15 13 19
  21331752.474   -15813495.198 8 -12171655.333 9  21331755.966
  21136974.989   -14158759.323 7 -10917401.297 9  21136978.810
  23121301.497    -7379376.827 6  -5619953.775 9  23121305.388
  20922707.622   -17424133.844 7 -13454535.030 9  20922711.396
  23930413.224    -2316182.304 5  -1752710.499 9  23930419.505
  24201432.185    -1166841.040 3   -926534.677 9  24201442.923
  23242166.052     8050351.456 5   6312250.742 9  23242172.708
 94  3 23 22 25 30.0010000  0  7  2 27 26  7 15 13 19
  21333242.091   -15805666.804 8 -12165555.288 9  21333245.571
  21148214.122   -14099699.294 7 -10871380.530 9  21148217.942
  23116707.630    -7403518.987 6  -5638765.844 9  23116711.345
  20917468.521   -17451666.874 7 -13475989.311 9  20917472.235
  23930812.263    -2314086.274 5  -1751077.167 9  23930819.591
  24180568.028    -1276480.993 3  -1011968.066 9  24180578.724
  23259097.591     8139325.279 6   6381580.855 9  23259104.188
 94  3 23 22 26  0.0010000  0  7  2 27 26  7 15 13 19
  21334762.028   -15797679.932 8 -12159331.755 9  21334765.638
  21159532.692   -14040219.152 7 -10825032.398 9  21159536.478
  23112209.841    -7427155.672 6  -5657184.041 9  23112213.239
  20912321.372   -17478713.126 7 -13497064.284 9  20912325.216
  23931313.575    -2311452.842 5  -1749025.108 9  23931319.915
  24159732.794    -1385970.110 3  -1097283.946 9  24159742.817
  23276076.286     8228546.836 6   6451104.021 9  23276082.485
 94  3 23 22 26 30.0010000  0  7  2 27 26  7 15 13 19
  21336310.778   -15789541.731 8 -12152990.301 9  21336314.376
  21170929.286   -13980329.881 7 -10778365.470 9  21170933.306
  23107810.747    -7450271.865 6  -5675196.650 9  23107814.380
  20907265.489   -17505282.027 7 -13517767.293 9  20907269.216
  23931915.935    -2308284.383 5  -1746556.125 9  23931922.274
  24138926.067    -1495308.758 3  -1182482.552 9  24138936.552
  23293103.575     8318026.318 6   6520828.156 9  23293110.114
 94  3 23 22 27  0.0010000  0  7  2 27 26  7 15 13 19
  21337887.958   -15781252.372 8 -12146531.062 9  21337891.474
  21182406.091   -13920017.953 7 -10731369.210 9  21182410.075
  23103512.146    -7472860.191 6  -5692797.937 9  23103515.778
  20902302.528   -17531362.128 7 -13538089.422 9  20902306.220
  23932620.935    -2304578.251 5  -1743668.208 9  23932627.333
  24118148.192    -1604492.348 3  -1267560.334 9  24118159.165
  23310181.177     8407770.705 6   6590758.733 9  23310187.997
 94  3 23 22 27 30.0010000  0  7  2 27 26  7 15 13 19
  21339494.466   -15772810.992 8 -12139953.363 9  21339497.853
  21193962.661   -13859289.145 7 -10684048.101 9  21193966.599
  23099317.028    -7494907.239 6  -5709977.446 9  23099320.556
  20897430.067   -17556966.842 7 -13558041.116 9  20897433.888
  23933428.997    -2300333.783 5  -1740360.795 9  23933435.419
  24097401.583    -1713518.106 3  -1352515.137 9  24097412.294
  23327309.935     8497781.065 6   6660896.540 9  23327317.087
 94  3 23 22 28  0.0010000  0  7  2 27 26  7 15 13 19
  21341129.153   -15764219.756 8 -12133258.893 9  21341132.599
  21205598.185   -13798144.259 7 -10636402.772 9  21205602.017
  23095223.513    -7516418.048 6  -5726739.108 9  23095227.321
  20892644.286   -17582115.077 7 -13577637.113 9  20892648.282
  23934337.622    -2295558.079 6  -1736639.436 9  23934343.880
  24076683.520    -1822390.965 3  -1437350.787 9  24076694.099
  23344488.372     8588052.045 6   6731237.413 9  23344495.181
 94  3 23 22 28 30.0010000  0  7  2 27 26  7 15 13 19
  21342793.302   -15755474.762 8 -12126444.612 9  21342796.771
  21217319.200   -13736551.080 7 -10588408.122 9  21217322.997
  23091230.403    -7537403.438 6  -5743091.353 9  23091234.142
  20887948.997   -17606789.844 7 -13596864.171 9  20887952.888
  23935349.161    -2290243.270 6  -1732497.996 9  23935355.618
  24055996.341    -1931100.739 3  -1522059.375 9  24056006.646
  23361714.981     8678578.949 6   6801777.735 9  23361721.790
 94  3 23 22 29  0.0010000  0  7  2 27 26  7 15 13 19
  21344483.802   -15746591.173 8 -12119522.335 9  21344487.364
  21229126.747   -13674499.885 7 -10540056.584 9  21229130.813
  23087335.497    -7557871.213 7  -5759040.267 9  23087339.247
  20883345.677   -17630981.326 7 -13615714.644 9  20883349.532
  23936463.122    -2284387.286 6  -1727934.871 9  23936469.099
  24035341.388    -2039643.320 3  -1606637.686 9  24035351.040
  23378991.161     8769364.849 6   6872519.872 9  23378998.056
 94  3 23 22 29 30.0010000  0  7  2 27 26  7 15 13 19
  21346200.356   -15737570.484 8 -12112493.227 9  21346203.989
  21241019.302   -13612005.295 7 -10491359.546 9  21241023.251
  23083537.396    -7577830.267 7  -5774592.769 9  23083541.110
  20878834.911   -17654685.032 7 -13634185.035 9  20878838.837
  23937680.356    -2277991.461 6  -1722951.080 9  23937686.954
  24014718.114    -2148017.811 3  -1691085.016 9  24014727.911
  23396317.817     8860417.601 5   6943469.897 9  23396325.556
 94  3 23 22 30  0.0010000  0  7  2 27 26  7 15 13 19
  21347943.052   -15728413.203 8 -12105357.685 9  21347946.521
  21252996.638   -13549064.631 7 -10442314.919 9  21253000.517
  23079834.716    -7597287.394 6  -5789754.167 9  23079838.396
  20874421.364   -17677878.834 7 -13652258.097 9  20874425.243
  23939000.435    -2271052.302 5  -1717543.931 9  23939007.278
  23994128.271    -2256218.439 4  -1775396.874 9  23994137.704
  23413695.185     8951738.147 5   7014628.606 9  23413702.759
 94  3 23 22 30 30.0010000  0  7  2 27 26  7 15 13 19
  21349714.505   -15719103.959 8 -12098103.730 9  21349717.962
  21265059.849   -13485670.483 7 -10392916.923 9  21265063.821
  23076230.927    -7616225.259 6  -5804510.944 9  23076234.970
  20870108.067   -17700544.964 7 -13669919.981 9  20870111.841
  23940425.669    -2263562.302 6  -1711707.531 9  23940432.067
  23973572.864    -2364235.763 4  -1859565.875 9  23973582.548
  23431127.442     9043342.827 6   7086008.756 9  23431133.735
 94  3 23 22 31  0.0010000  0  7  2 27 26  7 15 13 19
  21351516.521   -15709634.532 8 -12090724.955 9  21351519.919
  21277205.099   -13421848.547 7 -10343185.595 9  21277208.907
  23072728.005    -7634633.314 6  -5818854.869 9  23072731.849
  20865891.802   -17722701.676 7 -13687184.922 9  20865895.517
  23941955.028    -2255525.715 6  -1705445.231 9  23941960.595
  23953052.075    -2472071.736 4  -1943593.608 9  23953061.415
  23448612.638     9135226.123 5   7157605.990 9  23448619.966
 94  3 23 22 31 30.0010000  0  7  2 27 26  7 15 13 19
  21353350.161   -15699997.479 8 -12083215.562 9  21353353.782
  21289427.552   -13357619.813 7 -10293137.275 9  21289431.419
  23069324.185    -7652519.064 6  -5832791.815 9  23069328.169
  20861768.880   -17744368.526 7 -13704068.150 9  20861772.489
  23943587.888    -2246949.040 6  -1698762.091 9  23943593.396
  23932565.247    -2579730.702 4  -2027483.401 9  23932574.083
  23466145.036     9227360.005 5   7229398.458 9  23466152.341
 94  3 23 22 32  0.0010000  0  7  2 27 26  7 15 13 19
  21355216.942   -15690188.789 8 -12075572.424 9  21355220.458
  21301729.856   -13292969.751 7 -10242760.644 9  21301733.806
  23066022.981    -7669867.081 6  -5846309.733 9  23066027.306
  20857738.427   -17765548.430 7 -13720571.945 9  20857742.001
  23945324.239    -2237824.561 6  -1691652.087 9  23945330.274
  23912113.770    -2687202.540 4  -2111227.367 9  23912122.798
  23483723.239     9319733.899 6   7301377.997 9  23483730.556
 94  3 23 22 32 30.0010000  0  7  2 27 26  7 15 13 19
  21357114.942   -15680214.191 8 -12067800.003 9  21357118.446
  21314112.286   -13227900.023 7 -10192057.003 9  21314116.364
  23062824.521    -7686677.592 6  -5859408.831 9  23062828.528
  20853798.661   -17786251.259 7 -13736703.995 9  20853802.341
  23947163.841    -2228152.967 6  -1684115.760 9  23947170.063
  23891697.755    -2794485.668 4  -2194824.267 9  23891707.231
  23501345.419     9412338.227 5   7373537.069 9  23501353.134
 94  3 23 22 33  0.0010000  0  7  2 27 26  7 15 13 19
  21359039.802   -15670099.448 8 -12059918.386 9  21359043.200
  21326573.544   -13162415.699 7 -10141030.299 9  21326577.599
  23059724.419    -7702966.467 6  -5872101.457 9  23059728.532
  20849950.278   -17806475.349 7 -13752463.000 9  20849954.087
  23949108.435    -2217935.979 6  -1676154.441 9  23949115.341
  23871317.888    -2901579.422 3  -2278273.631 9  23871327.669
  23519008.247     9505157.321 5   7445863.483 9  23519015.927
 94  3 23 22 33 30.0010000  0  7  2 27 26  7 15 13 19
  21360990.286   -15659849.468 8 -12051931.387 9  21360993.825
  21339119.849   -13096485.385 7 -10089656.072 9  21339123.786
  23056725.177    -7718727.477 6  -5884382.763 9  23056729.267
  20846196.653   -17826200.233 8 -13767833.017 9  20846200.333
  23951157.942    -2207163.449 6  -1667760.225 9  23951164.282
  23850976.716    -3008471.414 3  -2361565.755 9  23850986.599
  23536716.396     9598210.778 6   7518372.517 9  23536723.993
 94  3 23 22 34  0.0010000  0  7  2 27 26  7 15 13 19
  21362963.419   -15649480.426 8 -12043851.611 9  21362966.993
  21351751.989   -13030102.306 7 -10037929.036 9  21351755.821
  23053825.138    -7733965.078 6  -5896256.219 9  23053829.415
  20842536.888   -17845431.725 8 -13782818.572 9  20842540.532
  23953312.606    -2195843.874 6  -1658939.742 9  23953318.290
  23830673.302    -3115167.427 4  -2444705.184 9  23830682.825
  23554469.302     9691503.088 6   7591067.668 9  23554477.063
 94  3 23 22 34 30.0010000  0  7  2 27 26  7 15 13 19
  21364959.380   -15638991.556 8 -12035678.461 9  21364963.036
  21364469.638   -12963271.354 7  -9985853.016 9  21364473.540
  23051024.919    -7748682.362 6  -5907724.226 9  23051028.856
  20838971.106   -17864168.727 8 -13797418.810 9  20838974.798
  23955570.310    -2183977.251 6  -1649692.997 9  23955576.790
  23810407.130    -3221665.374 4  -2527690.284 9  23810416.470
  23572269.552     9785045.927 5   7663958.048 9  23572277.560
 94  3 23 22 35  0.0010000  0  7  2 27 26  7 15 13 19
  21366979.833   -15628373.175 8 -12027404.394 9  21366983.548
  21377272.841   -12895989.892 7  -9933425.950 9  21377276.954
  23048324.200    -7762876.770 6  -5918784.796 9  23048328.290
  20835500.091   -17882411.523 8 -13811633.956 9  20835503.583
  23957934.575    -2171553.909 6  -1640012.436 9  23957940.903
  23790181.646    -3327952.905 5  -2610511.409 9  23790190.274
  23590121.872     9878859.092 6   7737059.064 9  23590129.657
 94  3 23 22 35 30.0010000  0  7  2 27 26  7 15 13 19
  21369026.192   -15617619.188 8 -12019024.663 9  21369029.884
  21390160.950   -12828262.179 7  -9880651.157 9  21390164.981
  23045720.833    -7776555.751 6  -5929443.732 9  23045724.759
  20832117.700   -17900185.388 8 -13825483.697 9  20832121.228
  23960402.372    -2158580.849 6  -1629903.541 9  23960408.735
  23769994.716    -3434034.514 5  -2693172.090 9  23770003.196
  23608025.474     9972941.465 6   7810369.861 9  23608033.435
 94  3 23 22 36  0.0010000  0  7  2 27 26  7 15 13 19
  21371100.763   -15606717.855 8 -12010530.114 9  21371104.372
  21403130.692   -12760106.103 7  -9827542.568 9  21403134.853
  23043214.435    -7789726.002 6  -5939706.269 9  23043218.911
  20828824.653   -17917489.972 8 -13838967.766 9  20828828.310
  23962977.130    -2145056.173 6  -1619364.793 9  23962983.868
  23749847.466    -3539906.310 5  -2775669.291 9  23749856.095
  23625979.263    10067289.440 5   7883887.591 9  23625987.728
 94  3 23 22 36 30.0010000  0  7  2 27 26  7 15 13 19
  21373204.802   -15595660.113 8 -12001913.688 9  21373208.622
  21416180.841   -12691526.130 7  -9774103.661 9  21416184.989
  23040803.692    -7802397.502 6  -5949580.157 9  23040808.087
  20825623.052   -17934315.071 8 -13852078.206 9  20825626.685
  23965655.567    -2130974.935 6  -1608392.383 9  23965661.685
  23729742.177    -3645560.517 5  -2857996.972 9  23729750.274
  23643983.974    10161904.142 5   7957613.150 9  23643991.829
 94  3 23 22 37  0.0010000  0  7  2 27 26  7 15 13 19
  21375338.896   -15584447.068 8 -11993176.247 9  21375342.563
  21429314.349   -12622510.712 7  -9720325.458 9  21429318.450
  23038487.028    -7814569.122 6  -5959064.529 9  23038491.376
  20822512.856   -17950657.600 7 -13864812.619 9  20822516.548
  23968440.646    -2116340.749 6  -1596989.075 9  23968446.845
  23709677.731    -3750998.283 5  -2940156.001 9  23709686.044
  23662036.380    10256769.789 6   8031534.288 9  23662043.532
 94  3 23 22 37 30.0010000  0  7  2 27 26  7 15 13 19
  21377504.622   -15573064.679 8 -11984306.852 9  21377508.372
  21442531.716   -12553052.923 7  -9666202.552 9  21442535.829
  23036271.583    -7826213.775 6  -5968138.281 9  23036275.450
  20819499.942   -17966491.973 8 -13877151.069 9  20819503.587
  23971331.739    -2101147.892 6  -1585150.451 9  23971338.950
  23689655.919    -3856211.526 5  -3022140.091 9  23689664.103
  23680135.763    10351884.215 5   8105649.269 9  23680143.325
 94  3 23 22 38  0.0010000  0  7  2 27 26  7 15 13 19
  21379702.192   -15561517.318 8 -11975308.907 9  21379705.825
  21455829.653   -12483173.094 7  -9611750.783 9  21455833.567
  23034157.575    -7837321.003 6  -5976793.258 9  23034161.735
  20816586.146   -17981804.322 8 -13889082.740 9  20816589.603
  23974328.575    -2085400.556 6  -1572879.764 9  23974334.505
  23669677.208    -3961201.700 5  -3103950.380 9  23669684.989
  23698279.833    10447228.850 5   8179943.624 9  23698287.911
 94  3 23 22 38 30.0010000  0  7  2 27 26  7 15 13 19
  21381930.403   -15549807.382 8 -11966184.281 9  21381934.048
  21469206.950   -12412873.041 7  -9556971.569 9  21469211.181
  23032150.060    -7847874.271 6  -5985016.587 9  23032153.622
  20813769.802   -17996603.241 8 -13900614.341 9  20813773.247
  23977429.466    -2069104.059 5  -1560181.145 9  23977435.196
  23649740.060    -4065972.030 5  -3185589.379 9  23649747.595
  23716463.310    10542781.243 6   8254399.848 9  23716471.235
 94  3 23 22 39  0.0010000  0  7  2 27 26  7 15 13 19
  21384191.169   -15537926.517 8 -11956926.467 9  21384194.872
  21482664.239   -12342155.111 7  -9501866.739 9  21482668.282
  23030252.122    -7857846.268 6  -5992786.976 9  23030256.165
  20811052.036   -18010885.390 8 -13911743.266 9  20811055.634
  23980636.864    -2052249.569 5  -1547047.737 9  23980642.724
  23629846.724    -4170510.994 5  -3267048.097 9  23629854.372
  23734685.458    10638541.738 5   8329018.265 9  23734693.606
 94  3 23 22 39 30.0010000  0  7  2 27 26  7 15 13 19
  21386483.794   -15525879.455 8 -11947539.154 9  21386487.520
  21496198.013   -12271035.265 7  -9446448.725 9  21496202.021
  23028462.552    -7867249.128 6  -6000113.876 9  23028466.571
  20808431.036   -18024660.027 8 -13922476.728 9  20808434.575
  23983950.896    -2034832.802 5  -1533476.184 9  23983957.212
  23609998.716    -4274811.411 5  -3348320.933 9  23610006.462
  23752949.145    10734520.886 5   8403807.073 9  23752957.259
 94  3 23 22 40  0.0010000  0  7  2 27 26  7 15 13 19
  21388805.192   -15513681.112 8 -11938033.954 9  21388808.907
  21509808.364   -12199512.270 7  -9390716.569 9  21509812.548
  23026776.872    -7876109.019 6  -6007017.692 9  23026780.856
  20805898.903   -18037964.230 7 -13932843.614 9  20805902.442
  23987370.825    -2016861.526 5  -1519472.561 9  23987376.813
  23590195.536    -4378878.486 5  -3429411.967 9  23590202.763
  23771254.005    10830710.241 5   8478759.642 9  23771262.856
 94  3 23 22 40 30.0010000  0  7  2 27 26  7 15 13 19
  21391154.677   -15501333.684 8 -11928412.586 9  21391158.403
  21523497.458   -12127576.517 7  -9334662.789 9  21523501.642
  23025193.388    -7884428.668 6  -6013500.529 9  23025197.290
  20803456.208   -18050800.579 7 -13942845.945 9  20803459.911
  23990896.614    -1998332.723 5  -1505034.495 9  23990903.024
  23570437.247    -4482706.544 5  -3510316.778 9  23570444.946
  23789601.997    10927127.065 6   8553889.453 9  23789610.474
 94  3 23 22 41  0.0010000  0  7  2 27 26  7 15 13 19
  21393531.216   -15488844.985 8 -11918681.137 9  21393534.931
  21537267.497   -12055213.945 7  -9278276.417 9  21537271.552
  23023710.435    -7892219.983 6  -6019571.675 9  23023714.618
  20801103.896   -18063162.707 7 -13952478.745 9  20801107.657
  23994530.216    -1979238.440 5  -1490155.796 9  23994536.591
  23550726.606    -4586285.098 5  -3591027.168 9  23550734.067
  23807997.271    11023794.045 5   8629214.236 9  23808004.856
 94  3 23 22 41 30.0010000  0  7  2 27 26  7 15 13 19
  21395932.435   -15476226.987 8 -11908848.937 9  21395936.208
  21551121.083   -11982414.342 7  -9221549.504 9  21551125.103
  23022327.333    -7899490.870 6  -6025237.305 9  23022331.048
  20798841.060   -18075052.222 7 -13961743.277 9  20798844.821
  23998270.521    -1959582.647 5  -1474839.564 9  23998276.521
  23531063.521    -4689615.310 5  -3671544.057 9  23531071.325
  23826440.989    11120717.469 5   8704738.827 9  23826449.208
 94  3 23 22 42  0.0010000  0  7  2 27 26  7 15 13 19
  21398361.060   -15463463.764 8 -11898903.579 9  21398364.845
  21565057.778   -11909176.732 7  -9164481.284 9  21565061.821
  23021045.708    -7906225.350 6  -6030484.948 9  23021049.142
  20796673.528   -18086443.643 7 -13970619.686 9  20796677.173
  24002118.036    -1939362.822 5  -1459083.831 9  24002124.681
  23511448.716    -4792691.835 5  -3751863.271 9  23511456.243
  23844932.364    11217888.284 5   8780456.185 9  23844940.395
 94  3 23 22 42 30.0010000  0  7  2 27 26  7 15 13 19
  21400818.544   -15450550.110 8 -11888840.997 9  21400822.411
  21579077.552   -11835502.614 7  -9107072.936 9  21579081.630
  23019867.958    -7912415.993 6  -6035308.824 9  23019871.462
  20794607.583   -18097301.625 8 -13979080.428 9  20794611.134
  24006073.872    -1918579.488 5  -1442888.988 9  24006079.192
  23491882.036    -4895512.305 5  -3831982.953 9  23491890.419
  23863471.153    11315308.694 6   8856368.022 9  23863479.618
 94  3 23 22 43  0.0010000  0  7  2 27 26  7 15 13 19
  21403304.052   -15437487.487 7 -11878662.339 9  21403308.118
  21593181.935   -11761382.163 7  -9049316.800 9  21593185.989
  23018789.552    -7918080.408 6  -6039722.656 9  23018793.735
  20792643.419   -18107623.158 8 -13987123.159 9  20792646.853
  24010135.052    -1897233.738 5  -1426255.914 9  24010140.501
  23472364.692    -4998075.057 5  -3911901.804 9  23472373.071
  23882056.356    11412976.336 5   8932472.508 9  23882065.056
 94  3 23 22 43 30.0010000  0  7  2 27 26  7 15 13 19
  21405819.888   -15424266.293 7 -11868360.115 9  21405823.884
  21607367.583   -11686836.165 7  -8991229.073 9  21607371.802
  23017810.856    -7923224.324 6  -6043730.897 9  23017815.005
  20790778.903   -18117419.727 8 -13994756.825 9  20790782.560
  24014303.567    -1875334.038 5  -1409191.219 9  24014309.825
  23452896.138    -5100386.128 5  -3991624.542 9  23452903.282
  23900686.661    11510875.707 5   9008757.556 9  23900694.634
 94  3 23 22 44  0.0010000  0  7  2 27 26  7 15 13 19
  21408370.083   -15410865.340 7 -11857917.822 9  21408374.103
  21621635.856   -11611858.541 7  -8932805.007 9  21621639.946
  23016934.263    -7927829.988 6  -6047319.735 9  23016938.317
  20789015.724   -18126686.521 8 -14001977.680 9  20789019.239
  24018577.380    -1852869.879 5  -1391686.670 9  24018583.919
  23433477.247    -5202432.195 5  -4071140.791 9  23433484.442
  23919361.528    11609013.157 5   9085228.150 9  23919368.763
 94  3 23 22 44 30.0010000  0  7  2 27 26  7 15 13 19
  21410951.036   -15397302.507 7 -11847349.382 9  21410954.985
  21635986.591   -11536444.444 7  -8874040.834 9  21635990.599
  23016158.841    -7931905.647 6  -6050495.578 9  23016162.521
  20787347.106   -18135453.565 8 -14008809.118 9  20787350.599
  24022959.606    -1829842.799 5  -1373743.492 9  24022967.438
  23414109.028    -5304211.760 5  -4150449.345 9  23414116.399
  23938083.575    11707397.027 5   9161890.780 9  23938091.548
 94  3 23 22 45  0.0010000  0  7  2 27 26  7 15 13 19
  21413561.349   -15383585.190 7 -11836660.568 9  21413565.438
  21650417.716   -11460607.684 7  -8814947.310 9  21650421.841
  23015484.208    -7935450.410 6  -6053257.739 9  23015488.204
  20785768.521   -18143749.881 8 -14015273.752 9  20785771.919
  24027448.778    -1806251.612 5  -1355360.716 9  24027455.048
  23394792.575    -5405720.724 5  -4229547.037 9  23394799.790
  23956852.185    11806026.759 5   9238744.935 9  23956861.188
 94  3 23 22 45 30.0010000  0  7  2 27 26  7 15 13 19
  21416199.231   -15369722.841 7 -11825858.741 9  21416203.274
  21664925.192   -11384372.683 7  -8755543.462 9  21664929.270
  23014914.325    -7938446.356 6  -6055592.239 9  23014918.228
  20784275.974   -18151593.150 8 -14021385.364 9  20784279.419
  24032042.974    -1782103.255 5  -1336543.793 9  24032049.688
  23375526.677    -5506963.456 5  -4308437.286 9  23375533.575
  23975666.013    11904891.536 5   9315782.215 9  23975675.134
 94  3 23 22 46  0.0010000  0  7  2 27 26  7 15 13 19
  21418862.216   -15355728.553 7 -11814954.103 9  21418866.235
  21679511.036   -11307721.593 7  -8695815.401 9  21679515.454
  23014447.794    -7940898.220 6  -6057502.789 9  23014451.708
  20782872.958   -18158966.875 8 -14027131.097 9  20782876.509
  24036745.583    -1757393.102 5  -1317289.117 9  24036752.524
  23356312.567    -5607932.350 5  -4387114.140 9  23356320.024
  23994525.591    12003998.233 5   9393008.013 9  23994534.185
 94  3 23 22 46 30.0010000  0  7  2 27 26  7 15 13 19
  21421549.341   -15341608.406 8 -11803951.393 9  21421553.313
  21694174.919   -11230662.969 7  -8635769.772 9  21694179.138
  23014080.708    -7942825.658 6  -6059004.705 9  23014084.306
  20781560.950   -18165860.813 8 -14032502.971 9  20781564.454
  24041555.411    -1732120.297 5  -1297596.020 9  24041561.470
  23337151.614    -5708623.717 5  -4465574.725 9  23337158.630
  24013429.849    12103340.615 5   9470417.513 9  24013437.833
 94  3 23 22 47  0.0010000  0  7  2 27 26  7 15 13 19
  21424262.919   -15327347.539 7 -11792839.024 9  21424266.903
  21708915.388   -11153201.742 7  -8575410.439 9  21708919.817
  23013813.802    -7944227.414 6  -6060096.988 9  23013818.032
  20780342.864   -18172262.653 8 -14037491.392 9  20780346.403
  24046471.450    -1706285.520 5  -1277465.008 9  24046477.931
  23318043.497    -5809035.224 5  -4543817.243 9  23318050.583
  24032375.888    12202903.051 5   9547998.468 9  24032384.095
 94  3 23 22 47 30.0010000  0  7  2 27 26  7 15 13 19
  21427005.044   -15312938.579 8 -11781611.256 9  21427008.911
  21723733.560   -11075330.946 7  -8514731.950 9  21723737.942
  23013645.247    -7945112.879 6  -6060786.974 9  23013649.595
  20779219.567   -18178164.549 8 -14042090.245 9  20779223.153
  24051493.849    -1679890.828 5  -1256897.704 9  24051499.849
  23298988.833    -5909166.217 5  -4621841.188 9  23298996.165
  24051360.458    12302664.151 5   9625734.210 9  24051368.806
 94  3 23 22 48  0.0010000  0  7  2 27 26  7 15 13 19
  21429775.685   -15298378.762 8 -11770265.943 9  21429779.563
  21738631.380   -10997044.932 7  -8453729.911 9  21738635.810
  23013571.630    -7945499.679 6  -6061088.390 9  23013575.802
  20778192.364   -18183562.757 8 -14046296.618 9  20778195.974
  24056622.802    -1652939.309 5  -1235896.495 9  24056629.399
  23279988.060    -6009016.799 5  -4699646.636 9  23279995.247
  24070378.575    12402609.235 5   9703613.282 9  24070387.438
 94  3 23 22 48 30.0010000  0  7  2 27 26  7 15 13 19
  21432577.161   -15283656.951 8 -11758794.397 9  21432581.017
  21753604.560   -10918357.487 7  -8392415.076 9  21753609.341
  23013597.419    -7945366.247 6  -6060984.423 9  23013601.216
  20777258.036   -18188472.302 8 -14050122.215 9  20777261.575
  24061856.880    -1625430.391 5  -1214460.923 9  24061862.798
  23261040.716    -6108583.118 5  -4777230.573 9  23261048.200
  24089432.231    12502732.501 5   9781631.222 9  24089440.884
 94  3 23 22 49  0.0010000  0  7  2 27 26  7 15 13 19
  21435408.661   -15268777.120 8 -11747199.719 9  21435412.517
  21768656.661   -10839260.074 7  -8330780.783 9  21768661.032
  23013724.036    -7944699.676 6  -6060465.023 9  23013728.079
  20776415.216   -18192901.983 8 -14053573.894 9  20776418.755
  24067198.255    -1597367.675 5  -1192593.858 9  24067204.899
  23242147.552    -6207866.279 5  -4854593.875 9  23242154.798
  24108520.052    12603040.014 5   9859792.729 9  24108528.739
 94  3 23 22 49 30.0010000  0  7  2 27 26  7 15 13 19
  21438269.349   -15253744.044 8 -11735485.630 9  21438273.251
  21783788.231   -10759743.710 7  -8268820.031 9  21783792.813
  23013952.966    -7943497.080 6  -6059527.957 9  23013956.575
  20775664.169   -18196848.987 8 -14056649.460 9  20775667.685
  24072643.192    -1568749.789 5  -1170294.174 9  24072648.970
  23223309.724    -6306861.610 5  -4931732.917 9  23223316.716
  24127645.880    12703547.637 5   9938110.180 9  24127654.755
 94  3 23 22 50  0.0010000  0  7  2 27 26  7 15 13 19
  21441156.974   -15238569.837 8 -11723661.571 9  21441160.806
  21798996.880   -10679822.349 7  -8206543.707 9  21799001.169
  23014283.192    -7941763.466 6  -6058177.098 9  23014286.978
  20775002.075   -18200327.571 8 -14059360.024 9  20775005.638
  24078193.466    -1539584.909 5  -1147568.292 9  24078199.642
  23204524.646    -6405574.409 5  -5008651.796 9  23204532.208
  24146812.255    12804265.623 5  10016591.541 9  24146820.978
 94  3 23 22 50 30.0010000  0  7  2 27 26  7 15 13 19
  21444073.325   -15223244.876 8 -11711720.040 9  21444077.099
  21814282.356   -10599496.022 7  -8143951.820 9  21814286.739
  23014717.864    -7939479.175 6  -6056397.146 9  23014721.661
  20774429.669   -18203335.782 8 -14061704.063 9  20774433.091
  24083848.302    -1509867.077 5  -1124411.499 9  24083855.099
  23185795.817    -6503995.486 5  -5085343.343 9  23185802.798
  24166020.247    12905203.898 5  10095244.529 9  24166028.524
 94  3 23 22 51  0.0010000  0  7  2 27 26  7 15 13 19
  21447017.888   -15207772.072 8 -11699663.312 9  21447021.567
  21829648.646   -10518746.961 7  -8081030.529 9  21829652.935
  23015254.536    -7936658.025 6  -6054198.866 9  23015258.450
  20773949.052   -18205862.350 8 -14063672.799 9  20773952.462
  24089609.567    -1479592.732 5  -1100821.097 9  24089615.181
  23167123.708    -6602118.339 5  -5161802.553 9  23167130.591
  24185270.888    13006366.130 5  10174072.051 9  24185279.915
 94  3 23 22 51 30.0010000  0  7  2 27 26  7 15 13 19
  21449988.849   -15192158.841 8 -11687497.157 9  21449992.646
  21845091.356   -10437594.910 7  -8017795.209 9  21845095.681
  23015890.763    -7933315.910 6  -6051594.631 9  23015894.466
  20773557.935   -18207917.507 8 -14065274.201 9  20773561.462
  24095475.224    -1448769.524 5  -1076803.011 9  24095481.106
  23148506.810    -6699947.419 5  -5238032.837 9  23148514.384
  24204560.317    13107727.987 5  10253055.127 9  24204569.427
 94  3 23 22 52  0.0010000  0  7  2 27 26  7 15 13 19
  21452989.677   -15176388.692 8 -11675208.735 9  21452993.474
  21860610.661   -10356040.023 7  -7954246.002 9  21860614.927
  23016627.122    -7929443.905 6  -6048577.495 9  23016630.825
  20773257.638   -18209495.626 8 -14066503.887 9  20773261.013
  24101446.950    -1417386.844 5  -1052348.950 9  24101453.056
  23129949.317    -6797469.312 5  -5314023.749 9  23129956.423
  24223887.247    13209295.525 5  10332198.456 9  24223895.513
 94  3 23 22 52 30.0010000  0  7  2 27 26  7 15 13 19
  21456021.419   -15160457.133 8 -11662794.543 9  21456025.239
  21876208.091   -10274074.360 7  -7890376.706 9  21876212.591
  23017466.419    -7925035.834 6  -6045142.643 9  23017470.063
  20773051.013   -18210581.571 8 -14067350.063 9  20773054.282
  24107526.403    -1385437.110 5  -1027453.073 9  24107531.841
  23111451.622    -6894673.447 5  -5389767.076 9  23111458.606
  24243256.060    13311074.310 5  10411506.401 9  24243263.435
 94  3 23 22 53  0.0010000  0  7  2 27 26  7 15 13 19
  21459081.653   -15144376.339 8 -11650264.058 9  21459085.392
  21891882.239   -10191707.492 7  -7826194.791 9  21891886.517
  23018403.724    -7920108.667 6  -6041303.316 9  23018407.626
  20772935.864   -18211187.417 8 -14067822.131 9  20772939.192
  24113712.083    -1352932.683 5  -1002124.948 9  24113718.481
  23093013.013    -6991568.766 5  -5465269.760 9  23093020.470
  24262662.411    13413058.229 5  10490974.172 9  24262671.134
 94  3 23 22 53 30.0010000  0  7  2 27 26  7 15 13 19
  21462172.333   -15128135.454 8 -11637608.828 9  21462175.989
  21907629.169   -10108956.380 7  -7761713.457 9  21907633.622
  23019444.177    -7914644.170 6  -6037045.280 9  23019448.091
  20772911.114   -18211315.931 8 -14067922.249 9  20772914.360
  24120003.513    -1319874.766 5   -976365.538 9  24120009.700
  23074633.661    -7088153.389 5  -5540530.350 9  23074640.771
  24282107.349    13515242.160 5  10570597.732 9  24282116.317
 94  3 23 22 54  0.0010000  0  7  2 27 26  7 15 13 19
  21465297.310   -15111713.877 8 -11624812.801 9  21465300.931
  21923450.661   -10025812.869 7  -7696926.373 9  21923455.501
  23020588.669    -7908628.790 6  -6032357.984 9  23020592.724
  20772980.083   -18210953.893 8 -14067640.124 9  20772983.388
  24126400.825    -1286255.305 5   -950168.572 9  24126407.423
  23056314.950    -7184416.208 5  -5615540.177 9  23056322.091
  24301593.317    13617640.748 5  10650388.624 9  24301601.735
 94  3 23 22 54 30.0010000  0  7  2 27 26  7 15 13 19
  21468454.083   -15095124.420 8 -11611885.957 9  21468457.716
  21939346.521    -9942281.104 7  -7631836.739 9  21939351.103
  23021837.450    -7902065.100 6  -6027243.428 9  23021841.270
  20773140.708   -18210109.723 8 -14066982.312 9  20773144.095
  24132904.263    -1252080.820 5   -923539.121 9  24132910.392
  23038057.864    -7280360.248 5  -5690301.629 9  23038064.700
  24321118.513    13720241.981 5  10730337.406 9  24321126.896
 94  3 23 22 55  0.0010000  0  6  2 27 26  7 15 19
  21471642.708   -15078367.725 8 -11598828.791 9  21471646.247
  21955313.817    -9858371.968 7  -7566453.056 9  21955318.470
  23023189.028    -7894963.921 6  -6021710.055 9  23023193.399
  20773389.435   -18208802.147 8 -14065963.403 9  20773392.622
  24139510.950    -1217358.416 5   -896482.724 9  24139517.185
  24340678.216    13823030.904 5  10810432.465 9  24340686.470
 94  3 23 22 55 30.0010000  0  7  2 27 26  7 15 13 19
  21474865.052   -15061434.982 8 -11585634.445 9  21474868.673
  21971355.239    -9774075.809 7  -7500767.794 9  21971359.634
  23024640.981    -7887334.530 6  -6015765.096 9  23024645.001
  20773727.271   -18207026.886 8 -14064580.059 9  20773730.446
  24146224.013    -1182082.478 5   -868994.989 9  24146230.739
  23080935.263      -53964.50315    -44526.01819  23080942.466
  24360275.935    13926014.227 5  10890679.018 9  24360284.481
 94  3 23 22 56  0.0010000  0  7  2 27 26  7 15 13 19
  21478118.630   -15044336.138 8 -11572310.668 9  21478122.192
  21987469.513    -9689393.386 7  -7434781.550 9  21987474.071
  23026188.481    -7879201.672 6  -6009427.817 9  23026192.794
  20774152.388   -18204793.643 8 -14062839.851 9  20774155.517
  24153041.872    -1146258.061 5   -841079.851 9  24153048.247
  23062860.591     -148948.848 5   -118539.660 9  23062867.204
  24379911.224    14029201.860 4  10971084.746 9  24379921.681
 94  3 23 22 56 30.0010000  0  7  2 27 26  7 15 13 19
  21481399.708   -15027094.258 8 -11558875.434 9  21481403.353
  22003659.138    -9604317.752 7  -7368488.919 9  22003663.321
  23027831.716    -7870566.090 6  -6002698.802 9  23027835.829
  20774663.255   -18202108.641 8 -14060747.626 9  20774666.313
  24159961.560    -1109885.734 5   -812737.749 9  24159968.700
  23044847.239     -243608.963 5   -192300.642 9  23044854.220
  24399587.044    14132596.751 4  11051651.903 9  24399597.337
 94  3 23 22 57  0.0010000  0  7  2 27 26  7 15 13 19
  21484709.458   -15009700.223 8 -11545321.639 9  21484713.126
  22019926.255    -9518832.453 7  -7301877.064 9  22019930.638
  23029570.880    -7861428.096 6  -5995578.307 9  23029574.841
  20775264.458   -18198948.564 8 -14058285.211 9  20775267.563
  24166989.458    -1072960.174 5   -783964.571 9  24166996.353
  23026897.442     -337935.940 5   -265802.023 9  23026904.384
  24419305.692    14236214.384 5  11132392.707 9  24419314.673
 94  3 23 22 57 30.0010000  0  7  2 27 26  7 15 13 19
  21488044.888   -14992171.815 8 -11531663.131 9  21488048.556
  22036270.583    -9432944.134 7  -7234951.166 9  22036274.966
  23031404.856    -7851788.775 6  -5988067.166 9  23031408.853
  20775958.700   -18195300.531 8 -14055442.574 9  20775961.829
  24174119.888    -1035487.966 5   -754765.432 9  24174124.985
  23009009.786     -431933.349 5   -339046.612 9  23009016.802
  24439062.958    14340039.315 5  11213295.037 9  24439072.478
 94  3 23 22 58  0.0010000  0  7  2 27 26  7 15 13 19
  21491402.849   -14974527.896 8 -11517914.617 9  21491406.388
  22052687.739    -9346670.897 7  -7167725.335 9  22052692.228
  23033336.638    -7841637.616 6  -5980157.196 9  23033340.716
  20776745.341   -18191166.433 8 -14052221.180 9  20776748.563
  24181355.036     -997471.938 5   -725142.540 9  24181360.497
  22991185.630     -525600.858 5   -412034.127 9  22991192.497
  24458856.153    14444050.902 5  11294342.793 9  24458864.255
 94  3 23 22 58 30.0010000  0  7  2 27 26  7 15 13 19
  21494782.536   -14956766.358 8 -11504074.455 9  21494786.110
  22069180.739    -9260000.812 7  -7100190.276 9  22069185.017
  23035368.481    -7830958.845 6  -5971836.098 9  23035372.536
  20777626.661   -18186535.557 8 -14048612.688 9  20777629.978
  24188692.731     -958906.434 5   -695091.460 9  24188698.392
  22973425.841     -618929.439 5   -484757.546 9  22973432.286
  24478682.060    14548237.371 5  11375526.860 9  24478689.927
 94  3 23 22 59  0.0010000  0  7  2 27 26  7 15 13 19
  21498186.849   -14938876.445 8 -11490134.259 9  21498190.716
  22085746.239    -9172948.784 7  -7032357.596 9  22085750.716
  23037500.645    -7819754.892 6  -5963105.770 9  23037505.134
  20778600.700   -18181416.173 8 -14044623.542 9  20778603.981
  24196135.067     -919795.629 5   -664615.453 9  24196140.528
  22955730.060     -711919.907 5   -557217.498 9  22955736.458
  24498538.450    14652583.459 5  11456835.273 9  24498547.267
 94  3 23 22 59 30.0010000  0  7  2 27 26  7 15 13 19
  21501615.755   -14920857.613 8 -11476093.607 9  21501619.563
  22102381.263    -9085531.399 7  -6964240.240 9  22102385.786
  23039735.325    -7808011.560 6  -5953955.142 9  23039739.204
  20779663.388   -18175832.182 8 -14040272.364 9  20779666.669
  24203682.060     -880138.225 5   -633713.553 9  24203688.024
  22938100.106     -804567.601 5   -629410.370 9  22938106.493
  24518424.567    14757079.976 5  11538260.867 8  24518432.212
 94  3 23 23  0  0.0010000  0  7  2 27 26  7 15 13 19
  21505071.466   -14902697.524 8 -11461942.888 9  21505075.017
  22119085.028    -8997753.024 7  -6895841.568 9  22119089.294
  23042071.786    -7795734.639 6  -5944388.735 9  23042075.771
  20780809.731   -18169807.950 8 -14035578.141 9  20780812.896
  24211331.403     -839937.723 5   -602388.472 9  24211336.829
  22920534.239     -896873.140 5   -701336.604 9  22920541.149
  24538340.388    14861743.934 4  11619816.926 8  24538350.470
 94  3 23 23  0 30.0010000  0  7  2 27 26  7 15 13 19
  21508556.497   -14884383.677 8 -11447672.353 9  21508560.317
  22135861.114    -8909594.966 7  -6827147.055 9  22135865.884
  23044508.481    -7782930.223 6  -5934411.310 9  23044512.290
  20782040.669   -18163338.137 8 -14030536.714 9  20782043.845
  24219086.216     -799193.164 5   -570639.457 9  24219091.864
  22903035.263     -988831.816 5   -772992.574 9  22903041.388
  24558292.044    14966589.268 5  11701514.404 9  24558300.755
 94  3 23 23  1  0.0010000  0  7  2 27 26  7 15 13 19
  21512072.349   -14865907.391 8 -11433275.251 9  21512076.169
  22152706.200    -8821071.214 7  -6758167.578 9  22152710.606
  23047042.669    -7769612.593 6  -5924033.971 9  23047046.876
  20783357.333   -18156420.703 8 -14025146.493 9  20783360.427
  24226940.599     -757908.747 5   -538469.769 9  24226945.532
  22885601.606    -1080444.433 5   -844378.908 9  22885608.560
  24578278.560    15071620.827 4  11783356.940 9  24578288.466
 94  3 23 23  1 30.0010000  0  7  2 27 26  7 15 13 19
  21515620.403   -14847262.793 8 -11418746.991 9  21515624.118
  22169623.614    -8732170.574 7  -6688894.422 9  22169628.243
  23049673.646    -7755788.010 6  -5913261.609 9  23049677.560
  20784761.739   -18149040.269 8 -14019395.492 9  20784764.833
  24234900.036     -716082.752 5   -505878.069 9  24234906.200
  22868235.005    -1171705.941 5   -915491.623 9  22868241.903
  24598304.036    15176848.149 5  11865351.970 9  24598313.755
 94  3 23 23  2  0.0010000  0  7  2 27 26  7 15 13 19
  21519201.442   -14828444.543 8 -11404083.429 9  21519205.005
  22186617.817    -8642868.091 7  -6619308.142 9  22186622.048
  23052398.544    -7741468.551 6  -5902103.626 9  23052402.692
  20786258.567   -18141173.585 8 -14013265.598 9  20786261.638
  24242963.583     -673709.234 5   -472859.703 9  24242970.454
  22850937.138    -1262606.914 5   -986323.434 9  22850943.470
  24618366.513    15282274.418 5  11947502.102 9  24618375.821
 94  3 23 23  2 30.0010000  0  7  2 27 26  7 15 13 19
  21522812.747   -14809466.909 8 -11389295.657 9  21522816.356
  22203684.739    -8553178.332 7  -6549420.094 9  22203689.263
  23055216.935    -7726659.404 6  -5890564.066 9  23055220.954
  20787847.044   -18132825.885 8 -14006760.883 9  20787850.149
  24251129.083     -630798.382 5   -439422.663 9  24251136.001
  22833706.317    -1353154.295 5  -1056879.709 9  22833713.173
  24638460.521    15387874.044 5  12029787.241 9  24638470.274
 94  3 23 23  3  0.0010000  0  7  2 27 26  7 15 13 19
  21526456.466   -14790317.950 8 -11374374.394 9  21526460.239
  22220823.185    -8463117.837 7  -6479243.157 9  22220827.755
  23058129.388    -7711353.185 6  -5878637.169 9  23058133.243
  20789527.372   -18123996.348 8 -13999880.711 9  20789530.395
  24259397.622     -587348.115 5   -405565.315 9  24259403.587
  22816544.247    -1443342.565 6  -1127156.169 9  22816550.724
  24658587.122    15493637.978 5  12112200.420 9  24658597.931
 94  3 23 23  3 30.0010000  0  6  2 27 26  7 15 13
  21530133.216   -14770997.631 8 -11359319.606 9  21530136.954
  22238032.255    -8372680.332 7  -6408772.451 9  22238037.083
  23061139.169    -7695535.343 6  -5866311.608 9  23061143.259
  20791297.255   -18114695.593 8 -13992633.354 9  20791300.337
  24267769.458     -543357.126 5   -371286.608 9  24267776.435
  22799450.864    -1533167.069 5  -1197149.182 9  22799457.376
 94  3 23 23  4  0.0010000  0  6  2 27 26  7 15 13
  21533842.700   -14751505.062 8 -11344130.598 9  21533846.368
  22255309.645    -8281889.472 7  -6338026.408 9  22255314.333
  23064247.794    -7679201.431 6  -5853583.924 9  23064251.942
  20793152.583   -18104944.526 8 -13985035.104 9  20793155.618
  24276241.028     -498833.282 5   -336592.722 9  24276248.028
  22782426.427    -1622632.307 6  -1266862.253 9  22782433.130
 94  3 23 23  4 30.0010000  0  6  2 27 26  7 15 13
  21537586.755   -14731828.682 8 -11328798.359 9  21537590.470
  22272650.372    -8190763.679 7  -6267019.364 9  22272654.872
  23067457.231    -7662336.099 7  -5840442.152 9  23067461.310
  20795094.521   -18094740.367 8 -13977083.794 9  20795097.614
  24284816.747     -453773.742 5   -301481.392 9  24284822.946
  22765470.685    -1711731.836 5  -1336290.358 9  22765477.356
 94  3 23 23  5  0.0010000  0  6  2 27 26  7 15 13
  21541366.067   -14711968.185 8 -11313322.647 9  21541369.735
  22290058.560    -8099283.433 7  -6195736.141 9  22290063.329
  23070766.731    -7644944.841 7  -5826890.559 9  23070770.774
  20797123.606   -18084077.550 8 -13968775.086 9  20797126.747
  24293493.091     -408175.603 5   -265950.387 9  24293498.317
  22748586.950    -1800459.139 6  -1405428.422 9  22748593.036
 94  3 23 23  5 30.0010000  0  6  2 27 26  7 15 13
  21545176.411   -14691945.180 8 -11297720.307 9  21545179.985
  22307535.935    -8007440.005 7  -6124169.907 9  22307540.411
  23074178.255    -7627017.961 7  -5812921.596 9  23074182.005
  20799238.372   -18072964.370 8 -13960115.445 9  20799241.642
  24302273.942     -362037.164 6   -229998.369 9  24302281.036
  22731773.888    -1888809.111 5  -1474272.462 9  22731780.919
 94  3 23 23  6  0.0010000  0  6  2 27 26  7 15 13
  21549012.364   -14671786.548 8 -11282012.280 9  21549016.056
  22325079.481    -7915246.191 6  -6052330.645 9  22325084.239
  23077688.325    -7608572.115 6  -5798548.232 9  23077692.450
  20801438.966   -18061400.930 8 -13951104.956 9  20801442.153
  24311154.489     -315364.350 5   -193629.941 9  24311160.067
  22715033.208    -1976784.350 6  -1542824.488 9  22715039.185
 94  3 23 23  6 30.0010000  0  6  2 27 26  7 15 13
  21552869.708   -14651517.005 8 -11266217.829 9  21552873.306
  22342692.802    -7822689.366 6  -5980208.530 9  22342697.864
  23081291.942    -7589633.417 6  -5783790.847 9  23081295.997
  20803724.880   -18049388.042 8 -13941744.238 9  20803728.103
  24320137.817     -268160.291 5   -156847.546 9  24320144.333
  22698363.239    -2064384.438 6  -1611084.220 9  22698369.544
 94  3 23 23  7  0.0010000  0  6  2 27 26  7 15 13
  21556746.739   -14631142.368 8 -11250341.486 9  21556750.407
  22360375.630    -7729765.103 6  -5907800.091 9  22360380.540
  23084990.263    -7570198.726 6  -5768646.968 9  23084994.282
  20806095.036   -18036931.620 8 -13932037.915 9  20806098.353
  24329220.294     -220426.758 5   -119652.564 9  24329227.563
  22681765.411    -2151607.241 6  -1679049.926 9  22681771.708
 94  3 23 23  7 30.0010000  0  6  2 27 26  7 15 13
  21560649.380   -14610634.271 8 -11234361.144 9  21560652.954
  22378127.927    -7636475.963 6  -5835107.333 9  22378132.989
  23088786.856    -7550249.747 6  -5753102.346 9  23088790.431
  20808552.622   -18024016.918 8 -13921974.486 9  20808555.763
  24338407.716     -172147.766 5    -82032.599 9  24338413.142
  22665242.544    -2238433.896 6  -1746706.975 9  22665248.478
 94  3 23 23  8  0.0010000  0  6  2 27 26  7 15 13
  21564580.606   -14589975.414 8 -11218263.334 9  21564584.345
  22395948.786    -7542829.779 6  -5762136.365 9  22395953.614
  23092674.997    -7529818.308 6  -5737181.759 9  23092678.981
  20811095.763   -18010651.428 8 -13911559.794 9  20811098.927
  24347696.708     -123335.528 6    -43997.102 9  24347702.368
  22648793.771    -2324873.090 6  -1814062.091 9  22648800.036
 94  3 23 23  8 30.0010000  0  7  2 27 26  7 15 13  4
  21568545.817   -14569137.097 8 -11202025.678 9  21568549.603
  22413836.239    -7448830.335 6  -5688890.122 9  22413840.985
  23096654.786    -7508902.369 6  -5720883.657 9  23096659.122
  20813724.661   -17996837.073 8 -13900795.340 9  20813727.813
  24357085.380      -73995.972 5     -5550.695 9  24357090.841
  22632418.310    -2410926.763 6  -1881116.804 9  22632424.329
  24548287.567      -15841.60015
 94  3 23 23  9  0.0010000  0  7  2 27 26  7 15 13  4
  21572551.122   -14548090.403 8 -11185625.649 9  21572554.720
  22431791.731    -7354473.958 7  -5615365.747 9  22431796.255
  23100732.708    -7487473.476 6  -5704185.863 9  23100736.552
  20816439.013   -17982573.178 8 -13889680.591 9  20816442.212
  24366575.583      -24121.092 5     33312.866 9  24366582.063
  22616118.028    -2496583.876 6  -1947862.507 9  22616123.888
  24530196.974     -110907.472 5
 94  3 23 23  9 30.0010000  0  7  2 27 26  7 15 13  4
  21576591.419   -14526856.931 8 -11169080.084 9  21576595.286
  22449812.052    -7259774.422 6  -5541573.974 9  22449817.419
  23104901.942    -7465564.572 6  -5687114.021 9  23104905.903
  20819233.989   -17967886.486 8 -13878236.398 9  20819237.224
  24376164.513       26268.532 5     72577.532 9  24376172.075
  22599890.333    -2581861.280 6  -2014312.341 9  22599896.696
  24512105.427     -205983.126 5    -46917.04719  24512115.216
 94  3 23 23 10  0.0010000  0  7  2 27 26  7 15 13  4
  21580666.521   -14505443.883 8 -11152394.589 9  21580670.235
  22467899.677    -7164725.475 6  -5467509.950 9  22467904.645
  23109163.692    -7443164.954 6  -5669659.798 9  23109167.806
  20822111.825   -17952763.393 8 -13866452.151 9  20822115.036
  24385852.825       77181.189 5    112249.745 9  24385860.833
  22583736.880    -2666747.317 6  -2080457.186 9  22583742.700
  24494013.294     -301049.360 5   -120994.348 9  24494023.575
 94  3 23 23 10 30.0010000  0  7  2 27 26  7 15 13  4
  21584771.317   -14483871.980 8 -11135585.305 9  21584774.892
  22486053.130    -7069328.160 6  -5393174.445 9  22486057.677
  23113524.145    -7420253.318 6  -5651806.606 9  23113528.329
  20825072.427   -17937204.541 8 -13854328.358 9  20825075.521
  24395641.794      128618.466 5    152330.725 9  24395648.181
  22567659.192    -2751236.463 6  -2146292.793 9  22567665.118
  24475925.349     -396101.610 5   -195060.751 9  24475935.946
 94  3 23 23 11  0.0010000  0  7  2 27 26  7 15 13  4
  21588899.505   -14462179.225 8 -11118681.856 9  21588903.208
  22504270.185    -6973597.125 6  -5318578.919 9  22504275.622
  23117978.575    -7396847.376 6  -5633568.231 9  23117982.454
  20828111.794   -17921231.880 8 -13841882.116 9  20828114.876
  24405526.067      180563.172 5    192807.094 9  24405531.856
  22551654.099    -2835342.320 6  -2211829.711 9  22551660.427
  24457838.146     -491145.288 5   -269120.489 9  24457848.298
 94  3 23 23 11 30.0010000  0  7  2 27 26  7 15 13  4
  21593050.505   -14440364.728 8 -11101683.544 9  21593054.325
  22522552.013    -6877526.158 6  -5243718.512 9  22522557.040
  23122526.161    -7372948.822 6  -5614946.004 9  23122530.228
  20831234.122   -17904824.006 8 -13829096.752 9  20831237.239
  24415508.075      233025.520 5    233686.842 9  24415513.372
  22535724.880    -2919051.198 6  -2277057.308 9  22535730.661
  24439754.474     -586175.881 5   -343169.996 9  24439764.052
 94  3 23 23 12  0.0010000  0  7  2 27 26  7 15 13  4
  21597225.153   -14418427.692 8 -11084589.749 9  21597228.880
  22540898.653    -6781112.611 6  -5168591.147 9  22540903.622
  23127168.505    -7348552.450 6  -5595935.875 9  23127172.771
  20834440.700   -17887973.619 8 -13815966.576 9  20834443.853
  24425591.083      286005.823 5    274970.190 9  24425598.188
  22519871.638    -3002359.436 6  -2341972.714 9  22519878.036
  24421671.622     -681203.880 5   -417217.468 9  24421681.903
 94  3 23 23 12 30.0010000  0  7  2 27 26  7 15 13  4
  21601424.411   -14396359.993 8 -11067394.140 9  21601428.091
  22559312.411    -6684350.653 6  -5093192.316 9  22559317.708
  23131904.638    -7323665.669 6  -5576543.609 9  23131908.974
  20837729.075   -17870692.508 7 -13802500.770 9  20837732.392
  24435770.106      339497.411 5    316651.951 9  24435778.489
  22504094.497    -3085269.769 6  -2406578.056 9  22504100.571
  24403584.388     -776247.594 5   -491277.208 9  24403593.415
 94  3 23 23 13  0.0010000  0  7  2 27 26  7 15 13  4
  21605652.700   -14374139.345 8 -11050079.353 9  21605656.392
  22577792.122    -6587237.383 6  -5017519.730 9  22577797.349
  23136731.911    -7298297.337 6  -5556776.112 9  23136736.024
  20841101.528   -17852969.049 7 -13788690.277 9  20841104.821
  24446048.364      393504.887 5    358735.700 9  24446054.997
  22488394.122    -3167774.177 6  -2470867.105 9  22488400.130
  24385496.544     -871299.121 5   -565343.031 9  24385506.778
 94  3 23 23 13 30.0010000  0  7  2 27 26  7 15 13  4
  21609908.411   -14351775.713 8 -11032653.149 9  21609912.103
  22596337.755    -6489780.763 6  -4941579.593 9  22596342.478
  23141648.521    -7272459.913 6  -5536643.085 9  23141652.563
  20844557.950   -17834806.335 7 -13774537.509 9  20844561.079
  24456422.497      448022.952 5    401217.298 9  24456428.778
  22472771.028    -3249874.282 6  -2534841.116 9  22472777.169
  24367405.958     -966363.675 5   -639418.949 9  24367415.970
 94  3 23 23 14  0.0010000  0  7  2 27 26  7 15 13  4
  21614193.231   -14329258.643 8 -11015107.389 9  21614197.063
  22614947.169    -6391988.223 6  -4865377.697 9  22614952.220
  23146657.880    -7246137.056 6  -5516131.797 9  23146661.653
  20848098.224   -17816201.817 7 -13760040.474 9  20848101.376
  24466895.560      503056.723 5    444100.721 9  24466900.798
  22457226.536    -3331561.301 6  -2598493.240 9  22457232.302
  24349316.927    -1061424.202 5   -713491.777 9  24349327.665
 94  3 23 23 14 30.0010000  0  7  2 27 26  7 15 13  4
  21618508.466   -14306581.768 8 -10997437.108 9  21618512.345
  22633616.903    -6293876.487 6  -4788927.099 9  22633622.399
  23151758.278    -7219333.716 6  -5495246.106 9  23151762.239
  20851724.396   -17797146.967 7 -13745192.533 9  20851727.466
  24477465.005      558606.353 5    487386.099 9  24477471.638
  22441761.224    -3412831.451 6  -2661820.537 9  22441767.298
  24331230.833    -1156465.228 5   -787549.381 9  24331241.185
 94  3 23 23 15  0.0010000  0  7  2 27 26  7 15 13  4
  21622852.622   -14283753.548 8 -10979648.890 9  21622856.583
  22652346.333    -6195454.820 6  -4712234.985 9  22652351.302
  23156948.896    -7192057.206 6  -5473991.716 9  23156953.138
  20855434.997   -17777646.462 7 -13729997.326 9  20855438.091
  24488133.317      614667.496 5    531070.115 9  24488138.884
  22426375.075    -3493685.664 6  -2724823.711 9  22426380.981
  24313151.216    -1251474.630 5   -861582.344 9  24313160.360
 94  3 23 23 15 30.0010000  0  6  2 27 26  7 13  4
  21627224.091   -14260780.104 8 -10961747.516 9  21627228.134
  22671132.364    -6096733.363 6  -4635309.251 9  22671137.380
  23162229.028    -7164310.570 6  -5452371.012 9  23162233.282
  20859229.786   -17757705.488 7 -13714458.895 9  20859232.962
  22411066.997    -3574129.863 6  -2787507.410 9  22411072.802
  24295077.489    -1346453.635 5   -935591.652 9  24295087.220
 94  3 23 23 16  0.0010000  0  6  2 27 26  7 13  4
  21631630.966   -14237624.118 8 -10943703.898 9  21631634.856
  22689978.810    -5997693.735 6  -4558135.614 9  22689985.138
  23167601.013    -7136079.721 6  -5430372.981 9  23167605.290
  20863110.372   -17737312.406 7 -13698568.169 9  20863113.618
  22395839.442    -3654151.526 6  -2849861.852 9  22395845.231
  24277009.364    -1441399.481 5  -1009575.093 9  24277017.677
 94  3 23 23 16 30.0010000  0  6  2 27 26  7 13  4
  21636072.489   -14214282.908 8 -10925515.951 9  21636076.134
  22708891.138    -5898310.716 6  -4480694.399 9  22708896.634
  23173063.481    -7107375.148 6  -5408005.819 9  23173067.372
  20867074.646   -17716479.290 7 -13682334.559 9  20867077.950
  22380691.802    -3733753.199 6  -2911889.037 9  22380697.274
  24258947.380    -1536313.594 5  -1083533.824 9  24258956.524
 94  3 23 23 17  0.0010000  0  6  2 27 26  7 13  4
  21640551.630   -14190745.788 8 -10907175.343 9  21640555.216
  22727871.333    -5798568.804 6  -4402973.506 9  22727876.161
  23178618.513    -7078184.141 6  -5385259.613 9  23178622.813
  20871120.091   -17695221.653 7 -13665770.150 9  20871123.360
  22365624.966    -3812928.191 6  -2973583.740 9  22365630.864
  24240890.997    -1631197.685 5  -1157469.137 9  24240900.493
 94  3 23 23 17 30.0010000  0  6  2 27 26  7 13  4
  21645068.403   -14167008.574 8 -10888678.816 9  21645072.013
  22746920.411    -5698465.897 6  -4324971.347 9  22746925.708
  23184265.841    -7048505.803 6  -5362133.670 9  23184270.493
  20875246.239   -17673536.843 7 -13648872.876 9  20875249.649
  22350640.278    -3891672.317 6  -3034942.716 9  22350645.966
  24222839.435    -1726059.992 5  -1231387.498 9  24222849.224
 94  3 23 23 18  0.0010000  0  6  2 27 26  7 13  4
  21649619.310   -14143092.497 8 -10870042.914 9  21649623.177
  22766035.427    -5598018.763 6  -4246700.951 9  22766040.630
  23190003.028    -7018356.459 6  -5338640.708 9  23190007.552
  20879448.419   -17651454.688 7 -13631665.983 9  20879451.876
  22335736.192    -3969993.522 6  -3095972.139 9  22335741.899
  24204788.958    -1820914.326 5  -1305299.635 9  24204798.290
 94  3 23 23 18 30.0010000  0  6  2 27 26  7 13  4
  21654200.435   -14119018.843 8 -10851284.222 9  21654204.208
  22785210.653    -5497249.085 6  -4168179.221 9  22785215.833
  23195829.552    -6987738.910 6  -5314782.909 9  23195833.970
  20883725.481   -17628977.944 7 -13614151.618 9  20883729.032
  22320913.380    -4047887.969 6  -3156669.024 9  22320919.188
  24186742.380    -1915746.580 5  -1379194.605 9  24186751.642
 94  3 23 23 19  0.0010000  0  6  2 27 26  7 13  4
  21658811.778   -14094787.165 8 -10832402.399 9  21658815.505
  22804444.341    -5396177.110 6  -4089421.933 9  22804449.954
  23201745.450    -6956650.684 6  -5290558.356 9  23201750.138
  20888080.146   -17606093.575 7 -13596319.626 9  20888083.521
  22306174.083    -4125343.467 6  -3217023.870 9  22306179.724
  24168702.044    -2010552.247 5  -1453068.844 9  24168710.989
 94  3 23 23 19 30.0010000  0  7  2 27 26  7  9 13  4
  21663450.513   -14070409.970 8 -10813407.184 9  21663454.192
  22823731.833    -5294818.662 6  -4010441.430 9  22823737.575
  23207749.036    -6925101.746 6  -5265974.798 9  23207753.548
  20892514.333   -17582791.583 7 -13578162.217 9  20892517.649
  24660597.271      -70269.65115
  22291517.872    -4202361.748 6  -3277038.031 9  22291523.704
  24150666.497    -2105324.107 5  -1526916.742 9  24150674.774
 94  3 23 23 20  0.0010000  0  7  2 27 26  7  9 13  4
  21668116.575   -14045890.399 8 -10794301.017 9  21668120.360
  22843073.614    -5193177.334 6  -3931240.486 9  22843079.286
  23213841.614    -6893086.393 6  -5241027.803 9  23213846.466
  20897027.403   -17559075.363 7 -13559682.026 9  20897030.720
  24643172.005     -161841.923 5
  22276945.560    -4278939.563 6  -3336708.966 9  22276951.200
  24132643.278    -2200036.847 5  -1600718.577 9  24132651.462
 94  3 23 23 20 30.0010000  0  7  2 27 26  7  9 13  4
  21672812.497   -14021212.633 8 -10775071.587 9  21672816.341
  22862469.989    -5091251.915 6  -3851818.180 9  22862475.298
  23220023.966    -6860599.329 6  -5215713.246 9  23220028.243
  20901621.497   -17534934.022 7 -13540870.576 9  20901624.708
  24625766.583     -253305.661 5    -49878.17419  24625771.083
  22262457.349    -4355074.227 6  -3396034.602 9  22262463.415
  24114633.685    -2294676.069 5  -1674463.147 9  24114642.384
 94  3 23 23 21  0.0010000  0  7  2 27 26  7  9 13  4
  21677540.919   -13996364.157 8 -10755709.132 9  21677544.716
  22881922.099    -4989029.108 6  -3772164.137 9  22881927.630
  23226295.591    -6827638.072 6  -5190029.176 9  23226300.513
  20906294.794   -17510375.999 7 -13521734.439 9  20906298.040
  24608382.513     -344656.758 5   -121060.802 9  24608386.438
  22248054.810    -4430761.323 6  -3455011.472 9  22248060.606
  24096640.138    -2389231.217 5  -1748142.185 9  24096648.122
 94  3 23 23 21 30.0010000  0  7  2 27 26  7  9 13  4
  21682301.747   -13971346.231 8 -10736214.623 9  21682305.591
  22901432.692    -4886499.825 6  -3692271.309 9  22901438.962
  23232656.114    -6794215.082 6  -5163985.318 9  23232660.532
  20911046.005   -17485407.210 7 -13502278.249 9  20911049.380
  24591016.927     -435914.837 5   -192170.930 9  24591020.970
  22233736.591    -4506002.634 6  -3513640.987 9  22233742.560
  24078665.333    -2483690.317 5  -1821746.433 9  24078672.931
 94  3 23 23 22  0.0010000  0  7  2 27 26  7  9 13  4
  21687094.380   -13946160.551 8 -10716589.432 9  21687098.130
  22920999.278    -4783677.980 6  -3612150.485 9  22921004.493
  23239100.763    -6760346.161 6  -5137593.975 9  23239105.755
  20915871.060   -17460051.163 7 -13482520.252 9  20915874.552
  24573663.911     -527103.217 5   -263226.751 9  24573668.013
  22219501.942    -4580807.347 6  -3571930.293 9  22219507.395
  24060705.536    -2578067.900 5  -1895287.101 9  24060713.673
 94  3 23 23 22 30.0010000  0  7  2 27 26  7  9 13  4
  21691921.888   -13920792.865 8 -10696822.391 9  21691925.638
  22940622.153    -4680558.206 6  -3531797.498 9  22940627.720
  23245631.513    -6726028.423 6  -5110852.917 9  23245635.989
  20920773.138   -17434291.158 7 -13462447.514 9  20920776.665
  24556326.521     -618209.763 5   -334218.819 9  24556330.060
  22205352.380    -4655162.240 6  -3629869.095 9  22205358.126
  24042759.786    -2672372.240 5  -1968770.696 9  24042768.075
 94  3 23 23 23  0.0010000  0  7  2 27 26  7  9 13  4
  21696782.466   -13895248.139 8 -10676917.416 9  21696786.216
  22960304.044    -4577132.451 6  -3451206.126 9  22960310.583
  23252246.825    -6691265.047 6  -5083764.598 9  23252251.407
  20925752.349   -17408125.812 7 -13442058.916 9  20925755.899
  24539005.021     -709235.079 5   -405147.568 9  24539008.454
  22191289.950    -4729061.183 6  -3687452.619 9  22191295.458
  24024825.388    -2766613.729 5  -2042205.353 9  24024833.454
 94  3 23 23 23 30.0010000  0  7  2 27 26  7  9 13  4
  21701677.567   -13869525.423 8 -10656873.740 9  21701681.212
  22980041.880    -4473410.106 6  -3370383.639 9  22980047.505
  23258947.435    -6656053.667 6  -5056327.194 9  23258951.747
  20930810.317   -17381546.414 7 -13421347.684 9  20930813.716
  24521699.021     -800180.530 5   -476014.086 9  24521703.169
  22177313.903    -4802506.214 6  -3744682.438 9  22177319.134
  24006900.825    -2860813.825 6  -2115607.737 9  24006908.306
 94  3 23 23 24  0.0010000  0  7  2 27 26  7  9 13  4
  21706604.427   -13843634.426 8 -10636698.933 9  21706608.235
  22999833.646    -4369401.060 6  -3289337.718 9  22999838.931
  23265736.435    -6620378.471 6  -5028528.362 9  23265740.993
  20935946.739   -17354551.838 7 -13400312.940 9  20935950.091
  24504410.364     -891032.790 5   -546807.990 9  24504414.630
  22163423.575    -4875498.844 6  -3801559.742 9  22163429.267
  23988978.810    -2954987.387 5  -2188989.448 9  23988985.938
 94  3 23 23 24 30.0010000  0  7  2 27 26  7  9 13  4
  21711562.685   -13817578.751 8 -10616395.811 9  21711566.517
  23019685.130    -4265082.007 6  -3208050.262 9  23019691.681
  23272614.513    -6584232.403 6  -5000362.618 9  23272619.153
  20941165.450   -17327129.047 7 -13378944.522 9  20941168.673
  24487141.146     -981782.987 5   -617522.384 9  24487145.892
  22149620.692    -4948034.207 6  -3858080.729 9  22149626.020
  23971063.364    -3049133.899 5  -2262350.105 9  23971070.739
 94  3 23 23 25  0.0010000  0  7  2 27 26  7  9 13  4
  21716552.544   -13791357.194 8 -10595963.432 9  21716556.270
  23039597.583    -4160443.014 6  -3126513.496 9  23039603.923
  23279584.364    -6547606.443 6  -4971822.950 9  23279588.771
  20946463.981   -17299284.577 7 -13357247.527 9  20946467.063
  24469890.872    -1072433.329 5   -688158.942 9  24469896.685
  22135904.872    -5020110.045 6  -3914243.650 9  22135910.349
  23953155.177    -3143236.843 5  -2335676.795 9  23953163.138
 94  3 23 23 25 30.0010000  0  7  2 27 26  7  9 13  4
  21721574.083   -13764969.599 8 -10575401.670 9  21721577.903
  23059571.028    -4055480.681 6  -3044724.768 9  23059576.817
  23286646.380    -6510495.786 6  -4942905.585 9  23286650.903
  20951844.270   -17271012.276 7 -13335217.158 9  20951847.271
  24452662.622    -1162970.437 5   -758707.293 9  24452667.579
  22122277.903    -5091721.146 6  -3970044.430 9  22122283.263
  23935261.669    -3237273.620 6  -2408951.938 9  23935269.817
 94  3 23 23 26  0.0010000  0  7  2 27 26  7  9 13  4
  21726625.661   -13738422.352 8 -10554715.510 9  21726629.411
  23079607.872    -3950189.343 6  -2962679.683 9  23079613.110
  23293797.075    -6472916.597 6  -4913623.133 9  23293801.610
  20957303.935   -17242323.323 7 -13312862.124 9  20957306.876
  24435453.708    -1253400.245 5   -829172.029 9  24435458.302
  22108739.286    -5162865.936 6  -4025481.857 9  22108744.474
  23917382.028    -3331227.611 5  -2482162.570 9  23917389.966
 94  3 23 23 26 30.0010000  0  7  2 27 26  7  9 13  4
  21731711.567   -13711696.813 8 -10533890.417 9  21731715.270
  23099707.075    -3844566.845 6  -2880376.551 9  23099712.501
  23301035.083    -6434882.866 6  -4883986.493 9  23301039.642
  20962840.739   -17213225.113 7 -13290188.191 9  20962843.763
  24418265.075    -1343729.687 5   -899558.559 9  24418269.306
  22095291.239    -5233535.905 6  -4080549.293 9  22095296.649
  23899521.106    -3425086.765 5  -2555299.295 9  23899529.196
 94  3 23 23 27  0.0010000  0  7  2 27 26  7  9 13  4
  21736830.169   -13684796.942 8 -10512929.481 9  21736834.013
  23119863.060    -3738647.157 6  -2797841.858 9  23119868.837
  23308355.466    -6396412.219 6  -4854009.391 9  23308360.388
  20968450.896   -17183743.132 7 -13267215.213 9  20968454.001
  24401095.067    -1433958.786 6   -969866.896 9  24401099.521
  22081932.575    -5303736.122 6  -4135250.684 9  22081937.794
  23881680.974    -3518834.652 5  -2628349.353 9  23881689.907
 94  3 23 23 27 30.0010000  0  7  2 27 26  7  9 13  4
  21741981.653   -13657726.389 8 -10491835.546 9  21741985.403
  23140071.294    -3632453.927 6  -2715094.003 9  23140076.896
  23315755.770    -6357523.065 6  -4823706.202 9  23315760.446
  20974132.130   -17153887.936 7 -13243951.419 9  20974135.177
  24383944.028    -1524087.967 6  -1040097.370 9  24383948.188
  22068661.794    -5373474.027 6  -4189591.833 9  22068667.044
  23863861.106    -3612484.128 6  -2701322.690 9  23863868.997
 94  3 23 23 28  0.0010000  0  7  2 27 26  7  9 13  4
  21747167.028   -13630477.381 8 -10470602.553 9  21747170.720
  23160330.060    -3525994.578 6  -2632138.783 9  23160335.192
  23323236.294    -6318213.126 6  -4793075.110 9  23323240.735
  20979884.099   -17123662.528 7 -13220399.147 9  20979887.228
  24366813.442    -1614110.281 6  -1110244.579 9  24366817.286
  22055480.349    -5442742.684 6  -4243567.334 9  22055485.286
  23846059.817    -3706027.108 6  -2774213.104 9  23846067.052
 94  3 23 23 28 30.0010000  0  7  2 27 26  7  9 13  4
  21752387.560   -13603043.928 8 -10449225.835 9  21752391.169
  23180637.739    -3419275.202 6  -2548980.944 9  23180643.493
  23330799.817    -6278466.725 6  -4762103.939 9  23330804.282
  20985707.208   -17093060.803 7 -13196553.637 9  20985710.407
  24349707.106    -1704006.340 6  -1180293.402 9  24349710.692
  22042389.505    -5511536.047 6  -4297172.470 9  22042394.618
  23828280.356    -3799458.403 6  -2847016.423 9  23828288.036
 94  3 23 23 29  0.0010000  0  7  2 27 26  7  9 13  4
  21757642.450   -13575429.009 8 -10427707.718 9  21757645.966
  23200994.778    -3312298.020 6  -2465622.211 9  23201000.813
  23338448.216    -6238276.948 6  -4730787.261 9  23338453.021
  20991602.716   -17062080.021 7 -13172412.760 9  20991605.962
  24332627.271    -1793762.114 6  -1250232.906 9  24332631.630
  22029389.122    -5579853.362 6  -4350406.658 9  22029394.118
  23810521.263    -3892776.387 5  -2919731.455 9  23810528.544
 94  3 23 23 29 30.0010000  0  7  2 27 26  7  9 13  4
  21762932.747   -13547628.274 8 -10406044.807 9  21762936.274
  23221403.153    -3205054.388 6  -2382055.854 9  23221408.872
  23346181.013    -6197639.761 6  -4699121.948 9  23346185.208
  20997573.153   -17030705.008 7 -13147964.687 9  20997576.493
  24315573.224    -1883381.097 6  -1320065.817 9  24315577.700
  22016479.622    -5647692.020 6  -4403267.868 9  22016484.649
  23792783.700    -3985992.223 6  -2992366.920 9  23792791.204
 94  3 23 23 30  0.0010000  0  7  2 27 26  7  9 13  4
  21768257.372   -13519648.066 8 -10384242.045 9  21768261.063
  23241861.091    -3097547.289 6  -2298284.208 9  23241866.435
  23353997.458    -6156563.171 6  -4667114.272 9  23354001.396
  21003618.669   -16998935.292 7 -13123209.054 9  21003621.915
  24298544.606    -1972867.841 6  -1389795.716 9  24298547.876
  22003660.841    -5715055.226 6  -4455758.599 9  22003665.841
  23775064.255    -4079105.505 6  -3064922.442 9  23775071.923
 94  3 23 23 30 30.0010000  0  7  2 27 26  7  9 13  4
  21773619.270   -13491470.895 8 -10362285.808 9  21773622.938
  23262370.919    -2989764.790 6  -2214297.979 9  23262377.235
  23361898.356    -6115041.124 6  -4634759.452 9  23361903.079
  21009741.013   -16966762.386 7 -13098139.244 9  21009744.470
  24281539.724    -2062222.802 5  -1459422.894 9  24281543.720
  21990933.474    -5781936.732 6  -4507873.983 9  21990938.583
  23757366.317    -4172111.686 6  -3137394.594 9  23757372.669
 94  3 23 23 31  0.0010000  0  7  2 27 26  7  9 13  4
  21779018.927   -13463095.140 8 -10340174.830 9  21779022.501
  23282934.802    -2881702.383 6  -2130093.629 9  23282941.013
  23369883.669    -6073080.552 6  -4602062.954 9  23369887.899
  21015939.646   -16934188.182 7 -13072756.733 9  21015943.032
  24264558.786    -2151456.448 5  -1528955.543 9  24264562.911
  21978297.731    -5848337.945 6  -4559615.110 9  21978302.993
  23739690.271    -4264993.639 5  -3209769.837 9  23739698.149
 94  3 23 23 31 30.0010000  0  7  2 27 26  7  9 13  4
  21784453.286   -13434536.909 8 -10317921.657 9  21784456.931
  23303552.536    -2773356.223 6  -2045668.163 9  23303558.149
  23377951.224    -6030685.834 6  -4569028.148 9  23377955.606
  21022213.974   -16901216.149 7 -13047064.221 9  21022217.243
  24247600.606    -2240575.087 5  -1598398.576 9  24247604.415
  21965753.372    -5914258.283 6  -4610981.537 9  21965758.626
  23722040.310    -4357743.675 5  -3282042.377 9  23722047.415
 94  3 23 23 32  0.0010000  0  7  2 27 26  7  9 13  4
  21789921.075   -13405804.201 8 -10295532.531 9  21789924.767
  23324226.645    -2664715.475 6  -1961013.160 9  23324233.255
  23386100.786    -5987860.989 6  -4535658.189 9  23386104.864
  21028562.622   -16867853.525 7 -13021067.357 9  21028565.927
  24230665.356    -2329566.891 5  -1667742.759 9  24230670.032
  21953301.067    -5979694.694 6  -4661970.871 9  21953306.446
  23704417.786    -4450353.672 6  -3354205.751 9  23704425.056
 94  3 23 23 32 30.0010000  0  7  2 27 26  7  9 13  4
  21795420.536   -13376904.263 8 -10273013.092 9  21795424.075
  23344955.786    -2555781.657 6  -1876129.801 9  23344962.313
  23394330.388    -5944612.453 6  -4501958.071 9  23394334.888
  21034983.310   -16834112.111 7 -12994775.329 9  21034986.603
  24213755.239    -2418430.662 6  -1736987.182 9  24213759.341
  21940941.388    -6044645.591 6  -4712581.887 9  21940946.665
  23686821.630    -4542819.212 6  -3426256.606 9  23686828.536
 94  3 23 23 33  0.0010000  0  7  2 27 26  7  9 13  4
  21800949.903   -13347847.672 8 -10250371.586 9  21800953.290
  23365741.239    -2446555.828 6  -1791018.894 9  23365746.923
  23402639.200    -5900948.297 6  -4467934.092 9  23402643.970
  21041478.286   -16799981.627 7 -12968180.126 9  21041481.626
  24196873.411    -2507148.676 6  -1806118.056 9  24196877.372
  21928676.521    -6109097.809 6  -4762804.317 9  21928681.556
  23669254.513    -4635135.503 6  -3498191.152 9  23669261.431
 94  3 23 23 33 30.0010000  0  7  2 27 26  7  9 13  4
  21806507.395   -13318642.440 8 -10227614.254 9  21806510.841
  23386576.708    -2337064.409 6  -1705701.043 9  23386582.696
  23411023.872    -5856889.681 6  -4433602.754 9  23411028.677
  21048045.021   -16765471.171 7 -12941288.844 9  21048048.337
  24180018.052    -2595724.250 6  -1875137.921 9  24180022.739
  21916504.505    -6173061.148 6  -4812645.813 9  21916509.638
  23651707.731    -4727338.235 6  -3570037.203 9  23651714.825
 94  3 23 23 34  0.0010000  0  7  2 27 26  7  9 13  4
  21812097.013   -13289268.321 8 -10204725.327 9  21812100.528
  23407457.739    -2227333.005 6  -1620196.185 9  23407463.833
  23419480.161    -5812450.873 6  -4398975.158 9  23419484.333
  21054681.583   -16730596.526 7 -12914113.784 9  21054684.993
  24163186.896    -2684170.528 6  -1944057.013 9  24163190.751
  21904424.239    -6236544.409 6  -4862113.225 9  21904429.298
  23634183.021    -4819434.612 6  -3641800.428 9  23634190.067
 94  3 23 23 34 30.0010000  0  7  2 27 26  7  9 13  4
  21817723.974   -13259696.825 8 -10181682.597 9  21817727.688
  23428383.739    -2117367.285 6  -1534508.745 9  23428389.903
  23428013.575    -5767609.293 6  -4364033.713 9  23428017.700
  21061389.794   -16695344.875 7 -12886644.952 9  21061393.345
  24146381.138    -2772485.488 6  -2012873.784 9  24146384.911
  21892438.216    -6299530.903 6  -4911193.542 9  21892443.185
  23616682.403    -4911403.567 6  -3713464.300 9  23616689.790
 94  3 23 23 35  0.0010000  0  7  2 27 26  7  9 13  4
  21823390.349   -13229920.804 8 -10158480.496 9  21823394.063
  23449353.716    -2007172.575 6  -1448642.869 9  23449359.692
  23436623.364    -5722361.465 6  -4328775.706 9  23436628.181
  21068169.364   -16659718.615 7 -12858884.215 9  21068172.856
  24129601.489    -2860666.663 6  -2081586.314 9  24129605.556
  21880545.700    -6362026.335 6  -4959891.218 9  21880550.755
  23599204.052    -5003249.548 6  -3785032.425 9  23599210.802
 94  3 23 23 35 30.0010000  0  7  2 27 26  7  9 13  4
  21829101.646   -13199907.048 8 -10135093.150 9  21829105.419
  23470370.856    -1896727.252 6  -1362581.716 9  23470377.501
  23445317.411    -5676675.192 6  -4293176.065 9  23445321.771
  21075020.247   -16623717.233 7 -12830831.185 9  21075023.599
  24112849.356    -2948694.574 6  -2150179.416 9  24112853.833
  21868749.630    -6424014.034 6  -5008193.258 9  21868754.755
  23581757.005    -5094934.420 6  -3856474.956 9  23581764.251
 94  3 23 23 36  0.0010000  0  7  2 27 26  7  9 13  4
  21834855.114   -13169674.097 8 -10111535.004 9  21834858.993
  23491435.161    -1786032.477 6  -1276326.193 9  23491441.981
  23454095.263    -5630547.253 6  -4257232.274 9  23454100.009
  21081939.396   -16587357.321 7 -12802498.777 9  21081942.724
  24096126.075    -3036573.052 5  -2218656.094 9  24096130.657
  21857049.536    -6485498.955 6  -5056103.520 9  21857054.532
  23564341.013    -5186449.149 6  -3927784.940 9  23564348.599
 94  3 23 23 36 30.0010000  0  7  2 27 26  7  9 13  4
  21840644.114   -13139252.169 8 -10087829.608 9  21840647.841
  23512549.880    -1675075.948 6  -1189866.686 9  23512556.431
  23462955.052    -5583987.025 6  -4220951.634 9  23462959.329
  21088928.153   -16550630.279 7 -12773880.301 9  21088931.423
  24079433.427    -3124292.043 5  -2287008.468 9  24079437.868
  21845444.825    -6546481.316 6  -5103622.172 9  21845449.903
  23546957.919    -5277801.256 6  -3998968.173 9  23546964.716
 94  3 23 23 37  0.0010000  0  7  2 27 26  7  9 13  4
  21846465.380   -13108660.310 8 -10063991.798 9  21846469.024
  23533715.380    -1563851.182 6  -1103198.217 9  23533722.165
  23471893.997    -5537014.777 6  -4184349.918 9  23471898.673
  21095984.622   -16513548.371 7 -12744985.302 9  21095987.985
  24062774.200    -3211842.352 5  -2355229.414 9  24062778.396
  21833934.481    -6606967.655 6  -5150754.317 9  21833939.735
  23529602.302    -5369003.634 6  -4070034.760 9  23529609.134
 94  3 23 23 37 30.0010000  0  7  2 27 26  7  9 13  4
  21852317.130   -13077910.265 8 -10040030.720 9  21852320.763
  23554931.114    -1452360.834 6  -1016322.780 9  23554937.044
  23480909.669    -5489636.587 6  -4147431.908 9  23480914.685
  21103107.575   -16476116.926 7 -12715817.942 9  21103110.856
  24046143.247    -3299234.564 5  -2423327.172 9  24046147.946
  21822519.685    -6666954.140 6  -5197496.967 9  21822524.548
  23512275.544    -5460057.084 6  -4140985.305 9  23512281.731
 94  3 23 23 38  0.0010000  0  7  2 27 26  7  9 13  4
  21858197.239   -13047009.784 8 -10015952.421 9  21858200.813
  23576196.622    -1340608.194 6   -929242.936 9  23576202.962
  23490001.458    -5441863.301 6  -4110206.016 9  23490005.876
  21110300.075   -16438320.468 7 -12686366.148 9  21110303.239
  24029542.778    -3386470.296 5  -2491302.992 9  24029546.048
  21811199.935    -6726437.892 6  -5243847.873 9  21811205.188
  23494974.177    -5550976.750 6  -4211831.593 9  23494980.423
 94  3 23 23 38 30.0010000  0  7  2 27 26  7  9 13  4
  21864109.606   -13015940.839 8  -9991742.849 9  21864113.298
  23597512.708    -1228593.246 6   -841958.725 9  23597519.435
  23499166.349    -5393700.137 6  -4072676.321 9  23499171.224
  21117562.739   -16400153.816 7 -12656625.896 9  21117565.997
  24012974.091    -3473543.355 6  -2559152.074 9  24012976.622
  21799978.005    -6785409.822 6  -5289799.959 9  21799983.095
  23477698.841    -5641755.414 6  -4282568.015 9  23477705.532
 94  3 23 23 39  0.0010000  0  7  2 27 26  7  9 13  4
  21870055.981   -12984691.728 8  -9967392.893 9  21870059.614
  23618872.747    -1116347.275 6   -754494.500 9  23618879.438
  23508405.169    -5345147.664 6  -4034843.275 9  23508410.044
  21124890.950   -16361644.616 7 -12626618.720 9  21124894.196
  23996433.919    -3560460.816 6  -2626879.902 9  23996437.634
  21788851.856    -6843877.602 6  -5335359.202 9  21788857.274
  23460450.419    -5732395.713 6  -4353196.622 9  23460457.017
 94  3 23 23 39 30.0010000  0  7  2 27 26  7  9 13  4
  21876038.700   -12953250.570 8  -9942893.289 9  21876042.380
  23640273.497    -1003886.531 6   -666862.911 9  23640280.392
  23517718.927    -5296202.198 6  -3996703.996 9  23517723.778
  21132285.474   -16322785.167 7 -12596338.624 9  21132288.673
  23979922.114    -3647229.687 6  -2694491.935 9  23979926.063
  21777822.380    -6901837.652 6  -5380522.813 9  21777827.751
  23443231.310    -5822885.064 6  -4423707.590 9  23443238.204
 94  3 23 23 40  0.0010000  0  7  2 27 26  7  9 13  4
  21882060.661   -12921604.689 8  -9918234.161 9  21882064.376
  23661713.239     -891220.049 6   -579071.012 9  23661720.368
  23527107.724    -5246868.754 6  -3958262.385 9  23527111.696
  21139745.997   -16283578.989 7 -12565788.347 9  21139749.161
  23963441.685    -3733834.858 6  -2761976.417 9  23963445.552
  21766890.020    -6959287.099 6  -5425288.555 9  21766895.403
  23426041.427    -5913214.582 6  -4494094.039 9  23426048.095
 94  3 23 23 40 30.0010000  0  7  2 27 26  7  9 13  4
  21888122.981   -12889749.099 8  -9893411.622 9  21888126.579
  23683194.513     -778337.583 6   -491110.805 9  23683200.196
  23536569.794    -5197141.728 6  -3919514.103 9  23536574.118
  21147271.591   -16244034.043 7 -12534974.100 9  21147274.720
  23946995.521    -3820257.321 6  -2829318.527 9  23946999.692
  21756055.942    -7016220.370 6  -5469652.076 9  21756061.294
  23408886.638    -6003365.336 6  -4564341.203 9  23408892.743
 94  3 23 23 41  0.0010000  0  7  2 27 26  7  9 13  4
  21894222.997   -12857693.105 8  -9868432.927 9  21894226.583
  23704718.646     -665224.682 6   -402971.016 9  23704725.196
  23546107.231    -5147023.829 6  -3880461.242 9  23546111.696
  21154862.247   -16204144.248 7 -12503891.133 9  21154865.282
  23930585.427    -3906494.432 6  -2896516.208 9  23930589.634
  21745320.513    -7072636.702 6  -5513612.791 9  21745325.521
  23391768.638    -6093320.505 6  -4634435.946 9  23391775.036
 94  3 23 23 41 30.0010000  0  7  2 27 26  7  9 13  4
  21900358.638   -12825450.484 8  -9843308.802 9  21900362.306
  23726290.731     -551864.298 6   -314638.420 9  23726297.813
  23555717.372    -5096522.980 6  -3841109.979 9  23555722.235
  21162521.935   -16163892.071 7 -12472525.792 9  21162524.794
  23914211.513    -3992542.869 6  -2963566.861 9  23914215.321
  21734683.302    -7128535.241 6  -5557170.025 9  21734688.313
  23374687.825    -6183076.958 6  -4704375.876 9  23374693.403
 94  3 23 23 42  0.0010000  0  7  2 27 26  7  9 13  4
  21906528.919   -12793025.402 8  -9818042.502 9  21906532.505
  23747911.942     -438244.197 5   -226103.444 9  23747919.493
  23565399.630    -5045643.933 6  -3801464.010 9  23565404.306
  21170250.888   -16123275.368 7 -12440876.403 9  21170253.946
  23897874.552    -4078394.124 6  -3030463.875 9  23897878.735
  21724144.380    -7183916.166 6  -5600323.927 9  21724149.481
  23357645.513    -6272639.414 6  -4774164.622 9  23357650.810
 94  3 23 23 42 30.0010000  0  7  2 27 26  7  9 13  4
  21912732.185   -12760425.280 8  -9792639.809 9  21912735.911
  23769583.692     -324357.623 5   -137360.823 9  23769590.185
  23575156.075    -4994374.096 6  -3761513.541 9  23575160.517
  21178051.599   -16082284.162 7 -12408935.191 9  21178054.528
  23881573.700    -4164055.021 6  -3097212.560 9  23881577.802
  21713703.849    -7238781.699 6  -5643076.227 9  21713709.040
  23340638.380    -6362009.363 6  -4843803.341 9  23340645.251
 94  3 23 23 43  0.0010000  0  7  2 27 26  7  9 13  4
  21918970.880   -12727640.884 7  -9767093.523 9  21918974.665
  23791302.435     -210226.384 5    -48427.527 9  23791309.575
  23584987.286    -4942707.534 6  -3721253.929 9  23584992.021
  21185924.622   -16040910.648 7 -12376696.076 9  21185927.517
  23865307.333    -4249533.694 6  -3163819.232 9  23865311.599
  21703361.716    -7293130.479 6  -5685425.859 9  21703366.661
  23323666.489    -6451195.297 6  -4913298.717 9  23323672.114
 94  3 23 23 43 30.0010000  0  7  2 27 26  7  9 13  4
  21925246.833   -12694661.840 8  -9741395.564 9  21925250.571
  23813063.825      -95871.817 5     40679.752 9  23813071.200
  23594898.786    -4890623.526 6  -3680669.037 9  23594903.146
  21193868.403   -15999164.802 7 -12344166.833 9  21193871.497
  23849075.817    -4334830.337 6  -3230284.061 9  23849079.907
  21693118.474    -7346958.735 6  -5727369.884 9  21693123.423
  23306728.388    -6540207.944 6  -4982659.045 9  23306733.415
 94  3 23 23 44  0.0010000  0  7  2 27 26  7  9 13  4
  21931560.310   -12661483.875 8  -9715542.604 9  21931563.813
  23834864.302       18691.081 5    129949.363 9  23834872.157
  23604890.458    -4838117.484 6  -3639755.282 9  23604895.122
  21201878.825   -15957069.761 7 -12311365.492 9  21201881.837
  23832878.896    -4419948.405 6  -3296609.747 9  23832882.458
  21682974.099    -7400266.978 6  -5768908.710 9  21682978.837
  23289824.770    -6629034.861 6  -5051874.648 9  23289830.185
 94  3 23 23 44 30.0010000  0  7  2 27 26  7  9 13  4
  21937911.419   -12628108.678 8  -9689535.954 9  21937915.063
  23856701.950      133446.433 5    219368.937 9  23856708.950
  23614962.161    -4785192.579 6  -3598515.140 9  23614966.181
  21209952.052   -15914644.886 7 -12278307.134 9  21209955.228
  23816713.786    -4504892.768 6  -3362800.097 9  23816717.056
  21672928.380    -7453057.581 6  -5810044.181 9  21672933.161
  23272959.403    -6717661.852 6  -5120934.474 9  23272964.794
 94  3 23 23 45  0.0010000  0  7  2 27 26  7  9 13  4
  21944304.560   -12594512.856 7  -9663357.392 9  21944308.298
  23878578.560      248407.154 5    308948.544 9  23878585.712
  23625109.880    -4731865.198 6  -3556961.380 9  23625114.052
  21218088.489   -15871886.520 7 -12244988.915 9  21218091.782
  23800585.177    -4589649.878 6  -3428844.542 9  23800589.032
  21662983.653    -7505316.239 6  -5850765.156 9  21662988.548
  23256137.380    -6806062.888 6  -5189818.226 9  23256142.056
